     2              OBSERVATION DATA    GPS                 RINEX VERSION / TYPE
ASHTORIN MIT 08                                             PGM / RUN BY / DATE
                                                            COMMENT
Original Marker Name: COAC                                  COMMENT
Campaign Name: STRC/NBC 1997                                COMMENT
4-Character Station Name: COAC                              COMMENT
6-Character Antenna Code: DMRCHT                            COMMENT
Vertical Measurement Point: BCR                             COMMENT
Vertical Offset to Rinex Ref. Point: 0.0349                 COMMENT
Radial Measurement Point: ECF                               COMMENT
Radial Offset to Rinex Ref. Point: 0.1896                   COMMENT
Antenna Height from Field Measurement: 1.4030 m             COMMENT
Additional Antenna Identification Info.:                    COMMENT
Turborogue and Ashtech Choke Ring                           COMMENT
Original XYZ: 0.0000 0.0000 0.0000                          COMMENT
New XYZ position is based on association with SCEC monument COMMENT
E1D0I5P7+0012. Position of that monument is believed to be  COMMENT
valid to within 1 m horizontally; vertical accuracy         COMMENT
should be no worse than 3-times this value.                 COMMENT
                                                            COMMENT
Revised Rinex header created by UCSD GPS archive for        COMMENT
GSAC on 12-Apr-1999 (1999:102) 05:46:10 GMT                 COMMENT
For assistance contact dagnew@ucsd.edu or hjohnson@ucsd.edu COMMENT
                                                            COMMENT
COACH 2 1967                                                MARKER NAME
                                                            MARKER NUMBER
DBM UNAVCO                                                  OBSERVER / AGENCY
385 ASHTECH Z12-XII3 1E951D0                                REC # / TYPE / VERS
653 DORNE-MARGOL. TYPE T                                    ANT # / TYPE
 -2292214.0000 -4825862.0000  3472186.0000                  APPROX POSITION XYZ
        1.3552        0.0000        0.0000                  ANTENNA: DELTA H/E/N
     1     1     0                                          WAVELENGTH FACT L1/2
     7    L1    L2    C1    P1    P2    D1    D2            # / TYPES OF OBSERV
    30                                                      INTERVAL
  1997     3     9     0     0   30.000000                  TIME OF FIRST OBS
  1997     3     9    15     1   60.000000                  TIME OF LAST OBS
     0                                                      # OF SATELLITES
                                                            END OF HEADER
 97  3  9  0  0 30.0000000  0  7 24  2  4  9  5  7 16                0.000000000
 -27650423.613 9 -21519279.76949  20774252.415    20774252.4054   20774257.9504
        -0.000          -0.000
  -1358233.805 9  -1049705.03745  24308344.928    24308344.6634   24308350.8954
        -0.000          -0.000
 -30987257.001 9 -23860408.81249  20833859.103    20833859.4194   20833863.6194
        -0.000          -0.000
 -25518655.775 9 -18450602.15348  21521954.949    21521954.9114   21521959.4584
        -0.000          -0.000
 -19789920.479 9 -15409564.42047  22265361.324    22265361.0914   22265366.0984
        -0.000          -0.000
 -19353730.973 9 -15061667.01946  23186753.349    23186752.8654   23186758.1864
        -0.000          -0.000
  -8024668.521 8  -6235308.67845  24713935.901    24713935.5494   24713941.8874
        -0.000          -0.000
 97  3  9  0  1  0.0000000  0  7 24  2  4  9  5  7 16                0.000478924
 -27707772.927 9 -21563967.52749  20763339.200    20763339.1994   20763344.7234
        -0.000          -0.000
  -1284820.026 9   -992499.52045  24322315.169    24322314.7624   24322321.3404
        -0.000          -0.000
 -30967193.731 9 -23844775.08749  20837677.070    20837677.3464   20837681.4964
        -0.000          -0.000
 -25512266.580 9 -18445623.56948  21523170.786    21523170.7494   21523175.2924
        -0.000          -0.000
 -19882681.350 9 -15481845.59647  22247709.600    22247709.3124   22247714.2724
        -0.000          -0.000
 -19303519.050 9 -15022540.86346  23196308.309    23196307.7614   23196313.2134
        -0.000          -0.000
  -8031950.979 8  -6240983.34245  24712549.939    24712549.7784   24712555.9464
        -0.000          -0.000
 97  3  9  0  1 30.0000000  0  7 24  2  4  9  5  7 16                0.000468150
 -27764518.614 9 -21608184.92449  20752540.879    20752540.8654   20752546.3394
        -0.000          -0.000
  -1211088.427 9   -935046.39345  24336345.778    24336345.3494   24336352.3134
        -0.000          -0.000
 -30946526.545 9 -23828670.78149  20841609.900    20841610.1834   20841614.2764
        -0.000          -0.000
 -25505261.712 9 -18440165.24248  21524503.759    21524503.7264   21524508.3234
        -0.000          -0.000
 -19975231.547 9 -15553962.61647  22230097.920    22230097.5944   22230102.5044
        -0.000          -0.000
 -19253199.299 9 -14983330.66846  23205883.724    23205883.2124   23205888.6984
        -0.000          -0.000
  -8038644.922 8  -6246199.40645  24711275.950    24711275.7714   24711281.8814
        -0.000          -0.000
 97  3  9  0  2  0.0000000  0  7 24  2  4  9  5  7 16                0.000458454
 -27820762.025 9 -21652010.92949  20741838.091    20741838.1244   20741843.5054
        -0.000          -0.000
  -1137129.656 9   -877416.22046  24350419.589    24350419.1664   24350426.3994
        -0.000          -0.000
 -30925356.242 9 -23812174.43549  20845638.457    20845638.7554   20845642.8114
        -0.000          -0.000
 -25497734.770 9 -18434300.09548  21525936.014    21525935.9954   21525940.7114
        -0.000          -0.000
 -20067647.282 9 -15625974.86847  22212511.878    22212511.5194   22212516.3184
        -0.000          -0.000
 -19202834.580 9 -14944085.46046  23215467.823    23215467.3364   23215472.7554
        -0.000          -0.000
  -8044841.268 8  -6251027.69245  24710096.826    24710096.5754   24710102.6234
        -0.000          -0.000
 97  3  9  0  2 30.0000000  0  7 24  2  4  9  5  7 16                0.000448745
 -27876549.009 9 -21695481.27649  20731222.260    20731222.2334   20731227.4864
        -0.000          -0.000
  -1062966.895 9   -819627.11745  24364532.395    24364531.9554   24364539.0454
        -0.000          -0.000
 -30903724.264 9 -23795318.33949  20849754.913    20849755.2154   20849759.1964
        -0.000          -0.000
 -25489718.027 9 -18428053.28448  21527461.520    21527461.4894   21527466.2594
        -0.000          -0.000
 -20159950.427 9 -15697899.38147  22194947.081    22194946.7484   22194951.5284
        -0.000          -0.000
 -19152447.555 9 -14904822.85146  23225056.333    23225055.8184   23225061.0524
        -0.000          -0.000
  -8050584.854 8  -6255503.20745  24709004.014    24709003.8624   24709009.5234
        -0.000          -0.000
 97  3  9  0  3  0.0000000  0  7 24  2  4  9  5  7 16                0.000439023
 -27931873.867 9 -21738591.52849  20720694.240    20720694.2124   20720699.4664
        -0.000          -0.000
   -988601.995 8   -761680.50045  24378683.777    24378683.3494   24378690.2404
        -0.000          -0.000
 -30881623.529 9 -23778096.97749  20853960.526    20853960.8234   20853964.7764
        -0.000          -0.000
 -25481215.739 9 -18421428.13548  21529079.425    21529079.4084   21529084.1424
        -0.000          -0.000
 -20252124.558 9 -15769723.35547  22177406.894    22177406.5614   22177411.3844
        -0.000          -0.000
 -19102035.740 9 -14865540.92946  23234649.361    23234648.9074   23234654.1734
        -0.000          -0.000
  -8055873.858 8  -6259624.49745  24707997.595    24707997.1684   24708003.0154
        -0.000          -0.000
 97  3  9  0  3 30.0000000  0  7 24  2  4  9  5  7 16                0.000429354
 -27986606.576 9 -21781240.37049  20710278.945    20710278.9124   20710284.1574
        -0.000          -0.000
   -913944.665 8   -703506.04445  24392890.742    24392890.3234   24392897.0114
        -0.000          -0.000
 -30858927.876 9 -23760412.05349  20858279.357    20858279.6834   20858283.6614
        -0.000          -0.000
 -25472103.988 9 -18414328.07948  21530813.370    21530813.3584   21530818.0564
        -0.000          -0.000
 -20344039.532 9 -15841345.40347  22159916.109    22159915.7794   22159920.5874
        -0.000          -0.000
 -19051493.263 9 -14826157.18846  23244267.323    23244266.9094   23244272.0694
        -0.000          -0.000
  -8060575.890 8  -6263288.37745  24707102.761    24707102.4994   24707108.2974
        -0.000          -0.000
 97  3  9  0  4  0.0000000  0  8 24  2  4  9  5 30  7 16             0.000419748
 -28040773.523 9 -21823448.36649  20699971.301    20699971.2684   20699976.4894
        -0.000          -0.000
   -839013.406 8   -645118.09445  24407149.581    24407149.2324   24407155.8474
        -0.000          -0.000
 -30835658.942 9 -23742280.41649  20862707.341    20862707.6484   20862711.6104
        -0.000          -0.000
 -25462408.870 9 -18406773.46848  21532658.327    21532658.3114   21532662.9604
        -0.000          -0.000
 -20435716.037 9 -15912781.62547  22142470.655    22142470.3274   22142475.1264
        -0.000          -0.000
  -1581830.78918  -1207456.07355  24716680.032    24716680.5185   24716686.2955
        -0.000          -0.000
 -19000871.919 9 -14786711.98946  23253900.292    23253899.8114   23253905.0974
        -0.000          -0.000
  -8064698.651 8  -6266500.89545  24706318.171    24706317.7334   24706323.6194
        -0.000          -0.000
 97  3  9  0  4 30.0000000  0  8 24  2  4  9  5 30  7 16             0.000410080
 -28094484.285 9 -21865300.89049  20689750.423    20689750.3944   20689755.7154
        -0.000          -0.000
   -763916.721 8   -586601.26745  24421439.971    24421439.5794   24421446.2934
        -0.000          -0.000
 -30811918.986 9 -23723781.74249  20867224.889    20867225.1814   20867229.1824
        -0.000          -0.000
 -25452243.812 9 -18398852.66148  21534592.658    21534592.6724   21534597.2214
        -0.000          -0.000
 -20527256.775 9 -15984112.05547  22125051.025    22125050.6764   22125055.4174
        -0.000          -0.000
  -1695306.745 8  -1295878.78245  24695086.198    24695086.5974   24695092.4734
        -0.000          -0.000
 -18950305.200 9 -14747309.35246  23263522.646    23263522.1694   23263527.5734
        -0.000          -0.000
  -8068353.879 8  -6269349.12845  24705622.597    24705622.0044   24705627.8864
        -0.000          -0.000
 97  3  9  0  5  0.0000000  0  8 24  2  4  9  5 30  7 16             0.000400346
 -28147773.690 9 -21906825.09049  20679609.753    20679609.7444   20679615.1194
        -0.000          -0.000
   -688717.574 8   -528004.54745  24435750.064    24435749.6134   24435756.0414
        -0.000          -0.000
 -30787752.681 9 -23704950.86049  20871823.576    20871823.8974   20871827.9104
        -0.000          -0.000
 -25441643.841 9 -18390592.96448  21536609.851    21536609.8054   21536614.3584
        -0.000          -0.000
 -20618711.945 9 -16055375.80747  22107647.758    22107647.3544   22107652.1014
        -0.000          -0.000
  -1808893.301 8  -1384387.70145  24673471.546    24673471.9804   24673477.7764
        -0.000          -0.000
 -18899844.168 9 -14707989.07546  23273125.008    23273124.4924   23273129.9704
        -0.000          -0.000
  -8071591.108 8  -6271871.64045  24705006.653    24705006.2304   24705011.6664
        -0.000          -0.000
 97  3  9  0  5 30.0000000  0  8 24  2  4  9  5 30  7 16             0.000390599
 -28200555.868 9 -21947954.04949  20669565.632    20669565.5984   20669571.0154
        -0.000          -0.000
   -613328.127 8   -469259.59445  24450096.354    24450095.6914   24450102.2544
        -0.000          -0.000
 -30763089.185 9 -23685732.54749  20876516.923    20876517.1984   20876521.2264
        -0.000          -0.000
 -25430521.310 9 -18381926.06948  21538726.356    21538726.3204   21538730.8824
        -0.000          -0.000
 -20710014.642 9 -16126520.74647  22090273.368    22090272.9624   22090277.7214
        -0.000          -0.000
  -1922514.770 8  -1472923.83345  24651850.305    24651850.4594   24651856.1694
        -0.000          -0.000
 -18849402.867 9 -14668684.19246  23282723.603    23282723.0864   23282728.6354
        -0.000          -0.000
  -8074336.674 8  -6274011.00845  24704484.233    24704483.8314   24704489.2824
        -0.000          -0.000
 97  3  9  0  6  0.0000000  0  8 24  2  4  9  5 30  7 16             0.000380850
 -28252828.775 9 -21988686.17049  20659618.418    20659618.3644   20659623.7874
        -0.000          -0.000
   -537719.238 8   -410343.65545  24464484.309    24464483.7704   24464490.1634
        -0.000          -0.000
 -30737921.767 9 -23666121.57148  20881306.099    20881306.3634   20881310.4234
        -0.000          -0.000
 -25418861.764 9 -18372840.71748  21540945.082    21540945.0744   21540949.6534
        -0.000          -0.000
 -20801170.120 9 -16197550.97547  22072927.018    22072926.6614   22072931.4154
        -0.000          -0.000
  -2036162.854 8  -1561480.71245  24630223.600    24630223.7214   24630229.6924
        -0.000          -0.000
 -18798955.313 9 -14629374.43946  23292323.599    23292323.0104   23292328.4944
        -0.000          -0.000
  -8076602.543 8  -6275776.58745  24704053.193    24704052.8694   24704058.2134
        -0.000          -0.000
 97  3  9  0  6 30.0000000  0  8 24  2  4  9  5 30  7 16             0.000371107
 -28304560.926 9 -22028996.92249  20649774.071    20649774.0294   20649779.4434
        -0.000          -0.000
   -461876.946 8   -351245.84145  24478916.674    24478916.2184   24478922.7374
        -0.000          -0.000
 -30712231.743 9 -23646103.36948  20886194.680    20886194.9584   20886199.0674
        -0.000          -0.000
 -25406643.830 9 -18363320.25848  21543270.142    21543270.1244   21543274.8014
        -0.000          -0.000
 -20892158.865 9 -16268451.27147  22055612.384    22055612.0574   22055616.8554
        -0.000          -0.000
  -2149823.303 8  -1650047.24845  24608594.706    24608594.7654   24608600.9084
        -0.000          -0.000
 -18748455.813 9 -14590024.19246  23301933.281    23301932.7784   23301938.2354
        -0.000          -0.000
  -8078375.346 8  -6277157.99045  24703715.739    24703715.3234   24703720.8554
        -0.000          -0.000
 97  3  9  0  7  0.0000000  0  8 24  2  4  9  5 30  7 16             0.000361384
 -28355724.281 9 -22068864.46149  20640038.009    20640037.9994   20640043.3644
        -0.000          -0.000
   -385776.433 8   -291946.78945  24493398.197    24493397.6644   24493404.2664
        -0.000          -0.000
 -30686005.587 9 -23625667.40248  20891185.321    20891185.6334   20891189.7904
        -0.000          -0.000
 -25393858.354 9 -18353357.56248  21545703.092    21545703.1004   21545707.8024
        -0.000          -0.000
 -20982974.696 9 -16339216.82847  22038330.674    22038330.3024   22038335.1604
        -0.000          -0.000
  -2263479.956 8  -1738610.78345  24586966.562    24586966.7074   24586972.6244
        -0.000          -0.000
 -18697883.034 9 -14550616.82546  23311557.079    23311556.4954   23311561.9364
        -0.000          -0.000
  -8079624.195 8  -6278131.10545  24703477.986    24703477.6694   24703483.2714
        -0.000          -0.000
 97  3  9  0  7 30.0000000  0  8 24  2  4  9  5 30  7 16             0.000351738
 -28406242.330 9 -22108229.15249  20630424.839    20630424.8044   20630430.1054
        -0.000          -0.000
   -309333.426 8   -232380.82645  24507944.762    24507944.3644   24507950.7394
        -0.000          -0.000
 -30659175.553 9 -23604760.88048  20896290.913    20896291.2194   20896295.3924
        -0.000          -0.000
 -25380436.154 9 -18342898.71448  21548257.292    21548257.2724   21548262.0254
        -0.000          -0.000
 -21073527.929 9 -16409777.76947  22021098.892    22021098.5614   22021103.3944
        -0.000          -0.000
  -2377042.979 9  -1827101.36745  24565356.050    24565356.3884   24565362.1534
        -0.000          -0.000
 -18647150.022 9 -14511084.62746  23321211.218    23321210.6324   23321216.1664
        -0.000          -0.000
  -8080253.607 8  -6278621.53345  24703358.081    24703357.8114   24703363.7194
        -0.000          -0.000
 97  3  9  0  8  0.0000000  0  7 24  4  9  5 30  7 16                0.000342008
 -28456187.883 9 -22147147.74449  20620920.504    20620920.4544   20620925.7324
        -0.000          -0.000
 -30631805.252 9 -23583433.37248  20901499.280    20901499.5634   20901503.7874
        -0.000          -0.000
 -25366459.887 9 -18332008.12248  21550916.850    21550916.8014   21550921.5944
        -0.000          -0.000
 -21163882.448 9 -16480183.86847  22003905.039    22003904.6544   22003909.4134
        -0.000          -0.000
  -2490580.681 9  -1915572.25346  24543750.473    24543750.9154   24543756.7064
        -0.000          -0.000
 -18596333.201 9 -14471487.12446  23330881.270    23330880.7474   23330886.4354
        -0.000          -0.000
  -8080332.564 8  -6278683.04245  24703343.033    24703342.7424   24703348.6254
        -0.000          -0.000
 97  3  9  0  8 30.0000000  0  7 24  4  9  5 30  7 16                0.000332391
 -28505602.960 9 -22185652.97749  20611517.094    20611517.0744   20611522.2914
        -0.000          -0.000
 -30603945.045 9 -23561724.12448  20906800.865    20906801.1534   20906805.3894
        -0.000          -0.000
 -25351977.136 9 -18320722.87448  21553672.788    21553672.7434   21553677.5184
        -0.000          -0.000
 -21254070.701 9 -16550460.40847  21986742.755    21986742.3854   21986747.1164
        -0.000          -0.000
  -2604141.503 9  -2004061.13446  24522140.676    24522141.0554   24522146.7234
        -0.000          -0.000
 -18545490.710 9 -14431869.63046  23340556.402    23340555.7304   23340561.5394
        -0.000          -0.000
  -8079886.312 8  -6278335.31245  24703428.022    24703427.5834   24703433.4554
        -0.000          -0.000
 97  3  9  0  9  0.0000000  0  7 24  4  9  5 30  7 16                0.000322749
 -28554544.423 9 -22223789.16249  20602203.813    20602203.8014   20602209.0434
        -0.000          -0.000
 -30575654.525 9 -23539679.55848  20912184.399    20912184.6864   20912188.8504
        -0.000          -0.000
 -25337021.898 9 -18309069.46048  21556518.683    21556518.6634   21556523.3164
        -0.000          -0.000
 -21344136.693 9 -16620641.66748  21969603.760    21969603.3904   21969608.1614
        -0.000          -0.000
  -2717781.692 9  -2092611.87046  24500515.664    24500515.9564   24500521.6754
        -0.000          -0.000
 -18494680.983 9 -14392277.63446  23350225.076    23350224.6254   23350230.3174
        -0.000          -0.000
  -8078971.326 9  -6277622.33345  24703602.351    24703601.9224   24703607.6274
        -0.000          -0.000
 97  3  9  0  9 30.0000000  0  7 24  4  9  5 30  7 16                0.000313095
 -28603001.260 9 -22261547.71849  20592982.755    20592982.7754   20592988.0144
        -0.000          -0.000
 -30546918.079 9 -23517287.52148  20917652.697    20917653.0304   20917657.2004
        -0.000          -0.000
 -25321557.265 9 -18297019.13148  21559461.557    21559461.5054   21559466.0384
        -0.000          -0.000
 -21434050.348 9 -16690704.22748  21952493.800    21952493.3954   21952498.1834
        -0.000          -0.000
  -2831472.405 9  -2181201.94846  24478880.973    24478881.2434   24478887.0514
        -0.000          -0.000
 -18443878.915 9 -14352691.62746  23359892.610    23359892.0534   23359897.6304
        -0.000          -0.000
  -8077586.855 9  -6276543.51945  24703866.003    24703865.5594   24703870.9374
        -0.000          -0.000
 97  3  9  0 10  0.0000000  0  7 24  4  9  5 30  7 16                0.000303424
 -28650957.480 9 -22298916.18149  20583857.018    20583857.0024   20583862.2194
        -0.000          -0.000
 -30517707.828 9 -23494526.28248  20923211.282    20923211.5924   20923215.7014
        -0.000          -0.000
 -25305564.823 9 -18284557.50748  21562504.840    21562504.8184   21562509.3024
        -0.000          -0.000
 -21523793.061 9 -16760633.59348  21935416.291    21935415.8984   21935420.6054
        -0.000          -0.000
  -2945200.450 9  -2269821.11346  24457239.119    24457239.4654   24457245.3124
        -0.000          -0.000
 -18393072.031 9 -14313101.86346  23369560.764    23369560.2804   23369565.8244
        -0.000          -0.000
  -8075731.352 8  -6275097.69345  24704219.236    24704218.8354   24704223.9804
        -0.000          -0.000
 97  3  9  0 10 30.0000000  0  8 24  4  9  5 30  7 16 10             0.000293721
 -28698415.687 9 -22335896.58549  20574826.034    20574826.0144   20574831.2754
        -0.000          -0.000
 -30488029.630 9 -23471400.41348  20928858.884    20928859.1824   20928863.2454
        -0.000          -0.000
 -25289036.028 9 -18271677.95748  21565650.261    21565650.2014   21565654.6674
        -0.000          -0.000
 -21613347.396 9 -16830416.18148  21918374.569    21918374.2254   21918378.9054
        -0.000          -0.000
  -3058965.192 9  -2358468.89346  24435590.468    24435590.7334   24435596.4504
        -0.000          -0.000
 -18342259.775 9 -14273507.93846  23379229.944    23379229.4664   23379235.1124
        -0.000          -0.000
  -8073394.963 8  -6273277.12945  24704663.862    24704663.4774   24704668.8344
        -0.000          -0.000
  -6369749.27919  -4948657.07955  24725411.358    24725410.4355   24725417.2265
        -0.000          -0.000
 97  3  9  0 11  0.0000000  0  8 24  4  9  5 30  7 16 10             0.000284015
 -28745332.027 9 -22372454.76049  20565898.132    20565898.1354   20565903.4274
        -0.000          -0.000
 -30457846.493 9 -23447881.08048  20934602.560    20934602.8764   20934606.9074
        -0.000          -0.000
 -25271951.282 9 -18258365.18448  21568901.401    21568901.3404   21568905.8524
        -0.000          -0.000
 -21702677.124 9 -16900023.73948  21901375.684    21901375.3134   21901380.0324
        -0.000          -0.000
  -3172726.530 9  -2447114.03546  24413942.393    24413942.6594   24413948.2074
        -0.000          -0.000
 -18291397.225 9 -14233874.78546  23388908.744    23388908.3054   23388913.8664
        -0.000          -0.000
  -8070541.677 8  -6271053.77845  24705206.780    24705206.1824   24705211.7384
        -0.000          -0.000
  -6478064.794 8  -5033058.71545  24704799.556    24704798.6644   24704805.6964
        -0.000          -0.000
 97  3  9  0 11 30.0000000  0  8 24  4  9  5 30  7 16 10             0.000274286
 -28791755.523 9 -22408628.89949  20557064.018    20557064.0114   20557069.3134
        -0.000          -0.000
 -30427207.832 9 -23424006.79648  20940432.926    20940433.2204   20940437.2444
        -0.000          -0.000
 -25254389.186 9 -18244680.45348  21572243.364    21572243.3174   21572247.8364
        -0.000          -0.000
 -21791836.287 9 -16969498.38748  21884409.194    21884408.8794   21884413.6564
        -0.000          -0.000
  -3286524.517 9  -2535787.73246  24392287.200    24392287.4814   24392293.0754
        -0.000          -0.000
 -18240543.562 9 -14194248.56946  23398586.019    23398585.5464   23398591.1724
        -0.000          -0.000
  -8067204.892 8  -6268453.70845  24705841.685    24705841.0924   24705846.8654
        -0.000          -0.000
  -6586523.881 9  -5117572.20245  24684160.304    24684159.4324   24684166.7844
        -0.000          -0.000
 97  3  9  0 12  0.0000000  0  8 24  4  9  5 30  7 16 10             0.000264543
 -28837678.907 9 -22444413.34349  20548325.038    20548325.0214   20548330.3714
        -0.000          -0.000
 -30396112.741 9 -23399776.85848  20946350.057    20946350.3634   20946354.4364
        -0.000          -0.000
 -25236369.905 9 -18230639.46848  21575672.356    21575672.2934   21575676.8934
        -0.000          -0.000
 -21880822.168 9 -17038838.02348  21867475.767    21867475.4524   21867480.2224
        -0.000          -0.000
  -3400362.601 9  -2624492.66146  24370624.507    24370624.8074   24370630.3324
        -0.000          -0.000
 -18189691.243 9 -14154623.40446  23408262.891    23408262.4074   23408268.0064
        -0.000          -0.000
  -8063357.213 8  -6265455.52745  24706573.801    24706573.3754   24706579.0634
        -0.000          -0.000
  -6695103.459 8  -5202179.55946  24663498.299    24663497.4164   24663504.8694
        -0.000          -0.000
 97  3  9  0 12 30.0000000  0  8 24  4  9  5 30  7 16 10             0.000254823
 -28883046.661 9 -22479764.83049  20539691.774    20539691.7874   20539697.1604
        -0.000          -0.000
 -30364516.368 9 -23375156.30248  20952362.711    20952363.0014   20952367.0324
        -0.000          -0.000
 -25217840.763 9 -18216201.19348  21579198.345    21579198.3024   21579202.9424
        -0.000          -0.000
 -21969590.742 9 -17108008.33348  21850583.626    21850583.3364   21850588.0584
        -0.000          -0.000
  -3514190.096 9  -2713189.30045  24348963.819    24348964.1234   24348969.6404
        -0.000          -0.000
 -18138784.148 9 -14114955.56146  23417950.216    23417949.7214   23417955.2554
        -0.000          -0.000
  -8058930.515 9  -6262006.19445  24707416.234    24707415.7724   24707421.6524
        -0.000          -0.000
  -6803735.678 9  -5286827.95546  24642826.226    24642825.4374   24642833.0084
        -0.000          -0.000
 97  3  9  0 13  0.0000000  0  8 24  4  9  5 30  7 16 10             0.000245115
 -28927872.707 9 -22514694.19649  20531161.645    20531161.6534   20531166.9944
        -0.000          -0.000
 -30332428.904 9 -23350153.08048  20958468.773    20958469.0544   20958473.1044
        -0.000          -0.000
 -25198814.589 9 -18201375.61948  21582818.895    21582818.8354   21582823.5644
        -0.000          -0.000
 -22058174.337 9 -17177034.49248  21833726.738    21833726.4364   21833731.1304
        -0.000          -0.000
  -3628004.498 9  -2801875.80545  24327305.644    24327305.8784   24327311.5784
        -0.000          -0.000
 -18087838.389 9 -14075257.58346  23427644.768    23427644.3304   23427649.8884
        -0.000          -0.000
  -8053949.362 9  -6258124.76345  24708364.123    24708363.6954   24708369.6514
        -0.000          -0.000
  -6912447.168 8  -5371538.13046  24622139.084    24622138.3284   24622146.1284
        -0.000          -0.000
 97  3  9  0 13 30.0000000  0  8 24  4  9  5 30  7 16 10             0.000235433
 -28972146.238 9 -22549193.03249  20522736.672    20522736.6754   20522741.9734
        -0.000          -0.000
 -30299825.209 9 -23324747.60048  20964673.051    20964673.3594   20964677.4114
        -0.000          -0.000
 -25179260.231 9 -18186138.46648  21586539.985    21586539.9494   21586544.7224
        -0.000          -0.000
 -22146545.777 9 -17245895.34148  21816910.249    21816909.9074   21816914.6304
        -0.000          -0.000
  -3741771.783 9  -2890525.56945  24305656.481    24305656.6444   24305662.0234
        -0.000          -0.000
 -18036848.356 9 -14035525.11446  23437347.857    23437347.4524   23437352.9304
        -0.000          -0.000
  -8048408.532 8  -6253807.23145  24709418.584    24709417.9964   24709424.1804
        -0.000          -0.000
  -7021212.478 8  -5456290.25145  24601441.580    24601440.9574   24601448.7644
        -0.000          -0.000
 97  3  9  0 14  0.0000000  0  8 24  4  9  5 30  7 16 10             0.000225788
 -29015845.462 9 -22583244.35449  20514421.050    20514421.0324   20514426.2594
        -0.000          -0.000
 -30266678.808 9 -23298919.23848  20970980.564    20970980.9024   20970984.9714
        -0.000          -0.000
 -25159150.312 9 -18170468.40648  21590366.696    21590366.6804   21590371.5664
        -0.000          -0.000
 -22234681.481 9 -17314572.49548  21800138.537    21800138.2184   21800143.0034
        -0.000          -0.000
  -3855471.377 9  -2979122.64645  24284020.265    24284020.3724   24284025.4734
        -0.000          -0.000
 -17985788.781 9 -13995738.45046  23447064.364    23447063.8154   23447069.2294
        -0.000          -0.000
  -8042306.299 8  -6249052.25245  24710579.831    24710579.2334   24710585.4844
        -0.000          -0.000
  -7130005.468 8  -5541063.93445  24580738.881    24580738.2894   24580745.8694
        -0.000          -0.000
 97  3  9  0 14 30.0000000  0  8 24  4  9  5 30  7 16 10             0.000216147
 -29059001.003 9 -22616872.02349  20506208.822    20506208.7774   20506213.9314
        -0.000          -0.000
 -30233024.674 9 -23272695.23348  20977384.784    20977385.1084   20977389.1584
        -0.000          -0.000
 -25138512.496 9 -18154386.99748  21594293.965    21594293.9414   21594298.8614
        -0.000          -0.000
 -22322620.902 9 -17383096.70148  21783404.229    21783403.8834   21783408.6324
        -0.000          -0.000
  -3969126.312 9  -3067684.86845  24262392.349    24262392.6954   24262397.8264
        -0.000          -0.000
 -17934707.419 9 -13955934.80946  23456784.957    23456784.4064   23456789.7754
        -0.000          -0.000
  -8035704.287 8  -6243907.83745  24711836.046    24711835.4524   24711841.7914
        -0.000          -0.000
  -7238875.367 8  -5625897.54245  24560021.722    24560020.9914   24560028.4444
        -0.000          -0.000
 97  3  9  0 15  0.0000000  0  8 24  4  9  5 30  7 16 10             0.000206504
 -29101619.271 9 -22650081.04349  20498098.774    20498098.7424   20498103.8774
        -0.000          -0.000
 -30198879.854 9 -23246088.88148  20983882.335    20983882.6014   20983886.6674
        -0.000          -0.000
 -25117368.348 9 -18137911.04448  21598317.520    21598317.4864   21598322.5124
        -0.000          -0.000
 -22410356.411 9 -17451462.01848  21766708.736    21766708.4014   21766713.0944
        -0.000          -0.000
  -4082742.143 9  -3156216.59845  24240772.013    24240772.1524   24240777.6144
        -0.000          -0.000
 -17883623.070 9 -13916128.86746  23466506.057    23466505.4764   23466510.9344
        -0.000          -0.000
  -8028631.839 9  -6238396.82746  24713181.917    24713181.4204   24713187.7064
        -0.000          -0.000
  -7347829.401 8  -5710796.71945  24539288.346    24539287.5454   24539294.6744
        -0.000          -0.000
 97  3  9  0 15 30.0000000  0  8 24  4  9  5 30  7 16 10             0.000196851
 -29143711.955 9 -22682880.51849  20490088.796    20490088.7674   20490093.8874
        -0.000          -0.000
 -30164273.660 9 -23219123.01448  20990467.629    20990467.9124   20990471.9964
        -0.000          -0.000
 -25095735.152 9 -18121054.02148  21602434.179    21602434.1264   21602439.1904
        -0.000          -0.000
 -22497878.594 9 -17519661.10448  21750053.853    21750053.4714   21750058.1134
        -0.000          -0.000
  -4196343.138 9  -3244736.76645  24219154.337    24219154.5094   24219160.1244
        -0.000          -0.000
 -17832538.617 9 -13876322.82346  23476227.041    23476226.5574   23476232.1224
        -0.000          -0.000
  -8021094.671 9  -6232523.70446  24714616.293    24714615.7574   24714622.1364
        -0.000          -0.000
  -7456863.195 8  -5795758.02945  24518539.232    24518538.5604   24518545.9554
        -0.000          -0.000
 97  3  9  0 16  0.0000000  0  8 24  4  9  5 30  7 16 10             0.000187199
 -29185275.411 9 -22715267.61249  20482179.498    20482179.4424   20482184.6114
        -0.000          -0.000
 -30129225.280 9 -23191812.58048  20997137.134    20997137.4544   20997141.4654
        -0.000          -0.000
 -25073610.626 9 -18103814.14748  21606644.416    21606644.3614   21606649.3404
        -0.000          -0.000
 -22585189.077 9 -17587695.22148  21733439.156    21733438.8134   21733443.4794
        -0.000          -0.000
  -4309930.702 9  -3333246.44745  24197539.259    24197539.3344   24197545.0644
        -0.000          -0.000
 -17781431.209 9 -13836498.90646  23485952.374    23485951.9344   23485957.6824
        -0.000          -0.000
  -8013090.373 9  -6226286.57446  24716139.489    24716138.9924   24716145.3184
        -0.000          -0.000
  -7565966.406 8  -5880773.44245  24497777.481    24497776.7724   24497784.1314
        -0.000          -0.000
 97  3  9  0 16 30.0000000  0  8 24  4  9  5 30  7 16 10             0.000177558
 -29226309.824 9 -22747242.46849  20474370.814    20474370.7884   20474376.0064
        -0.000          -0.000
 -30093730.830 9 -23164154.57448  21003891.466    21003891.7784   21003895.8234
        -0.000          -0.000
 -25050973.150 9 -18086174.58148  21610952.255    21610952.1894   21610957.0494
        -0.000          -0.000
 -22672268.005 9 -17655548.90148  21716868.580    21716868.1754   21716872.8824
        -0.000          -0.000
  -4423492.258 9  -3421735.96245  24175929.038    24175929.1134   24175934.8364
        -0.000          -0.000
 -17730286.737 9 -13796646.09346  23495684.989    23495684.4964   23495690.2454
        -0.000          -0.000
  -8004601.752 9  -6219672.07346  24717754.881    24717754.3954   24717760.7624
        -0.000          -0.000
  -7675122.903 8  -5965830.39045  24477005.964    24477005.2324   24477011.8224
        -0.000          -0.000
 97  3  9  0 17  0.0000000  0  8 24  4  9  5 30  7 16 10             0.000167914
 -29266846.720 9 -22778829.64849  20466656.869    20466656.8484   20466662.1014
        -0.000          -0.000
 -30057817.093 9 -23136169.84348  21010725.598    21010725.9374   21010729.9764
        -0.000          -0.000
 -25027849.097 9 -18068155.86148  21615352.700    21615352.6134   21615357.3804
        -0.000          -0.000
 -22759124.280 9 -17723229.08748  21700340.445    21700340.0274   21700344.7084
        -0.000          -0.000
  -4537054.218 9  -3510225.74945  24154318.975    24154319.0634   24154324.6494
        -0.000          -0.000
 -17679123.288 9 -13756778.50146  23505421.113    23505420.4864   23505426.1614
        -0.000          -0.000
  -7995634.482 9  -6212684.59046  24719461.284    24719460.8634   24719467.1634
        -0.000          -0.000
  -7784354.320 8  -6050945.67845  24456219.810    24456218.9234   24456225.3824
        -0.000          -0.000
 97  3  9  0 17 30.0000000  0  8 24  4  9  5 30  7 16 10             0.000158278
 -29306873.822 9 -22810019.59149  20459039.923    20459039.9214   20459045.2034
        -0.000          -0.000
 -30021459.978 9 -23107839.61548  21017644.144    21017644.4484   21017648.4894
        -0.000          -0.000
 -25004214.477 9 -18049739.30948  21619850.303    21619850.2394   21619854.8684
        -0.000          -0.000
 -22845757.194 9 -17790735.22948  21683854.665    21683854.2304   21683858.9764
        -0.000          -0.000
  -4650598.914 8  -3598702.03945  24132711.928    24132712.1524   24132717.8034
        -0.000          -0.000
 -17627921.076 9 -13716880.69146  23515164.536    23515164.0304   23515169.4104
        -0.000          -0.000
  -7986168.126 9  -6205308.18946  24721262.666    24721262.1764   24721268.5254
        -0.000          -0.000
  -7893648.363 8  -6136109.81245  24435421.194    24435420.6214   24435427.4464
        -0.000          -0.000
 97  3  9  0 18  0.0000000  0  8 24  4  9  5 30  7 16 10             0.000148643
 -29346375.203 9 -22840799.87149  20451523.111    20451523.0354   20451528.2944
        -0.000          -0.000
 -29984637.742 9 -23079146.97348  21024651.122    21024651.4574   21024655.5274
        -0.000          -0.000
 -24980063.845 9 -18030920.66348  21624446.014    21624445.9784   21624450.5954
        -0.000          -0.000
 -22932173.830 9 -17858072.84548  21667410.078    21667409.6944   21667414.3934
        -0.000          -0.000
  -4764123.785 8  -3687162.87145  24111108.561    24111108.9274   24111114.7074
        -0.000          -0.000
 -17576681.920 9 -13676954.08546  23524915.109    23524914.5814   23524919.8084
        -0.000          -0.000
  -7976197.096 9  -6197538.54046  24723160.068    24723159.6534   24723165.9644
        -0.000          -0.000
  -8003007.696 8  -6221324.83445  24414610.667    24414610.1264   24414617.1544
        -0.000          -0.000
 97  3  9  0 18 30.0000000  0  8 24  4  9  5 30  7 16 10             0.000138996
 -29385355.972 9 -22871174.48449  20444105.352    20444105.3004   20444110.5424
        -0.000          -0.000
 -29947347.571 9 -23050089.69548  21031747.165    21031747.4744   21031751.5484
        -0.000          -0.000
 -24955419.826 9 -18011717.55748  21629135.655    21629135.5914   21629140.2304
        -0.000          -0.000
 -23018387.841 9 -17925252.57148  21651004.097    21651003.7024   21651008.4274
        -0.000          -0.000
  -4877651.677 9  -3775626.07345  24089504.983    24089505.4114   24089510.7654
        -0.000          -0.000
 -17525431.703 9 -13637018.87346  23534667.646    23534667.0894   23534672.3844
        -0.000          -0.000
  -7965720.066 9  -6189374.60445  24725153.706    24725153.2634   24725159.6374
        -0.000          -0.000
  -8112449.669 9  -6306604.26045  24393784.760    24393784.2444   24393791.3664
        -0.000          -0.000
 97  3  9  0 19  0.0000000  0  7 24  4  9  5 30  7 10                0.000129363
 -29423789.392 9 -22901122.58749  20436791.722    20436791.6844   20436796.8884
        -0.000          -0.000
 -29909586.620 9 -23020665.58248  21038932.743    21038933.0904   21038937.2604
        -0.000          -0.000
 -24930277.097 9 -17992125.83948  21633920.131    21633920.0394   21633924.7874
        -0.000          -0.000
 -23104395.634 9 -17992271.60848  21634637.343    21634636.9434   21634641.7314
        -0.000          -0.000
  -4991165.469 9  -3864078.35445  24067904.174    24067904.5564   24067909.4244
        -0.000          -0.000
 -17474162.325 9 -13597068.73046  23544423.767    23544423.2654   23544428.6184
        -0.000          -0.000
  -8221956.628 9  -6391934.31946  24372946.480    24372945.8104   24372953.1654
        -0.000          -0.000
 97  3  9  0 19 30.0000000  0  7 24  4  9  5 30  7 10                0.000119709
 -29461677.770 9 -22930645.97949  20429581.801    20429581.7454   20429586.9204
        -0.000          -0.000
 -29871365.801 9 -22990883.12248  21046205.942    21046206.2944   21046210.4674
        -0.000          -0.000
 -24904636.504 9 -17972146.16148  21638799.353    21638799.2714   21638804.1164
        -0.000          -0.000
 -23190212.891 9 -18059142.18048  21618306.842    21618306.4784   21618311.2024
        -0.000          -0.000
  -5104676.408 8  -3952528.39445  24046303.746    24046304.1404   24046308.7554
        -0.000          -0.000
 -17422881.236 9 -13557109.45046  23554182.226    23554181.7004   23554187.2604
        -0.000          -0.000
  -8331522.412 9  -6477310.21846  24352096.975    24352096.3344   24352103.7704
        -0.000          -0.000
 97  3  9  0 20  0.0000000  0  7 24  4  9  5 30  7 10                0.000110052
 -29499017.177 9 -22959741.60249  20422476.400    20422476.3544   20422481.5284
        -0.000          -0.000
 -29832688.563 9 -22960745.01448  21053566.026    21053566.3794   21053570.4984
        -0.000          -0.000
 -24878500.821 9 -17951780.69848  21643772.725    21643772.6584   21643777.6634
        -0.000          -0.000
 -23275814.581 9 -18125844.78448  21602017.426    21602017.0454   21602021.6684
        -0.000          -0.000
  -5218169.342 8  -4040964.38545  24024706.507    24024706.7424   24024712.0034
        -0.000          -0.000
 -17371573.431 9 -13517129.39146  23563945.739    23563945.2904   23563951.0034
        -0.000          -0.000
  -8441132.350 9  -6562720.49746  24331239.032    24331238.2944   24331245.7004
        -0.000          -0.000
 97  3  9  0 20 30.0000000  0  7 24  4  9  5 30  7 10                0.000100388
 -29535845.177 9 -22988438.72549  20415468.203    20415468.1464   20415473.3274
        -0.000          -0.000
 -29793595.412 9 -22930282.82348  21061005.140    21061005.4994   21061009.6694
        -0.000          -0.000
 -24851898.775 9 -17931051.83548  21648834.831    21648834.8044   21648839.9414
        -0.000          -0.000
 -23361204.422 9 -18192382.30848  21585768.251    21585767.8944   21585772.5154
        -0.000          -0.000
  -5331654.279 8  -4129394.08545  24003110.621    24003111.0924   24003116.6874
        -0.000          -0.000
 -17320263.903 9 -13477147.98646  23573709.807    23573709.3204   23573715.0074
        -0.000          -0.000
  -8550798.382 9  -6648174.47446  24310370.184    24310369.4314   24310376.9984
        -0.000          -0.000
 97  3  9  0 21  0.0000000  0  7 24  4  9  5 30  7 10                0.000090721
 -29572171.496 9 -23016744.92849  20408555.550    20408555.5014   20408560.6704
        -0.000          -0.000
 -29754094.537 9 -22899502.92248  21068521.985    21068522.3254   21068526.4824
        -0.000          -0.000
 -24824832.400 9 -17909961.16348  21653985.341    21653985.3284   21653990.5044
        -0.000          -0.000
 -23446364.769 9 -18258741.00548  21569562.777    21569562.4134   21569567.0074
        -0.000          -0.000
  -5445129.507 9  -4217816.29345  23981517.038    23981517.6104   23981523.1544
        -0.000          -0.000
 -17268958.491 9 -13437169.77846  23583472.998    23583472.4634   23583478.1824
        -0.000          -0.000
  -8660515.534 9  -6733668.30346  24289491.738    24289491.0454   24289498.2914
        -0.000          -0.000
 97  3  9  0 21 30.0000000  0  7 24  4  9  5 30  7 10                0.000081036
 -29608004.121 9 -23044666.43849  20401736.762    20401736.7324   20401741.9174
        -0.000          -0.000
 -29714180.247 9 -22868400.87848  21076117.493    21076117.7874   21076121.9684
        -0.000          -0.000
 -24797322.584 9 -17888524.95348  21659220.318    21659220.3044   21659225.4394
        -0.000          -0.000
 -23531286.785 9 -18324913.99048  21553402.630    21553402.2304   21553406.8614
        -0.000          -0.000
  -5558609.121 8  -4306241.92945  23959922.649    23959923.1404   23959928.6344
        -0.000          -0.000
 -17217664.150 9 -13397200.18346  23593233.984    23593233.4444   23593239.1024
        -0.000          -0.000
  -8770298.978 9  -6819213.80946  24268600.662    24268599.9184   24268606.6334
        -0.000          -0.000
 97  3  9  0 22  0.0000000  0  7 24  4  9  5 30  7 10                0.000071302
 -29643394.377 9 -23072243.23749  20395002.210    20395002.2144   20395007.4094
        -0.000          -0.000
 -29673893.407 9 -22837008.53448  21083783.798    21083784.1404   21083788.3074
        -0.000          -0.000
 -24769426.145 9 -17866787.48648  21664528.897    21664528.9084   21664533.9524
        -0.000          -0.000
 -23616007.459 9 -18390930.08548  21537280.852    21537280.4514   21537284.9954
        -0.000          -0.000
  -5672130.776 8  -4394700.28945  23938320.120    23938320.3454   23938326.2074
        -0.000          -0.000
 -17166431.236 9 -13357278.45746  23602983.162    23602982.6954   23602988.3654
        -0.000          -0.000
  -8880201.455 9  -6904852.03045  24247686.748    24247686.1964   24247692.2634
        -0.000          -0.000
 97  3  9  0 22 30.0000000  0  7 24  4  9  5 30  7 10                0.000061523
 -29678311.072 9 -23099451.03649  20388357.778    20388357.7444   20388362.9434
        -0.000          -0.000
 -29633210.703 9 -22805307.73148  21091525.545    21091525.8704   21091529.9754
        -0.000          -0.000
 -24741114.749 9 -17844726.67748  21669916.545    21669916.4894   21669921.4004
        -0.000          -0.000
 -23700522.944 9 -18456786.30248  21521198.158    21521197.7454   21521202.1884
        -0.000          -0.000
  -5785690.464 8  -4483188.31145  23916710.426    23916710.4154   23916716.4514
        -0.000          -0.000
 -17115251.284 9 -13317398.01146  23612722.358    23612721.9434   23612727.5464
        -0.000          -0.000
  -8990192.887 9  -6990559.56045  24226756.267    24226755.5464   24226761.0844
        -0.000          -0.000
 97  3  9  0 23  0.0000000  0  7 24  4  9  5 30  7 10                0.000051745
 -29712666.861 9 -23126221.76749  20381820.060    20381820.0604   20381825.2574
        -0.000          -0.000
 -29592048.060 9 -22773232.95048  21099358.622    21099358.9084   21099363.0564
        -0.000          -0.000
 -24712311.415 9 -17822282.54948  21675397.581    21675397.5944   21675402.4434
        -0.000          -0.000
 -23784782.857 9 -18522443.36648  21505163.986    21505163.5454   21505168.0174
        -0.000          -0.000
  -5899214.882 8  -4571648.84445  23895107.426    23895107.6724   23895113.4444
        -0.000          -0.000
 -17064041.495 9 -13277494.30846  23622467.551    23622466.9874   23622472.3784
        -0.000          -0.000
  -9100193.346 8  -7076274.12945  24205823.975    24205823.0384   24205828.2994
        -0.000          -0.000
 97  3  9  0 23 30.0000000  0  7 24  4  9  5 30  7 10                0.000041922
 -29746544.104 9 -23152619.60449  20375373.425    20375373.4034   20375378.5914
        -0.000          -0.000
 -29550496.334 9 -22740854.98148  21107265.594    21107265.9044   21107270.0284
        -0.000          -0.000
 -24683087.936 9 -17799511.02148  21680958.588    21680958.6054   21680963.4534
        -0.000          -0.000
 -23868878.162 9 -18587972.16048  21489161.080    21489160.6744   21489165.2074
        -0.000          -0.000
  -6012769.621 8  -4660133.01345  23873498.761    23873498.9604   23873504.4644
        -0.000          -0.000
 -17012863.225 9 -13237615.12546  23632206.407    23632205.9244   23632211.2874
        -0.000          -0.000
  -9210286.061 8  -7162060.60145  24184873.493    24184872.8214   24184878.3924
        -0.000          -0.000
 97  3  9  0 24  0.0000000  0  7 24  4  9  5 30  7 10                0.000032093
 -29779909.922 9 -23178618.92649  20369024.072    20369024.0484   20369029.2774
        -0.000          -0.000
 -29508536.665 9 -22708159.13448  21115250.264    21115250.5964   21115254.6724
        -0.000          -0.000
 -24653392.124 9 -17776371.44448  21686609.595    21686609.5634   21686614.3884
        -0.000          -0.000
 -23952784.304 9 -18653353.55148  21473194.270    21473193.9174   21473198.4124
        -0.000          -0.000
  -6126307.012 8  -4748603.64945  23851893.534    23851893.6974   23851899.0384
        -0.000          -0.000
 -16961668.002 9 -13197722.75845  23641948.383    23641947.9404   23641953.4264
        -0.000          -0.000
  -9320418.155 8  -7247877.75745  24163915.982    24163915.1514   24163921.2694
        -0.000          -0.000
 97  3  9  0 24 30.0000000  0  7 24  4  9  5 30  7 10                0.000022287
 -29812720.651 9 -23204185.72049  20362780.342    20362780.3214   20362785.5714
        -0.000          -0.000
 -29466147.183 9 -22675128.37648  21123316.713    21123317.0324   21123321.1004
        -0.000          -0.000
 -24623181.736 9 -17752830.89648  21692358.479    21692358.4434   21692363.2724
        -0.000          -0.000
 -24036456.492 9 -18718552.64848  21457272.016    21457271.6204   21457276.1394
        -0.000          -0.000
  -6239782.652 8  -4837026.14645  23830299.536    23830299.9174   23830305.2634
        -0.000          -0.000
 -16910412.613 9 -13157783.52745  23651701.861    23651701.4284   23651707.0364
        -0.000          -0.000
  -9430542.212 8  -7333688.64645  24142959.923    24142958.9684   24142965.6884
        -0.000          -0.000
 97  3  9  0 25  0.0000000  0  7 24  4  9  5 30  7 10                0.000012500
 -29845016.225 9 -23229351.09049  20356634.717    20356634.6854   20356639.9034
        -0.000          -0.000
 -29423359.565 9 -22641787.37748  21131458.945    21131459.2454   21131463.2994
        -0.000          -0.000
 -24592481.493 9 -17728908.65048  21698200.540    21698200.5084   21698205.3214
        -0.000          -0.000
 -24119903.403 9 -18783576.19448  21441392.556    21441392.1434   21441396.6894
        -0.000          -0.000
  -6353194.502 9  -4925398.95745  23808717.904    23808718.1084   23808723.7584
        -0.000          -0.000
 -16859105.360 9 -13117803.87945  23661465.360    23661464.9094   23661470.4944
        -0.000          -0.000
  -9540696.152 8  -7419522.81645  24121997.880    24121996.8694   24122004.3794
        -0.000          -0.000
 97  3  9  0 25 30.0000000  0  7 24  4  9  5 30  7 10                0.000002716
 -29876822.332 9 -23254135.05849  20350582.231    20350582.2254   20350587.4524
        -0.000          -0.000
 -29380200.798 9 -22608157.17248  21139671.791    21139672.0804   21139676.1234
        -0.000          -0.000
 -24561316.315 9 -17704624.11348  21704131.119    21704131.0734   21704135.8234
        -0.000          -0.000
 -24203121.373 9 -18848421.34848  21425556.643    21425556.2764   21425560.8164
        -0.000          -0.000
  -6466559.247 9  -5013735.05545  23787145.181    23787145.3224   23787151.0374
        -0.000          -0.000
 -16807779.597 9 -13077809.81446  23671232.548    23671231.9664   23671237.4644
        -0.000          -0.000
  -9650906.973 8  -7505401.32246  24101024.837    24101024.3674   24101032.1944
        -0.000          -0.000
 97  3  9  0 26  0.0000000  0  7 24  4  9  5 30  7 10               -0.000007060
 -29908105.104 9 -23278511.22649  20344629.378    20344629.3264   20344634.5194
        -0.000          -0.000
 -29336642.583 9 -22574215.70548  21147960.633    21147960.9114   21147964.9574
        -0.000          -0.000
 -24529682.900 9 -17679974.72348  21710150.737    21710150.7254   21710155.4284
        -0.000          -0.000
 -24286084.049 9 -18913067.57348  21409769.425    21409769.0354   21409773.5704
        -0.000          -0.000
  -6579865.353 9  -5102025.49345  23765583.537    23765583.9584   23765589.5504
        -0.000          -0.000
 -16756433.273 9 -13037799.71946  23681003.568    23681002.9634   23681008.3444
        -0.000          -0.000
  -9761140.704 9  -7591297.68945  24080048.687    24080047.9894   24080055.3464
        -0.000          -0.000
 97  3  9  0 26 29.9990000  0  7 24  4  9  5 30  7 10               -0.000016860
 -29938890.128 9 -23302499.54249  20338771.217    20338771.1524   20338776.3074
        -0.000          -0.000
 -29292711.755 9 -22539983.88748  21156320.382    21156320.6544   21156324.7154
        -0.000          -0.000
 -24497626.817 9 -17654995.97948  21716250.908    21716250.8824   21716255.4804
        -0.000          -0.000
 -24368812.600 9 -18977531.35448  21394026.646    21394026.2644   21394030.8384
        -0.000          -0.000
  -6693148.445 8  -5190297.98545  23744026.528    23744026.9434   23744032.3694
        -0.000          -0.000
 -16705102.292 9 -12997801.58846  23690771.428    23690771.0114   23690776.4024
        -0.000          -0.000
  -9871436.249 8  -7677242.21345  24059060.450    24059059.6594   24059066.7114
        -0.000          -0.000
 97  3  9  0 26 59.9990000  0  7 24  4  9  5 30  7 10               -0.000026677
 -29969159.981 9 -23326086.42249  20333011.039    20333011.0094   20333016.1194
        -0.000          -0.000
 -29248366.795 9 -22505429.37248  21164758.902    21164759.1824   21164763.2824
        -0.000          -0.000
 -24465133.674 9 -17629676.66148  21722434.123    21722434.1024   21722438.7434
        -0.000          -0.000
 -24451298.562 9 -19041806.10948  21378330.099    21378329.7404   21378334.3154
        -0.000          -0.000
  -6806402.214 9  -5278547.58345  23722474.985    23722475.3524   23722480.8814
        -0.000          -0.000
 -16653759.654 9 -12957794.35346  23700541.651    23700541.1864   23700546.5614
        -0.000          -0.000
  -9981779.932 9  -7763224.27445  24038062.480    24038061.7974   24038068.8734
        -0.000          -0.000
 97  3  9  0 27 29.9990000  0  7 24  4  9  5 30  7 10               -0.000036451
 -29998795.063 9 -23349178.67549  20327371.687    20327371.6244   20327376.7334
        -0.000          -0.000
 -29203491.902 9 -22470461.92148  21173298.355    21173298.6504   21173302.7554
        -0.000          -0.000
 -24432106.260 9 -17603941.03248  21728719.098    21728719.0714   21728723.7674
        -0.000          -0.000
 -24533433.013 9 -19105806.96448  21362700.409    21362700.0214   21362704.6504
        -0.000          -0.000
  -6919528.523 9  -5366697.90245  23700947.860    23700948.2054   23700953.6384
        -0.000          -0.000
 -16602316.691 9 -12917708.93246  23710331.068    23710330.5994   23710335.9194
        -0.000          -0.000
 -10092040.195 9  -7849141.32045  24017080.752    24017080.0714   24017086.6264
        -0.000          -0.000
 97  3  9  0 27 59.9990000  0  7 24  4  9  5 30  7 10               -0.000046235
 -30027880.685 9 -23371842.78649  20321836.836    20321836.8254   20321841.9374
        -0.000          -0.000
 -29158172.562 9 -22435148.14848  21181922.354    21181922.6104   21181926.7164
        -0.000          -0.000
 -24398627.321 9 -17577853.55948  21735089.948    21735089.8904   21735094.7044
        -0.000          -0.000
 -24615310.179 9 -19169607.34048  21347119.677    21347119.3074   21347123.9424
        -0.000          -0.000
  -7032616.240 9  -5454818.12945  23679428.191    23679428.4334   23679433.6924
        -0.000          -0.000
 -16550851.204 9 -12877605.97646  23720124.746    23720124.2504   23720129.5224
        -0.000          -0.000
 -10202293.565 9  -7935052.96245  23996100.446    23996099.7864   23996105.9924
        -0.000          -0.000
 97  3  9  0 28 29.9990000  0  7 24  4  9  5 30  7 10               -0.000056033
 -30056455.734 9 -23394109.04549  20316399.160    20316399.1304   20316404.2314
        -0.000          -0.000
 -29112426.163 9 -22399501.60448  21190627.586    21190627.8844   21190631.9494
        -0.000          -0.000
 -24364708.416 9 -17551423.24548  21741544.425    21741544.3924   21741549.3724
        -0.000          -0.000
 -24696953.049 9 -19233225.14148  21331583.537    21331583.1324   21331587.7784
        -0.000          -0.000
  -7145672.796 9  -5542914.06645  23657914.234    23657914.2974   23657919.6794
        -0.000          -0.000
 -16499381.292 9 -12837499.56346  23729919.241    23729918.6904   23729923.8894
        -0.000          -0.000
 -10312557.576 9  -8020972.90045  23975117.860    23975117.2524   23975123.5394
        -0.000          -0.000
 97  3  9  0 28 59.9990000  0  7 24  4  9  5 30  7 10               -0.000065867
 -30084578.921 9 -23416023.20349  20311047.440    20311047.4054   20311052.5224
        -0.000          -0.000
 -29066302.731 9 -22363561.25348  21199404.613    21199404.9074   21199408.9614
        -0.000          -0.000
 -24330388.891 9 -17524680.76548  21748075.164    21748075.1614   21748080.2454
        -0.000          -0.000
 -24778399.899 9 -19296690.19948  21316084.621    21316084.2624   21316088.9514
        -0.000          -0.000
  -7258737.863 9  -5631016.66845  23636398.559    23636398.6724   23636403.9424
        -0.000          -0.000
 -16447964.233 9 -12797434.37345  23739703.493    23739702.8554   23739708.2634
        -0.000          -0.000
 -10422852.034 9  -8106916.56245  23954129.501    23954128.8124   23954135.2574
        -0.000          -0.000
 97  3  9  0 29 29.9990000  0  7 24  4  9  5 30  7 10               -0.000075675
 -30112167.516 9 -23437520.80249  20305797.456    20305797.4294   20305802.5324
        -0.000          -0.000
 -29019739.290 9 -22327278.06348  21208265.317    21208265.5934   21208269.7844
        -0.000          -0.000
 -24295571.238 9 -17497550.12948  21754700.751    21754700.7344   21754705.8554
        -0.000          -0.000
 -24859548.264 9 -19359922.67448  21300642.539    21300642.2024   21300646.8794
        -0.000          -0.000
  -7371719.708 9  -5719054.41745  23614898.845    23614898.9264   23614903.9504
        -0.000          -0.000
 -16396517.155 8 -12757345.78445  23749493.181    23749492.5394   23749498.3644
        -0.000          -0.000
 -10533083.598 9  -8192811.20645  23933152.943    23933152.1954   23933158.9864
        -0.000          -0.000
 97  3  9  0 29 59.9990000  0  7 24  4  9  5 30  7 10               -0.000085451
 -30139222.909 9 -23458602.91049  20300648.980    20300648.9534   20300654.0324
        -0.000          -0.000
 -28972761.120 9 -22290671.69748  21217205.006    21217205.3044   21217209.4554
        -0.000          -0.000
 -24260264.274 9 -17470038.22648  21761419.490    21761419.4634   21761424.6034
        -0.000          -0.000
 -24940393.729 9 -19422919.13048  21285258.200    21285257.8334   21285262.4524
        -0.000          -0.000
  -7484612.091 9  -5807022.42945  23593415.980    23593416.2084   23593421.1034
        -0.000          -0.000
 -16345018.353 9 -12717216.87345  23759292.870    23759292.3854   23759298.1824
        -0.000          -0.000
 -10643260.118 8  -8278662.97445  23912186.665    23912185.9494   23912193.0914
        -0.000          -0.000
 97  3  9  0 30 29.9990000  0  7 24  4  9  5 30  7 10               -0.000095182
 -30165741.952 9 -23479267.09149  20295602.564    20295602.5174   20295607.5914
        -0.000          -0.000
 -28925376.770 9 -22253748.82448  21226221.975    21226222.2624   21226226.3924
        -0.000          -0.000
 -24224469.105 9 -17442145.91248  21768231.119    21768231.0374   21768236.1134
        -0.000          -0.000
 -25020925.703 9 -19485671.30348  21269933.504    21269933.0824   21269937.6994
        -0.000          -0.000
  -7597402.589 9  -5894911.06045  23571952.825    23571952.9864   23571957.6224
        -0.000          -0.000
 -16293448.724 9 -12677032.76345  23769106.368    23769105.8104   23769111.4404
        -0.000          -0.000
 -10753366.901 8  -8364460.39045  23891233.633    23891233.1334   23891240.4224
        -0.000          -0.000
 97  3  9  0 30 59.9990000  0  7 24  4  9  5 30  7 10               -0.000104887
 -30191731.401 9 -23499518.58549  20290656.931    20290656.9104   20290661.9534
        -0.000          -0.000
 -28877619.206 9 -22216535.13548  21235309.873    21235310.1714   21235314.3154
        -0.000          -0.000
 -24188211.128 9 -17413892.97048  21775130.780    21775130.7114   21775135.6024
        -0.000          -0.000
 -25101153.495 9 -19548186.44748  21254666.623    21254666.2414   21254670.8634
        -0.000          -0.000
  -7710116.117 9  -5982739.68945  23550504.185    23550504.3354   23550508.9674
        -0.000          -0.000
 -16241816.465 9 -12636799.83745  23778931.867    23778931.2694   23778936.6634
        -0.000          -0.000
 -10863437.595 8  -8450229.68045  23870288.022    23870287.1944   23870294.8004
        -0.000          -0.000
 97  3  9  0 31 29.9990000  0  7 24  4  9  5 30  7 10               -0.000114569
 -30217158.119 9 -23519331.59749  20285818.397    20285818.3504   20285823.3974
        -0.000          -0.000
 -28829464.343 9 -22179011.87648  21244473.405    21244473.7174   21244477.9274
        -0.000          -0.000
 -24151486.115 9 -17385276.10448  21782119.298    21782119.2434   21782123.9954
        -0.000          -0.000
 -25181055.315 9 -19610447.60048  21239461.794    21239461.4574   21239465.9974
        -0.000          -0.000
  -7822736.786 8  -6070496.01345  23529072.979    23529073.2924   23529077.9394
        -0.000          -0.000
 -16190093.288 9 -12596496.06845  23788774.435    23788773.9444   23788779.1934
        -0.000          -0.000
 -10973475.047 9  -8535973.10746  23849348.395    23849347.7104   23849355.4654
        -0.000          -0.000
 97  3  9  0 31 59.9990000  0  7 24  4  9  5 30  7 10               -0.000124254
 -30242057.122 9 -23538733.40049  20281080.304    20281080.2804   20281085.3144
        -0.000          -0.000
 -28780937.174 9 -22141198.50148  21253707.823    21253708.1144   21253712.3324
        -0.000          -0.000
 -24114349.444 9 -17356338.46148  21789186.169    21789186.1004   21789190.7574
        -0.000          -0.000
 -25260685.767 9 -19672497.29548  21224308.635    21224308.2974   21224312.7864
        -0.000          -0.000
  -7935293.931 8  -6158202.81845  23507653.626    23507654.1604   23507658.8594
        -0.000          -0.000
 -16138314.890 9 -12556149.28045  23798627.432    23798626.9534   23798632.2464
        -0.000          -0.000
 -11083527.129 9  -8621727.92346  23828406.256    23828405.6484   23828413.0654
        -0.000          -0.000
 97  3  9  0 32 29.9990000  0  7 24  4  9  5 30  7 10               -0.000133932
 -30266409.394 9 -23557709.18149  20276446.248    20276446.2084   20276451.2544
        -0.000          -0.000
 -28731993.310 9 -22103060.42948  21263021.511    21263021.8064   21263026.0204
        -0.000          -0.000
 -24076756.782 9 -17327045.49648  21796339.856    21796339.7484   21796344.4094
        -0.000          -0.000
 -25340010.607 9 -19734308.85048  21209213.566    21209213.2574   21209217.7414
        -0.000          -0.000
  -8047757.251 8  -6245836.51545  23486252.321    23486252.7864   23486257.8034
        -0.000          -0.000
 -16086487.764 9 -12515764.53846  23808489.832    23808489.3764   23808494.9414
        -0.000          -0.000
 -11193561.609 9  -8707469.01146  23807467.725    23807467.1434   23807473.9804
        -0.000          -0.000
 97  3  9  0 32 59.9990000  0  7 24  4  9  5 30  7 10               -0.000143614
 -30290221.427 9 -23576263.99849  20271914.928    20271914.8754   20271919.9434
        -0.000          -0.000
 -28682630.501 9 -22064595.90948  21272414.896    21272415.2134   21272419.4554
        -0.000          -0.000
 -24038713.938 9 -17297401.73648  21803579.084    21803579.0464   21803583.7754
        -0.000          -0.000
 -25419022.332 9 -19795876.42048  21194178.155    21194177.8264   21194182.2984
        -0.000          -0.000
  -8160134.619 8  -6333403.26245  23464867.512    23464867.8794   23464872.9704
        -0.000          -0.000
 -16034634.293 9 -12475359.28246  23818357.294    23818356.8544   23818362.6244
        -0.000          -0.000
 -11303585.073 9  -8793201.52046  23786531.317    23786530.5474   23786537.0834
        -0.000          -0.000
 97  3  9  0 33 29.9990000  0  7 24  4  9  5 30  7 10               -0.000153344
 -30313570.421 9 -23594458.01049  20267471.729    20267471.7014   20267476.7984
        -0.000          -0.000
 -28632928.780 9 -22025867.29748  21281872.917    21281873.1764   21281877.3754
        -0.000          -0.000
 -24000299.810 9 -17267468.65948  21810889.088    21810889.0654   21810893.8454
        -0.000          -0.000
 -25497807.236 9 -19857267.24448  21179185.930    21179185.5754   21179190.0304
        -0.000          -0.000
  -8272486.244 8  -6420949.94245  23443488.255    23443488.4714   23443493.4314
        -0.000          -0.000
 -15982843.716 8 -12435003.00945  23828212.830    23828212.4024   23828218.2844
        -0.000          -0.000
 -11413661.349 9  -8878975.18646  23765584.367    23765583.6794   23765590.2494
        -0.000          -0.000
 97  3  9  0 33 59.9990000  0  7 24  4  9  5 30  7 10               -0.000163077
 -30336407.005 9 -23612252.73949  20263126.051    20263126.0204   20263131.1274
        -0.000          -0.000
 -28582846.883 9 -21986842.44448  21291403.170    21291403.4684   21291407.6084
        -0.000          -0.000
 -23961453.110 9 -17237198.51748  21818281.493    21818281.4384   21818286.2134
        -0.000          -0.000
 -25576325.179 9 -19918450.04748  21164244.445    21164244.0794   21164248.5544
        -0.000          -0.000
  -8384742.253 8  -6508422.09645  23422126.537    23422126.8494   23422131.7794
        -0.000          -0.000
 -15931066.167 8 -12394656.89145  23838065.716    23838065.3314   23838071.1794
        -0.000          -0.000
 -11523720.586 9  -8964735.59846  23744640.960    23744640.2174   23744646.5964
        -0.000          -0.000
 97  3  9  0 34 29.9990000  0  7 24  4  9  5 30  7 10               -0.000172824
 -30358758.644 9 -23629669.59049  20258872.703    20258872.6644   20258877.7624
        -0.000          -0.000
 -28532420.079 9 -21947548.83548  21300999.015    21300999.2954   21301003.4794
        -0.000          -0.000
 -23922195.723 9 -17206608.36248  21825751.938    21825751.8764   21825756.6674
        -0.000          -0.000
 -25654585.234 9 -19979431.89648  21149352.038    21149351.7084   21149356.2094
        -0.000          -0.000
  -8496939.698 8  -6595848.60945  23400776.022    23400776.3814   23400780.7954
        -0.000          -0.000
 -15879318.241 9 -12354333.86045  23847912.811    23847912.4344   23847918.3124
        -0.000          -0.000
 -11633764.906 9  -9050484.39346  23723700.368    23723699.5354   23723705.7864
        -0.000          -0.000
 97  3  9  0 34 59.9990000  0  7 24  4  9  5 30  7 10               -0.000182582
 -30380622.459 9 -23646706.31749  20254712.148    20254712.1054   20254717.1894
        -0.000          -0.000
 -28481667.822 9 -21908001.62848  21310656.857    21310657.1494   21310661.3084
        -0.000          -0.000
 -23882555.412 9 -17175719.82648  21833295.226    21833295.1744   21833299.9824
        -0.000          -0.000
 -25732607.537 9 -20040228.48448  21134504.845    21134504.5074   21134509.0254
        -0.000          -0.000
  -8609077.765 8  -6683228.90445  23379436.838    23379437.0914   23379441.5564
        -0.000          -0.000
 -15827580.003 9 -12314018.33445  23857758.378    23857757.9484   23857763.5744
        -0.000          -0.000
 -11743795.643 9  -9136222.60646  23702762.105    23702761.3104   23702767.3704
        -0.000          -0.000
 97  3  9  0 35 29.9990000  0  7 24  4  9  5 30  7 10               -0.000192322
 -30401950.365 9 -23663325.44649  20250653.561    20250653.5344   20250658.5854
        -0.000          -0.000
 -28430551.815 9 -21868170.96548  21320383.938    21320384.2154   21320388.2564
        -0.000          -0.000
 -23842493.571 9 -17144502.82148  21840918.762    21840918.6964   21840923.5214
        -0.000          -0.000
 -25810363.345 9 -20100817.40748  21119708.368    21119708.0214   21119712.5514
        -0.000          -0.000
  -8721109.072 8  -6770526.02445  23358118.365    23358118.5024   23358122.5654
        -0.000          -0.000
 -15775804.815 9 -12273674.02845  23867611.001    23867610.5874   23867616.1704
        -0.000          -0.000
 -11853768.361 9  -9221915.60546  23681834.761    23681834.0984   23681840.0884
        -0.000          -0.000
 97  3  9  0 35 59.9990000  0  7 24  4  9  5 30  7 10               -0.000202044
 -30422746.766 9 -23679530.41649  20246696.136    20246696.1244   20246701.1254
        -0.000          -0.000
 -28379066.236 9 -21828052.34348  21330181.228    21330181.5134   21330185.6324
        -0.000          -0.000
 -23802004.897 9 -17112953.21648  21848623.479    21848623.3934   21848628.3034
        -0.000          -0.000
 -25887827.896 9 -20161179.37548  21104967.282    21104966.9864   21104971.5714
        -0.000          -0.000
  -8833046.596 8  -6857750.00145  23336817.409    23336817.4484   23336821.7204
        -0.000          -0.000
 -15723976.614 8 -12233288.45245  23877473.600    23877473.2794   23877478.7134
        -0.000          -0.000
 -11963666.047 9  -9307550.10546  23660921.898    23660921.1164   23660927.2904
        -0.000          -0.000
 97  3  9  0 36 29.9990000  0  7 24  4  9  5 30  7 10               -0.000211760
 -30443027.019 9 -23695333.19049  20242836.928    20242836.8864   20242841.8834
        -0.000          -0.000
 -28327213.350 9 -21787647.49948  21340048.477    21340048.8014   21340052.9124
        -0.000          -0.000
 -23761101.775 9 -17081080.66648  21856406.981    21856406.9454   21856411.9164
        -0.000          -0.000
 -25964986.806 9 -20221303.18048  21090284.440    21090284.1104   21090288.7394
        -0.000          -0.000
  -8944912.102 8  -6944917.86245  23315530.062    23315529.7854   23315534.6164
        -0.000          -0.000
 -15672109.315 8 -12192872.42745  23887343.629    23887343.3364   23887349.0924
        -0.000          -0.000
 -12073493.887 9  -9393130.15846  23640022.318    23640021.3944   23640027.7614
        -0.000          -0.000
 97  3  9  0 36 59.9990000  0  7 24  4  9  5 30  7 10               -0.000221456
 -30462766.312 9 -23710714.44249  20239080.638    20239080.6064   20239085.5704
        -0.000          -0.000
 -28274959.607 9 -21746930.29148  21349992.129    21349992.3984   21349996.4634
        -0.000          -0.000
 -23719751.256 9 -17048859.50148  21864275.769    21864275.7474   21864280.7514
        -0.000          -0.000
 -26041818.781 9 -20281172.24048  21075663.863    21075663.4924   21075668.0684
        -0.000          -0.000
  -9056668.028 8  -7032000.36145  23294263.289    23294263.2084   23294268.0544
        -0.000          -0.000
 -15620184.135 8 -12152411.29545  23897224.748    23897224.2674   23897230.1474
        -0.000          -0.000
 -12183237.998 9  -9478644.98446  23619138.348    23619137.5824   23619144.1484
        -0.000          -0.000
 97  3  9  0 37 29.9990000  0  7 24  4  9  5 30  7 10               -0.000231128
 -30481942.729 9 -23725657.08749  20235431.435    20235431.3934   20235436.3584
        -0.000          -0.000
 -28222274.344 9 -21705876.84848  21360017.701    21360018.0274   21360022.1194
        -0.000          -0.000
 -23677920.297 9 -17016263.95548  21872235.970    21872235.9764   21872241.0464
        -0.000          -0.000
 -26118283.188 9 -20340754.87448  21061113.137    21061112.7754   21061117.3544
        -0.000          -0.000
  -9168306.399 9  -7118991.28145  23273019.242    23273019.2644   23273023.8464
        -0.000          -0.000
 -15568181.796 9 -12111889.99245  23907120.240    23907119.8164   23907125.7904
        -0.000          -0.000
 -12292878.761 9  -9564079.28146  23598274.064    23598273.3554   23598280.0624
        -0.000          -0.000
 97  3  9  0 37 59.9990000  0  7 24  4  9  5 30  7 10               -0.000240824
 -30500633.354 9 -23740221.19949  20231874.710    20231874.6654   20231879.6804
        -0.000          -0.000
 -28169235.545 9 -21664547.91348  21370110.745    21370111.0704   21370115.1734
        -0.000          -0.000
 -23635687.072 9 -16983354.96448  21880272.711    21880272.7134   21880277.8434
        -0.000          -0.000
 -26194446.665 9 -20400103.02348  21046619.640    21046619.3194   21046623.8974
        -0.000          -0.000
  -9279904.620 9  -7205950.92145  23251782.890    23251782.8864   23251787.2654
        -0.000          -0.000
 -15516178.505 9 -12071367.93545  23917016.402    23917015.9144   23917021.5544
        -0.000          -0.000
 -12402489.974 9  -9649490.55246  23577415.634    23577414.9754   23577421.5544
        -0.000          -0.000
 97  3  9  0 38 29.9990000  0  7 24  4  9  5 30  7 10               -0.000250527
 -30518796.630 9 -23754374.39349  20228418.315    20228418.2584   20228423.3254
        -0.000          -0.000
 -28115811.933 9 -21622919.13148  21380276.938    21380277.2524   21380281.3894
        -0.000          -0.000
 -23593029.955 9 -16950115.67148  21888390.091    21888390.0834   21888395.2494
        -0.000          -0.000
 -26270297.049 9 -20459207.20649  21032185.855    21032185.5114   21032190.0394
        -0.000          -0.000
  -9391411.829 9  -7292839.59645  23230563.532    23230563.6164   23230568.1914
        -0.000          -0.000
 -15464147.943 9 -12030824.64545  23926917.670    23926916.9604   23926922.5514
        -0.000          -0.000
 -12512046.509 9  -9734859.20946  23556567.674    23556566.8494   23556573.4844
        -0.000          -0.000
 97  3  9  0 38 59.9990000  0  7 24  4  9  5 30  7 10               -0.000260238
 -30536434.867 9 -23768118.47149  20225061.791    20225061.7914   20225066.8804
        -0.000          -0.000
 -28062031.781 9 -21581012.52948  21390510.929    21390511.2374   21390515.4624
        -0.000          -0.000
 -23549963.718 9 -16916557.58048  21896585.286    21896585.2604   21896590.4884
        -0.000          -0.000
 -26345853.256 9 -20518082.16149  21017807.970    21017807.5854   21017812.1654
        -0.000          -0.000
  -9502827.913 9  -7379657.27345  23209361.700    23209361.8434   23209366.4804
        -0.000          -0.000
 -15412087.189 9 -11990257.84945  23936824.619    23936823.9124   23936829.4204
        -0.000          -0.000
 -12621562.497 9  -9820196.28946  23535727.275    23535726.5554   23535733.1424
        -0.000          -0.000
 97  3  9  0 39 29.9990000  0  7 24  4  9  5 30  7 10               -0.000269995
 -30553605.374 9 -23781498.07549  20221794.413    20221794.3534   20221799.4734
        -0.000          -0.000
 -28007968.077 9 -21538884.96648  21400798.893    21400799.2154   21400803.5034
        -0.000          -0.000
 -23506557.653 9 -16882734.68348  21904845.090    21904845.1324   21904850.4304
        -0.000          -0.000
 -26421171.986 9 -20576772.06949  21003475.269    21003474.9174   21003479.5054
        -0.000          -0.000
  -9614212.461 9  -7466450.37946  23188165.874    23188166.0474   23188170.7864
        -0.000          -0.000
 -15360062.842 8 -11949719.48645  23946724.537    23946723.8494   23946729.5134
        -0.000          -0.000
 -12731088.820 9  -9905541.42446  23514885.077    23514884.4344   23514890.9914
        -0.000          -0.000
 97  3  9  0 39 59.9990000  0  7 24  4  9  5 30  7 10               -0.000279757
 -30570270.043 9 -23794483.52449  20218623.182    20218623.1784   20218628.3054
        -0.000          -0.000
 -27953568.771 9 -21496495.90248  21411150.764    21411151.0394   21411155.4134
        -0.000          -0.000
 -23462771.811 9 -16848615.86548  21913177.362    21913177.3634   21913182.5954
        -0.000          -0.000
 -26496199.552 9 -20635235.09949  20989198.029    20989197.6414   20989202.2104
        -0.000          -0.000
  -9725495.466 9  -7553164.35946  23166989.233    23166989.4984   23166994.1664
        -0.000          -0.000
 -15308026.574 9 -11909171.73845  23956626.664    23956625.9834   23956631.6944
        -0.000          -0.000
 -12840560.048 9  -9990843.64346  23494053.653    23494052.9254   23494059.6154
        -0.000          -0.000
 97  3  9  0 40 29.9990000  0  7 24  4  9  5 30  7 10               -0.000289502
 -30586408.345 9 -23807058.80849  20215552.217    20215552.2044   20215557.2754
        -0.000          -0.000
 -27898799.276 9 -21453818.38548  21421573.029    21421573.3044   21421577.7154
        -0.000          -0.000
 -23418572.330 9 -16814174.73048  21921588.346    21921588.3204   21921593.4394
        -0.000          -0.000
 -26570896.795 9 -20693440.73149  20974983.600    20974983.2014   20974987.7694
        -0.000          -0.000
  -9836645.123 9  -7639774.43346  23145838.062    23145838.2994   23145843.0424
        -0.000          -0.000
 -15255947.828 8 -11868590.93145  23966536.828    23966536.2024   23966542.0424
        -0.000          -0.000
 -12949945.443 9 -10076078.96246  23473238.165    23473237.4864   23473244.3014
        -0.000          -0.000
 97  3  9  0 40 59.9990000  0  7 24  4  9  5 30  7 10               -0.000299229
 -30602022.543 9 -23819225.70349  20212580.959    20212580.9214   20212585.9664
        -0.000          -0.000
 -27843649.721 9 -21410844.70848  21432067.601    21432067.8984   21432072.3094
        -0.000          -0.000
 -23373949.343 9 -16779403.60048  21930079.909    21930079.8714   21930084.9604
        -0.000          -0.000
 -26645236.742 9 -20751367.95349  20960837.129    20960836.7554   20960841.3484
        -0.000          -0.000
  -9947670.476 9  -7726287.65146  23124710.658    23124710.8664   23124715.6464
        -0.000          -0.000
 -15203816.542 8 -11827969.17245  23976457.044    23976456.5044   23976462.3804
        -0.000          -0.000
 -13059229.285 9 -10161235.19446  23452442.046    23452441.4434   23452448.2644
        -0.000          -0.000
 97  3  9  0 41 29.9990000  0  7 24  4  9  5 30  7 10               -0.000308950
 -30617133.430 9 -23831000.40849  20209705.450    20209705.4324   20209710.4264
        -0.000          -0.000
 -27788118.280 9 -21367573.46448  21442634.853    21442635.1534   21442639.5574
        -0.000          -0.000
 -23328924.933 9 -16744319.66148  21938647.921    21938647.8304   21938652.8904
        -0.000          -0.000
 -26719226.534 9 -20809022.32849  20946757.354    20946757.0024   20946761.5804
        -0.000          -0.000
 -10058577.319 9  -7812708.52346  23103605.563    23103605.9264   23103610.7214
        -0.000          -0.000
 -15151666.887 8 -11787333.10245  23986380.898    23986380.3744   23986386.1224
        -0.000          -0.000
 -13168410.442 9 -10246311.38546  23431665.463    23431664.9464   23431671.7804
        -0.000          -0.000
 97  3  9  0 41 59.9990000  0  7 24  4  9  5 30  7 10               -0.000318662
 -30631740.692 9 -23842382.67049  20206925.769    20206925.7564   20206930.6924
        -0.000          -0.000
 -27732209.685 9 -21324008.33348  21453273.865    21453274.1474   21453278.5744
        -0.000          -0.000
 -23283509.792 9 -16708931.24948  21947290.070    21947289.9984   21947295.1434
        -0.000          -0.000
 -26792867.361 9 -20866404.78049  20932743.949    20932743.5834   20932748.1374
        -0.000          -0.000
 -10169362.938 9  -7899034.93046  23082523.785    23082524.1714   23082528.8584
        -0.000          -0.000
 -15099493.675 9 -11746678.67845  23996309.259    23996308.7914   23996314.2184
        -0.000          -0.000
 -13277483.714 9 -10331303.50446  23410909.633    23410909.0654   23410915.7244
        -0.000          -0.000
 97  3  9  0 42 29.9990000  0  7 24  4  9  5 30  7 10               -0.000328440
 -30645938.608 9 -23853445.96549  20204224.003    20204223.9674   20204228.8604
        -0.000          -0.000
 -27676057.808 9 -21280253.62848  21463959.219    21463959.5304   21463963.8884
        -0.000          -0.000
 -23237807.922 9 -16673319.41148  21955986.732    21955986.6774   21955991.8944
        -0.000          -0.000
 -26866287.988 9 -20923615.64349  20918772.453    20918772.0764   20918776.6324
        -0.000          -0.000
 -10280142.564 9  -7985356.65746  23061442.917    23061443.4054   23061448.0794
        -0.000          -0.000
 -15047399.979 8 -11706086.20645  24006222.418    24006221.8594   24006227.3974
        -0.000          -0.000
 -13386566.272 9 -10416302.85246  23390152.195    23390151.4064   23390157.8924
        -0.000          -0.000
 97  3  9  0 42 59.9990000  0  7 24  4  9  5 30  7 10               -0.000338237
 -30659654.815 9 -23864133.90449  20201613.890    20201613.8544   20201618.7494
        -0.000          -0.000
 -27619612.769 9 -21236270.48348  21474700.407    21474700.7044   21474704.9534
        -0.000          -0.000
 -23191758.017 9 -16637436.36648  21964749.632    21964749.5814   21964754.9374
        -0.000          -0.000
 -26939432.674 9 -20980611.49049  20904853.494    20904853.1214   20904857.6954
        -0.000          -0.000
 -10390836.925 9  -8071611.96946  23040378.547    23040378.9874   23040383.5204
        -0.000          -0.000
 -14995321.125 8 -11665505.34245  24016132.495    24016132.0084   24016137.9004
        -0.000          -0.000
 -13495580.266 9 -10501248.76646  23369407.466    23369406.6564   23369413.0764
        -0.000          -0.000
 97  3  9  0 43 29.9990000  0  7 24  4  9  5 30  7 10               -0.000348005
 -30672819.886 9 -23874392.38949  20199108.632    20199108.5684   20199113.4694
        -0.000          -0.000
 -27562821.839 9 -21192017.81248  21485507.341    21485507.6434   21485511.8894
        -0.000          -0.000
 -23145282.887 9 -16601222.00748  21973593.526    21973593.5084   21973598.9144
        -0.000          -0.000
 -27012235.473 9 -21037340.93549  20890999.597    20890999.2324   20891003.8144
        -0.000          -0.000
 -10501367.434 9  -8157739.62046  23019345.507    23019345.8394   23019350.1024
        -0.000          -0.000
 -14943192.399 8 -11624885.57845  24026052.123    24026051.6014   24026057.7784
        -0.000          -0.000
 -13604459.836 9 -10586089.95746  23348688.197    23348687.5404   23348693.7934
        -0.000          -0.000
 97  3  9  0 43 59.9990000  0  7 24  4  9  5 30  7 10               -0.000357728
 -30685408.922 9 -23884202.01949  20196712.983    20196712.9374   20196717.8624
        -0.000          -0.000
 -27505674.092 9 -21147487.10648  21496382.152    21496382.5144   21496386.6964
        -0.000          -0.000
 -23098348.549 9 -16564649.81048  21982524.939    21982524.8654   21982530.2004
        -0.000          -0.000
 -27084674.783 9 -21093787.13949  20877214.890    20877214.4954   20877219.0434
        -0.000          -0.000
 -10611717.761 9  -8243726.83846  22998346.577    22998346.8964   22998351.1934
        -0.000          -0.000
 -14890967.307 8 -11584190.68045  24035990.128    24035989.6604   24035995.7924
        -0.000          -0.000
 -13713193.488 9 -10670817.41046  23327996.850    23327996.1054   23328002.5404
        -0.000          -0.000
 97  3  9  0 44 29.9990000  0  7 24  4  9  5 30  7 10               -0.000367423
 -30697465.979 9 -23893597.12049  20194418.586    20194418.5354   20194423.5344
        -0.000          -0.000
 -27448206.798 9 -21102707.39048  21507317.982    21507318.2934   21507322.2934
        -0.000          -0.000
 -23050983.446 9 -16527741.95748  21991538.227    21991538.1854   21991543.4654
        -0.000          -0.000
 -27156772.054 9 -21149966.82649  20863495.220    20863494.8434   20863499.3254
        -0.000          -0.000
 -10721919.599 9  -8329598.33646  22977375.727    22977375.9744   22977380.5744
        -0.000          -0.000
 -14838675.932 9 -11543444.16145  24045940.990    24045940.5614   24045946.5144
        -0.000          -0.000
 -13821815.886 9 -10755458.19146  23307326.584    23307326.0044   23307332.5764
        -0.000          -0.000
 97  3  9  0 44 59.9990000  0  7 24  4  9  5 30  7 10               -0.000377121
 -30709058.544 9 -23902630.28149  20192212.554    20192212.4924   20192217.5434
        -0.000          -0.000
 -27390456.032 9 -21057706.79448  21518307.591    21518307.8964   21518311.9224
        -0.000          -0.000
 -23003243.062 9 -16490541.68048  22000623.063    22000622.9854   22000628.1204
        -0.000          -0.000
 -27228555.001 9 -21205901.58849  20849835.479    20849835.0794   20849839.5294
        -0.000          -0.000
 -10832019.732 9  -8415390.59846  22956424.289    22956424.6584   22956429.3054
        -0.000          -0.000
 -14786374.639 9 -11502689.88245  24055893.787    24055893.2814   24055898.9174
        -0.000          -0.000
 -13930373.033 9 -10840048.12046  23286668.961    23286668.3454   23286674.9164
        -0.000          -0.000
 97  3  9  0 45 29.9990000  0  7 24  4  9  5 30  7 10               -0.000386834
 -30720184.555 9 -23911299.89349  20190095.335    20190095.2984   20190100.3704
        -0.000          -0.000
 -27332417.079 9 -21012481.64448  21529352.024    21529352.3694   21529356.3624
        -0.000          -0.000
 -22955137.843 9 -16453057.11248  22009777.170    22009777.0294   22009782.2194
        -0.000          -0.000
 -27300019.988 9 -21261588.58249  20836236.093    20836235.6844   20836240.1914
        -0.000          -0.000
 -10942031.600 9  -8501114.11946  22935489.753    22935490.1604   22935494.6284
        -0.000          -0.000
 -14734064.247 8 -11461928.56445  24065848.081    24065847.5714   24065853.1024
        -0.000          -0.000
 -14038872.721 9 -10924593.28646  23266022.306    23266021.6394   23266028.1194
        -0.000          -0.000
 97  3  9  0 45 59.9990000  0  7 24  4  9  5 30  7 10               -0.000396544
 -30730810.479 9 -23919579.83049  20188073.272    20188073.2084   20188078.3234
        -0.000          -0.000
 -27274053.409 9 -20967003.45548  21540458.347    21540458.6214   21540462.6364
        -0.000          -0.000
 -22906656.641 9 -16415279.55848  22019002.604    22019002.6224   22019007.9824
        -0.000          -0.000
 -27371140.771 9 -21317007.37449  20822702.214    20822701.8434   20822706.2964
        -0.000          -0.000
 -11051917.508 9  -8586739.45346  22914579.081    22914579.5374   22914583.9974
        -0.000          -0.000
 -14681709.009 8 -11421132.32845  24075810.706    24075810.1044   24075815.9884
        -0.000          -0.000
 -14147277.140 9 -11009064.20146  23245393.464    23245392.7704   23245399.3964
        -0.000          -0.000
 97  3  9  0 46 29.9990000  0  7 24  4  9  5 30  7 10               -0.000406269
 -30740967.944 9 -23927494.72449  20186140.362    20186140.3264   20186145.3984
        -0.000          -0.000
 -27215386.712 9 -20921289.15248  21551622.178    21551622.4624   21551626.6734
        -0.000          -0.000
 -22857833.296 9 -16377235.40548  22028293.371    22028293.3304   22028298.8084
        -0.000          -0.000
 -27441932.593 9 -21372169.82749  20809231.055    20809230.6494   20809235.0294
        -0.000          -0.000
 -11161703.150 9  -8672286.65546  22893687.483    22893687.9304   22893692.4074
        -0.000          -0.000
 -14629348.239 8 -11380331.75545  24085774.285    24085773.7674   24085780.0314
        -0.000          -0.000
 -14255599.403 9 -11093471.11746  23224780.266    23224779.5904   23224786.3564
        -0.000          -0.000
 97  3  9  0 46 59.9990000  0  7 24  4  9  5 30  7 10               -0.000416044
 -30750703.308 9 -23935080.70849  20184287.832    20184287.7684   20184292.8294
        -0.000          -0.000
 -27156452.876 9 -20875366.69148  21562836.807    21562837.1294   21562841.4554
        -0.000          -0.000
 -22808716.558 9 -16338962.63448  22037639.922    22037639.9494   22037645.4374
        -0.000          -0.000
 -27512450.674 9 -21427118.97449  20795811.843    20795811.4694   20795815.8214
        -0.000          -0.000
 -11271440.992 9  -8757796.62146  22872805.062    22872805.4664   22872809.8524
        -0.000          -0.000
 -14577031.386 9 -11339565.42245  24095729.938    24095729.4334   24095735.7274
        -0.000          -0.000
 -14363883.276 9 -11177848.12246  23204174.464    23204173.9054   23204180.5304
        -0.000          -0.000
 97  3  9  0 47 29.9990000  0  7 24  4  9  5 30  7 10               -0.000425845
 -30759972.574 9 -23942303.50349  20182523.932    20182523.8894   20182528.9854
        -0.000          -0.000
 -27097221.990 9 -20829212.75648  21574108.013    21574108.3764   21574112.7594
        -0.000          -0.000
 -22759281.978 9 -16300442.20048  22047047.154    22047047.1774   22047052.4874
        -0.000          -0.000
 -27582659.624 9 -21481827.24049  20782451.561    20782451.1784   20782455.5334
        -0.000          -0.000
 -11381083.917 9  -8843232.61746  22851940.677    22851941.0904   22851945.4494
        -0.000          -0.000
 -14524724.230 9 -11298806.60146  24105684.040    24105683.3824   24105689.5284
        -0.000          -0.000
 -14472087.585 9 -11262163.11046  23183584.008    23183583.2694   23183589.9184
        -0.000          -0.000
 97  3  9  0 47 59.9990000  0  7 24  4  9  5 30  7 10               -0.000435637
 -30768734.545 9 -23949130.99949  20180856.623    20180856.5744   20180861.6074
        -0.000          -0.000
 -27037650.882 9 -20782793.71348  21585444.058    21585444.3984   21585448.7354
        -0.000          -0.000
 -22709478.229 9 -16261634.10848  22056524.691    22056524.6954   22056529.8324
        -0.000          -0.000
 -27652497.833 9 -21536246.61449  20769161.750    20769161.3594   20769165.7654
        -0.000          -0.000
 -11490580.461 9  -8928554.57346  22831104.295    22831104.5664   22831108.8904
        -0.000          -0.000
 -14472373.630 9 -11258013.90446  24115646.354    24115645.7454   24115651.6174
        -0.000          -0.000
 -14580150.702 9 -11346368.08546  23163020.271    23163019.5364   23163025.9644
        -0.000          -0.000
 97  3  9  0 48 29.9990000  0  7 24  4  9  5 30  7 10               -0.000445420
 -30776990.810 9 -23955564.44249  20179285.491    20179285.4214   20179290.4514
        -0.000          -0.000
 -26977730.566 9 -20736102.56548  21596846.571    21596846.9044   21596851.2394
        -0.000          -0.000
 -22659296.690 9 -16222531.63048  22066074.080    22066074.1344   22066079.0814
        -0.000          -0.000
 -27721952.130 9 -21590366.83649  20755944.950    20755944.5794   20755948.9964
        -0.000          -0.000
 -11599931.418 9  -9013763.04345  22810295.097    22810295.5514   22810300.0174
        -0.000          -0.000
 -14419975.355 9 -11217184.08945  24125617.538    24125616.8934   24125622.7294
        -0.000          -0.000
 -14688059.723 9 -11430453.00046  23142485.664    23142484.9814   23142491.3544
        -0.000          -0.000
 97  3  9  0 48 59.9990000  0  7 24  4  9  5 30  7 10               -0.000455177
 -30784720.913 9 -23961587.88449  20177814.504    20177814.4404   20177819.4274
        -0.000          -0.000
 -26917456.586 9 -20689135.82648  21608316.321    21608316.6644   21608320.9984
        -0.000          -0.000
 -22608727.374 9 -16183126.99448  22075697.327    22075697.2934   22075702.1084
        -0.000          -0.000
 -27791021.010 9 -21644186.73349  20742801.569    20742801.1784   20742805.5894
        -0.000          -0.000
 -11709105.255 9  -9098833.53246  22789519.880    22789520.4634   22789524.8544
        -0.000          -0.000
 -14367512.549 8 -11176303.98945  24135600.673    24135600.1024   24135606.0794
        -0.000          -0.000
 -14795801.155 9 -11514407.29646  23121982.933    23121982.4354   23121988.6494
        -0.000          -0.000
 97  3  9  0 49 29.9990000  0  7 24  4  9  5 30  7 10               -0.000464910
 -30791919.645 9 -23967197.28049  20176444.614    20176444.5484   20176449.5394
        -0.000          -0.000
 -26856855.562 9 -20641914.25348  21619848.332    21619848.6804   21619853.0544
        -0.000          -0.000
 -22557777.137 9 -16143425.53248  22085392.775    22085392.7314   22085397.6054
        -0.000          -0.000
 -27859699.923 9 -21697702.76049  20729732.405    20729732.0154   20729736.4744
        -0.000          -0.000
 -11818103.708 9  -9183767.34546  22768778.219    22768778.7624   22768783.2324
        -0.000          -0.000
 -14314986.114 9 -11135374.30545  24145596.138    24145595.4924   24145601.6014
        -0.000          -0.000
 -14903373.610 9 -11598229.92946  23101512.757    23101512.1964   23101518.0724
        -0.000          -0.000
 97  3  9  0 49 59.9990000  0  7 24  4  9  5 30  7 10               -0.000474626
 -30798612.589 9 -23972412.54949  20175171.016    20175170.9404   20175175.8834
        -0.000          -0.000
 -26795956.184 9 -20594460.19248  21631437.156    21631437.4484   21631441.7374
        -0.000          -0.000
 -22506458.657 9 -16103437.12147  22095158.260    22095158.2214   22095163.2694
        -0.000          -0.000
 -27928013.026 9 -21750933.73949  20716732.882    20716732.4754   20716736.9584
        -0.000          -0.000
 -11926946.350 9  -9268579.73646  22748066.305    22748066.6424   22748071.0654
        -0.000          -0.000
 -14262402.565 8 -11094400.11845  24155602.557    24155601.9754   24155607.9214
        -0.000          -0.000
 -15010794.011 9 -11681934.05746  23081071.427    23081070.6784   23081076.7334
        -0.000          -0.000
 97  3  9  0 50 29.9990000  0  8 24  4  9  5 30  7  6 10            -0.000484292
 -30804876.769 9 -23977293.71749  20173978.943    20173978.8754   20173983.8044
        -0.000          -0.000
 -26734842.433 9 -20546839.08748  21643066.679    21643067.0064   21643071.1904
        -0.000          -0.000
 -22454850.312 9 -16063222.83048  22104978.948    22104978.9024   22104984.1714
        -0.000          -0.000
 -27996043.937 9 -21803944.82849  20703787.081    20703786.6874   20703791.0564
        -0.000          -0.000
 -12035689.866 9  -9353314.87146  22727372.945    22727373.1774   22727377.9544
        -0.000          -0.000
 -14209838.232 8 -11053440.94445  24165605.294    24165604.5494   24165610.5184
        -0.000          -0.000
  -2567072.99718  -1986143.65755  24722905.480    24722905.5495   24722912.0565
        -0.000          -0.000
 -15118145.134 9 -11765584.22846  23060642.889    23060642.3104   23060648.6194
        -0.000          -0.000
 97  3  9  0 50 59.9990000  0  8 24  4  9  5 30  7  6 10            -0.000494028
 -30810633.734 9 -23981779.65749  20172883.412    20172883.3434   20172888.2594
        -0.000          -0.000
 -26673455.623 9 -20499005.21048  21654748.240    21654748.5894   21654752.6754
        -0.000          -0.000
 -22402877.773 9 -16022724.76148  22114868.993    22114868.9754   22114874.2944
        -0.000          -0.000
 -28063712.523 9 -21856673.59149  20690910.194    20690909.7914   20690914.1364
        -0.000          -0.000
 -12144253.454 9  -9437909.86046  22706713.965    22706714.1584   22706718.8324
        -0.000          -0.000
 -14157218.159 8 -11012438.27945  24175618.554    24175617.7594   24175623.5734
        -0.000          -0.000
  -2651967.146 8  -2052294.91245  24706750.518    24706750.5124   24706757.3394
        -0.000          -0.000
 -15225360.952 9 -11849128.96946  23040240.375    23040239.8144   23040246.1264
        -0.000          -0.000
 97  3  9  0 51 29.9990000  0  8 24  4  9  5 30  7  6 10            -0.000503768
 -30815901.323 9 -23985884.25549  20171881.011    20171880.9574   20171885.8574
        -0.000          -0.000
 -26611806.629 9 -20450967.03248  21666479.709    21666480.0584   21666484.0914
        -0.000          -0.000
 -22350563.754 9 -15981960.60148  22124824.108    22124824.0934   22124829.3424
        -0.000          -0.000
 -28131018.681 9 -21909119.93349  20678102.282    20678101.8884   20678106.2574
        -0.000          -0.000
 -12252662.204 9  -9522384.18246  22686084.462    22686084.6704   22686089.2374
        -0.000          -0.000
 -14104561.681 8 -10971407.28645  24185638.543    24185637.8524   24185643.7794
        -0.000          -0.000
  -2736852.577 8  -2118439.33645  24690597.677    24690597.5754   24690604.2424
        -0.000          -0.000
 -15332447.706 9 -11932573.15046  23019862.665    23019862.0314   23019868.1564
        -0.000          -0.000
 97  3  9  0 51 59.9990000  0  8 24  4  9  5 30  7  6 10            -0.000513488
 -30820654.258 9 -23989587.83549  20170976.539    20170976.4844   20170981.3604
        -0.000          -0.000
 -26549841.383 9 -20402682.42948  21678271.332    21678271.6354   21678275.5934
        -0.000          -0.000
 -22297876.354 9 -15940905.51148  22134850.376    22134850.3024   22134855.4234
        -0.000          -0.000
 -28197930.494 9 -21961259.00849  20665369.366    20665368.9734   20665373.3154
        -0.000          -0.000
 -12360874.761 9  -9606705.59846  22665492.274    22665492.5064   22665497.1814
        -0.000          -0.000
 -14051839.530 9 -10930325.10945  24195671.180    24195670.5754   24195676.4484
        -0.000          -0.000
  -2821690.090 8  -2184546.42245  24674453.465    24674453.2524   24674459.9604
        -0.000          -0.000
 -15439360.455 9 -12015881.72846  22999518.005    22999517.2654   22999523.2634
        -0.000          -0.000
 97  3  9  0 52 29.9990000  0  8 24  4  9  5 30  7  6 10            -0.000523253
 -30824985.396 9 -23992962.73649  20170152.366    20170152.3144   20170157.2084
        -0.000          -0.000
 -26487646.123 9 -20354218.59148  21690106.676    21690107.0014   21690110.9824
        -0.000          -0.000
 -22244910.803 9 -15899633.66948  22144929.536    22144929.4544   22144934.3844
        -0.000          -0.000
 -28264536.267 9 -22013159.60449  20652694.709    20652694.2974   20652698.6164
        -0.000          -0.000
 -12468998.015 9  -9690957.43946  22644917.101    22644917.3904   22644922.0154
        -0.000          -0.000
 -13999177.135 9 -10889289.48545  24205692.547    24205691.7994   24205697.8634
        -0.000          -0.000
  -2906559.792 8  -2250678.59845  24658303.454    24658303.2624   24658309.6884
        -0.000          -0.000
 -15546186.855 9 -12099123.03546  22979189.720    22979188.9584   22979194.7754
        -0.000          -0.000
 97  3  9  0 52 59.9990000  0  8 24  4  9  5 30  7  6 10            -0.000533054
 -30828877.815 9 -23995995.78249  20169411.678    20169411.6074   20169416.5304
        -0.000          -0.000
 -26425194.850 9 -20305555.26748  21701990.816    21701991.0844   21701995.1164
        -0.000          -0.000
 -22191665.611 9 -15858143.92747  22155061.814    22155061.7104   22155066.5034
        -0.000          -0.000
 -28330825.667 9 -22064813.66849  20640080.218    20640079.8204   20640084.1804
        -0.000          -0.000
 -12577027.722 9  -9775136.41746  22624359.801    22624360.0724   22624364.5134
        -0.000          -0.000
 -13946569.875 8 -10848296.80945  24215703.394    24215702.6674   24215708.7744
        -0.000          -0.000
  -2991424.616 8  -2316806.97445  24642153.970    24642153.8914   24642160.2264
        -0.000          -0.000
 -15652907.348 9 -12182281.79546  22958881.537    22958880.7684   22958886.4524
        -0.000          -0.000
 97  3  9  0 53 29.9990000  0  8 24  4  9  5 30  7  6 10            -0.000542864
 -30832290.571 9 -23998655.06249  20168762.223    20168762.1864   20168767.0934
        -0.000          -0.000
 -26362448.416 9 -20256661.94448  21713931.015    21713931.3184   21713935.3684
        -0.000          -0.000
 -22138114.624 9 -15816415.90947  22165252.189    22165252.0654   22165256.8374
        -0.000          -0.000
 -28396763.271 9 -22116193.60649  20627532.725    20627532.3174   20627536.6844
        -0.000          -0.000
 -12684921.582 9  -9859209.52046  22603828.243    22603828.5454   22603832.8694
        -0.000          -0.000
 -13893974.502 8 -10807313.38845  24225711.936    24225711.2094   24225717.4544
        -0.000          -0.000
  -3076251.022 8  -2382905.41545  24626011.780    24626011.8874   24626018.1164
        -0.000          -0.000
 -15759468.723 9 -12265316.58946  22938603.499    22938602.8064   22938608.4114
        -0.000          -0.000
 97  3  9  0 53 59.9990000  0  8 24  4  9  5 30  7  6 10            -0.000552642
 -30835171.534 9 -24000899.96349  20168214.037    20168213.9664   20168218.9074
        -0.000          -0.000
 -26299361.150 9 -20207503.05448  21725936.074    21725936.3974   21725940.5014
        -0.000          -0.000
 -22084193.611 9 -15774399.55547  22175512.987    22175512.8824   22175517.6494
        -0.000          -0.000
 -28462289.660 9 -22167253.12049  20615063.364    20615062.9894   20615067.4154
        -0.000          -0.000
 -12792619.475 9  -9943129.93346  22583334.073    22583334.3634   22583338.5904
        -0.000          -0.000
 -13841325.784 8 -10766288.41845  24235730.589    24235729.8344   24235736.1914
        -0.000          -0.000
  -3160972.101 9  -2448921.75545  24609889.997    24609889.9884   24609896.0884
        -0.000          -0.000
 -15865813.793 9 -12348182.80646  22918366.595    22918365.8764   22918371.5794
        -0.000          -0.000
 97  3  9  0 54 29.9990000  0  7 24  4  9  5 30  6 10               -0.000562488
 -30837575.031 9 -24002772.81249  20167756.575    20167756.5234   20167761.5124
        -0.000          -0.000
 -26236002.937 9 -20158133.00648  21737992.949    21737993.1914   21737997.1844
        -0.000          -0.000
 -22029969.658 9 -15732147.13647  22185831.375    22185831.2994   22185836.0694
        -0.000          -0.000
 -28527456.134 9 -22218032.17849  20602662.580    20602662.2144   20602666.6644
        -0.000          -0.000
 -12900166.082 9 -10026932.43946  22562868.629    22562868.9504   22562873.2544
        -0.000          -0.000
  -3245650.626 9  -2514904.93345  24593776.359    24593776.2434   24593782.2874
        -0.000          -0.000
 -15972008.538 9 -12430931.90247  22898158.263    22898157.6364   22898163.2744
        -0.000          -0.000
 97  3  9  0 54 59.9990000  0  7 24  4  9  5 30  6 10               -0.000572188
 -30839444.089 9 -24004229.21649  20167400.914    20167400.8394   20167405.8404
        -0.000          -0.000
 -26172324.932 9 -20108513.80248  21750110.418    21750110.6624   21750114.7164
        -0.000          -0.000
 -21975389.854 9 -15689617.43847  22196217.654    22196217.5484   22196222.3434
        -0.000          -0.000
 -28592192.845 9 -22268476.35949  20590343.614    20590343.2124   20590347.6674
        -0.000          -0.000
 -13007486.442 9 -10110558.67546  22542446.321    22542446.5894   22542450.8034
        -0.000          -0.000
  -3330240.412 9  -2580818.97746  24577679.387    24577679.3264   24577685.4364
        -0.000          -0.000
 -16077992.376 9 -12513516.66047  22877990.269    22877989.5684   22877995.2434
        -0.000          -0.000
 97  3  9  0 55 29.9990000  0  7 24  4  9  5 30  6 10               -0.000581923
 -30840883.841 9 -24005351.08749  20167126.979    20167126.9084   20167131.8934
        -0.000          -0.000
 -26108429.315 9 -20058725.01948  21762269.283    21762269.5854   21762273.6684
        -0.000          -0.000
 -21920530.473 9 -15646869.88247  22206657.054    22206656.9914   22206661.8004
        -0.000          -0.000
 -28656571.402 9 -22318641.45749  20578092.757    20578092.3534   20578096.7934
        -0.000          -0.000
 -13114674.088 9 -10194081.50146  22522049.209    22522049.4704   22522053.6114
        -0.000          -0.000
  -3414855.757 9  -2646752.91346  24561577.686    24561577.6644   24561583.6074
        -0.000          -0.000
 -16183851.201 9 -12596004.00047  22857846.033    22857845.3244   22857851.0264
        -0.000          -0.000
 97  3  9  0 55 59.9990000  0  7 24  4  9  5 30  6 10               -0.000591658
 -30841856.323 9 -24006108.85649  20166941.943    20166941.8674   20166946.8534
        -0.000          -0.000
 -26044254.319 9 -20008718.54148  21774481.407    21774481.6904   21774485.7964
        -0.000          -0.000
 -21865329.441 9 -15603856.10448  22217161.507    22217161.4894   22217166.3354
        -0.000          -0.000
 -28720539.241 9 -22368486.52249  20565920.105    20565919.7104   20565924.1324
        -0.000          -0.000
 -13221671.628 9 -10277456.17746  22501688.238    22501688.4854   22501692.5704
        -0.000          -0.000
  -3499445.831 9  -2712667.12846  24545480.666    24545480.5774   24545486.6104
        -0.000          -0.000
 -16289543.721 9 -12678361.77047  22837733.419    22837732.6774   22837738.4224
        -0.000          -0.000
 97  3  9  0 56 29.9990000  0  7 24  4  9  5 30  6 10               -0.000601391
 -30842359.471 9 -24006500.90949  20166846.257    20166846.1934   20166851.1654
        -0.000          -0.000
 -25979782.122 9 -19958480.47447  21786750.101    21786750.3574   21786754.4804
        -0.000          -0.000
 -21809789.940 9 -15560578.59947  22227730.358    22227730.3224   22227735.2104
        -0.000          -0.000
 -28784094.444 9 -22418010.05049  20553826.009    20553825.5634   20553829.9494
        -0.000          -0.000
 -13328468.043 9 -10360674.12146  22481365.590    22481365.8444   22481369.9464
        -0.000          -0.000
  -3584013.180 9  -2778563.65146  24529387.928    24529387.8894   24529394.1934
        -0.000          -0.000
 -16395074.198 9 -12760593.26947  22817651.476    22817650.7794   22817656.6364
        -0.000          -0.000
 97  3  9  0 56 59.9990000  0  7 24  4  9  5 30  6 10               -0.000611145
 -30842419.232 9 -24006547.46649  20166834.912    20166834.8214   20166839.7574
        -0.000          -0.000
 -25915041.672 9 -19908033.37247  21799069.839    21799070.0974   21799074.2054
        -0.000          -0.000
 -21753930.374 9 -15517051.67547  22238360.032    22238359.9544   22238364.9474
        -0.000          -0.000
 -28847259.502 9 -22467229.57149  20541806.075    20541805.6644   20541809.9994
        -0.000          -0.000
 -13435101.840 9 -10443765.35646  22461073.839    22461074.0924   22461078.2454
        -0.000          -0.000
  -3668589.169 8  -2844466.93646  24513293.485    24513293.4804   24513299.8724
        -0.000          -0.000
 -16500467.550 9 -12842717.91747  22797595.720    22797595.0244   22797600.8654
        -0.000          -0.000
 97  3  9  0 57 29.9990000  0  7 24  4  9  5 30  6 10               -0.000620924
 -30842057.789 9 -24006265.81149  20166903.685    20166903.6134   20166908.5084
        -0.000          -0.000
 -25850057.646 9 -19857396.48147  21811435.884    21811436.1574   21811440.3064
        -0.000          -0.000
 -21697782.194 9 -15473299.86047  22249044.530    22249044.4374   22249049.5314
        -0.000          -0.000
 -28910082.575 9 -22516182.61049  20529851.272    20529850.8404   20529855.1774
        -0.000          -0.000
 -13541594.521 9 -10526746.64846  22440809.088    22440809.2514   22440813.2784
        -0.000          -0.000
  -3753194.013 8  -2910392.66445  24497193.516    24497193.4274   24497199.8634
        -0.000          -0.000
 -16605739.322 9 -12924747.82947  22777563.142    22777562.4024   22777568.1944
        -0.000          -0.000
 97  3  9  0 57 59.9990000  0  7 24  4  9  5 30  6 10               -0.000630729
 -30841278.193 9 -24005658.32649  20167052.002    20167051.9214   20167056.8714
        -0.000          -0.000
 -25784854.531 9 -19806588.87147  21823843.671    21823843.8884   21823848.0424
        -0.000          -0.000
 -21641373.546 9 -15429345.07847  22259778.564    22259778.5664   22259783.6394
        -0.000          -0.000
 -28972581.126 9 -22564882.76949  20517958.123    20517957.7334   20517962.0284
        -0.000          -0.000
 -13647946.808 9 -10609618.53446  22420570.827    22420570.9324   22420575.0654
        -0.000          -0.000
  -3837820.416 8  -2976335.22445  24481089.374    24481089.3754   24481096.0374
        -0.000          -0.000
 -16710896.015 9 -13006688.06647  22757552.390    22757551.6254   22757557.3654
        -0.000          -0.000
 97  3  9  0 58 29.9990000  0  7 24  4  9  5 30  6 10               -0.000640552
 -30840044.364 9 -24004696.89449  20167286.780    20167286.6984   20167291.6384
        -0.000          -0.000
 -25719424.975 9 -19755604.81047  21836294.419    21836294.7384   21836298.8454
        -0.000          -0.000
 -21584695.597 9 -15385180.46147  22270563.993    22270563.9894   22270569.0354
        -0.000          -0.000
 -29034718.953 9 -22613301.84049  20506133.678    20506133.2594   20506137.5954
        -0.000          -0.000
 -13754136.123 9 -10692363.42546  22400363.640    22400363.7914   22400367.9124
        -0.000          -0.000
  -3922447.141 8  -3042278.00745  24464985.384    24464985.4144   24464992.1574
        -0.000          -0.000
 -16815897.512 9 -13088507.37246  22737571.159    22737570.4974   22737576.0674
        -0.000          -0.000
 97  3  9  0 58 59.9990000  0  7 24  4  9  5 30  6 10               -0.000650375
 -30838326.455 9 -24003358.25549  20167613.591    20167613.5024   20167618.4634
        -0.000          -0.000
 -25653765.536 9 -19704441.60447  21848789.069    21848789.3484   21848793.4154
        -0.000          -0.000
 -21527724.821 9 -15340787.67747  22281405.333    22281405.2544   22281410.1584
        -0.000          -0.000
 -29096467.977 9 -22661417.94949  20494383.198    20494382.8144   20494387.1744
        -0.000          -0.000
 -13860140.904 9 -10774964.51246  22380191.580    22380191.7464   22380195.9144
        -0.000          -0.000
  -4007048.266 8  -3108200.83145  24448885.937    24448886.0294   24448892.8364
        -0.000          -0.000
 -16920687.468 9 -13170161.82547  22717630.266    22717629.5824   22717635.0544
        -0.000          -0.000
 97  3  9  0 59 29.9990000  0  7 24  4  9  5 30  6 10               -0.000660140
 -30836058.715 9 -24001591.18149  20168045.054    20168044.9934   20168050.0074
        -0.000          -0.000
 -25587808.858 9 -19653046.80547  21861340.130    21861340.4494   21861344.5304
        -0.000          -0.000
 -21470393.854 9 -15296114.21247  22292315.168    22292315.0424   22292319.8114
        -0.000          -0.000
 -29157753.624 9 -22709172.99349  20482720.976    20482720.5584   20482724.8954
        -0.000          -0.000
 -13965881.432 9 -10857359.69446  22360069.620    22360069.9064   22360074.1174
        -0.000          -0.000
  -4091536.564 9  -3174035.78245  24432808.557    24432808.5684   24432815.1894
        -0.000          -0.000
 -17025173.992 9 -13251579.82247  22697747.202    22697746.4374   22697751.9024
        -0.000          -0.000
 97  3  9  0 59 59.9990000  0  7 24  4  9  5 30  6 10               -0.000669879
 -30833281.818 9 -23999427.36149  20168573.476    20168573.4174   20168578.4194
        -0.000          -0.000
 -25521594.737 9 -19601451.38947  21873940.279    21873940.5364   21873944.6934
        -0.000          -0.000
 -21412733.891 9 -15251184.38647  22303287.445    22303287.3654   22303292.1404
        -0.000          -0.000
 -29218585.424 9 -22756574.38849  20471144.999    20471144.6024   20471148.9894
        -0.000          -0.000
 -14071398.263 9 -10939580.57446  22339990.387    22339990.6874   22339994.9444
        -0.000          -0.000
  -4175938.740 9  -3239803.62145  24416747.426    24416747.4584   24416753.9004
        -0.000          -0.000
 -17129400.702 9 -13332795.39647  22677913.579    22677912.8474   22677918.3214
        -0.000          -0.000
 97  3  9  1  0 29.9990000  0  7 24  4  9  5 30  6 10               -0.000679621
 -30830042.490 9 -23996903.20149  20169189.864    20169189.7914   20169194.8044
        -0.000          -0.000
 -25455156.305 9 -19549681.18147  21886583.018    21886583.3444   21886587.4284
        -0.000          -0.000
 -21354783.001 9 -15206027.85647  22314315.122    22314315.0414   22314319.9264
        -0.000          -0.000
 -29279019.552 9 -22803665.91149  20459644.754    20459644.4034   20459648.7974
        -0.000          -0.000
 -14176743.187 9 -11021667.51446  22319943.828    22319944.1744   22319948.3644
        -0.000          -0.000
  -4260309.537 9  -3305547.03645  24400691.986    24400692.0034   24400698.4354
        -0.000          -0.000
 -17233418.462 9 -13413848.15547  22658119.637    22658118.9214   22658124.4674
        -0.000          -0.000
 97  3  9  1  0 59.9990000  0  7 24  4  9  5 30  6 10               -0.000689363
 -30826352.323 9 -23994027.73849  20169892.053    20169892.0144   20169896.9764
        -0.000          -0.000
 -25388494.085 9 -19497736.59747  21899268.507    21899268.7624   21899272.8524
        -0.000          -0.000
 -21296527.777 9 -15160634.19647  22325400.690    22325400.5574   22325405.6284
        -0.000          -0.000
 -29339066.823 9 -22850455.98849  20448218.216    20448217.8334   20448222.1624
        -0.000          -0.000
 -14281911.933 9 -11103617.15146  22299930.921    22299931.2694   22299935.4864
        -0.000          -0.000
  -4344645.543 9  -3371263.32345  24384643.519    24384643.5824   24384649.8584
        -0.000          -0.000
 -17337234.624 9 -13494743.84347  22638364.003    22638363.2784   22638368.9274
        -0.000          -0.000
 97  3  9  1  1 29.9990000  0  7 24  4  9  5 30  6 10               -0.000699110
 -30822235.390 9 -23990819.73049  20170675.518    20170675.4524   20170680.4144
        -0.000          -0.000
 -25321607.814 9 -19445617.42947  21911996.517    21911996.7904   21912000.9844
        -0.000          -0.000
 -21237986.704 9 -15115017.80347  22336540.443    22336540.3264   22336545.6414
        -0.000          -0.000
 -29398750.085 9 -22896962.41649  20436860.864    20436860.4564   20436864.8234
        -0.000          -0.000
 -14386909.898 9 -11185433.71746  22279950.458    22279950.7314   22279955.0224
        -0.000          -0.000
  -4428963.909 9  -3436965.88545  24368598.347    24368598.3514   24368604.4044
        -0.000          -0.000
 -17440887.121 9 -13575512.00447  22618639.471    22618638.7124   22618644.5694
        -0.000          -0.000
 97  3  9  1  1 59.9990000  0  7 24  4  9  5 30  6 10               -0.000708879
 -30817690.380 9 -23987278.15649  20171540.388    20171540.3534   20171545.2734
        -0.000          -0.000
 -25254494.475 9 -19393321.33947  21924767.728    21924767.9994   21924772.3084
        -0.000          -0.000
 -21179181.333 9 -15069195.45347  22347730.571    22347730.4584   22347735.8214
        -0.000          -0.000
 -29458068.323 9 -22943184.41549  20425572.957    20425572.5704   20425576.9294
        -0.000          -0.000
 -14491737.779 9 -11267117.74946  22260002.311    22260002.5514   22260006.8104
        -0.000          -0.000
  -4513294.732 9  -3502678.16845  24352550.489    24352550.4604   24352556.6174
        -0.000          -0.000
 -17544390.310 9 -13656163.82047  22598943.225    22598942.4484   22598948.6024
        -0.000          -0.000
 97  3  9  1  2 29.9990000  0  7 24  4  9  5 30  6 10               -0.000718655
 -30812691.727 9 -23983383.09049  20172491.687    20172491.6354   20172496.4734
        -0.000          -0.000
 -25187128.231 9 -19340828.15447  21937587.182    21937587.4544   21937591.6064
        -0.000          -0.000
 -21120100.194 9 -15023158.21147  22358973.216    22358973.1354   22358978.4404
        -0.000          -0.000
 -29517002.580 9 -22989107.21849  20414358.232    20414357.7944   20414362.1134
        -0.000          -0.000
 -14596365.963 9 -11348646.18146  22240092.234    22240092.4654   22240096.6714
        -0.000          -0.000
  -4597633.975 9  -3568397.01045  24336501.227    24336501.2114   24336507.3664
        -0.000          -0.000
 -17647711.365 9 -13736673.70747  22579281.619    22579280.9394   22579287.3294
        -0.000          -0.000
 97  3  9  1  2 59.9990000  0  7 24  4  9  5 30  6 10               -0.000728436
 -30807228.622 9 -23979126.11749  20173531.288    20173531.2254   20173536.0564
        -0.000          -0.000
 -25119518.720 9 -19288145.40747  21950452.973    21950453.2174   21950457.2504
        -0.000          -0.000
 -21060754.249 9 -14976914.63447  22370266.373    22370266.3564   22370271.4414
        -0.000          -0.000
 -29575530.538 9 -23034713.41349  20403220.633    20403220.2154   20403224.5954
        -0.000          -0.000
 -14700782.961 9 -11430010.04846  22220222.263    22220222.4814   22220226.7374
        -0.000          -0.000
  -4681977.230 8  -3634118.99045  24320451.117    24320451.0434   24320457.3184
        -0.000          -0.000
 -17750823.221 9 -13817020.56447  22559660.022    22559659.3534   22559665.7664
        -0.000          -0.000
 97  3  9  1  3 29.9990000  0  7 24  4  9  5 30  6 10               -0.000738232
 -30801299.224 9 -23974505.79149  20174659.658    20174659.5844   20174664.3954
        -0.000          -0.000
 -25051673.036 9 -19235278.64647  21963363.551    21963363.7804   21963367.9074
        -0.000          -0.000
 -21001167.901 9 -14930483.72847  22381605.440    22381605.3774   22381610.1574
        -0.000          -0.000
 -29633646.800 9 -23079998.80649  20392161.466    20392161.0614   20392165.4394
        -0.000          -0.000
 -14804999.370 9 -11511217.59446  22200390.414    22200390.6794   22200394.9964
        -0.000          -0.000
  -4766330.156 8  -3699848.47045  24304399.245    24304399.1254   24304405.4714
        -0.000          -0.000
 -17853723.955 9 -13897202.90247  22540078.849    22540078.0994   22540084.3844
        -0.000          -0.000
 97  3  9  1  3 59.9990000  0  7 24  4  9  5 30  6 10               -0.000748039
 -30794890.657 9 -23969512.09849  20175879.234    20175879.1394   20175883.9254
        -0.000          -0.000
 -24983589.136 9 -19182226.27847  21976319.503    21976319.7104   21976323.9504
        -0.000          -0.000
 -20941323.750 9 -14883851.94547  22392993.531    22392993.4834   22392998.0634
        -0.000          -0.000
 -29691324.299 9 -23124942.30449  20381185.815    20381185.4094   20381189.7674
        -0.000          -0.000
 -14909010.660 9 -11592265.34046  22180597.701    22180597.9924   22180602.2264
        -0.000          -0.000
  -4850676.304 8  -3765572.65345  24288348.727    24288348.6664   24288354.8434
        -0.000          -0.000
 -17956392.021 9 -13977203.92447  22520541.860    22520541.0844   22520547.2284
        -0.000          -0.000
 97  3  9  1  4 29.9990000  0  7 24  4  9  5 30  6 10               -0.000757840
 -30788007.030 9 -23964148.22249  20177189.128    20177189.0234   20177193.8314
        -0.000          -0.000
 -24915266.703 9 -19128988.01847  21989320.847    21989321.0704   21989325.3104
        -0.000          -0.000
 -20881195.696 9 -14836998.93647  22404435.578    22404435.5424   22404440.1514
        -0.000          -0.000
 -29748567.080 9 -23169547.05549  20370292.857    20370292.4304   20370296.8004
        -0.000          -0.000
 -15012808.581 9 -11673146.81746  22160845.570    22160845.8664   22160850.0624
        -0.000          -0.000
  -4934981.791 8  -3831265.16645  24272305.835    24272305.6944   24272312.0914
        -0.000          -0.000
 -18058815.192 9 -14057014.13047  22501051.416    22501050.6374   22501056.6114
        -0.000          -0.000
 97  3  9  1  4 59.9990000  0  7 24  4  9  5 30  6 10               -0.000767643
 -30780688.394 9 -23958445.38349  20178581.818    20178581.7284   20178586.5144
        -0.000          -0.000
 -24846736.407 9 -19075587.79147  22002361.723    22002361.9424   22002366.1814
        -0.000          -0.000
 -20820800.483 9 -14789937.73647  22415928.414    22415928.4054   22415933.0684
        -0.000          -0.000
 -29805406.361 9 -23213837.39849  20359476.690    20359476.2884   20359480.6164
        -0.000          -0.000
 -15116413.031 9 -11753877.51246  22141130.287    22141130.5344   22141134.7514
        -0.000          -0.000
  -5019261.606 8  -3896937.70545  24256267.729    24256267.6464   24256274.2444
        -0.000          -0.000
 -18161025.007 9 -14136658.06947  22481601.419    22481600.7024   22481606.5294
        -0.000          -0.000
 97  3  9  1  5 29.9990000  0  7 24  4  9  5 30  6 10               -0.000777434
 -30772947.766 9 -23952413.71249  20180054.780    20180054.6794   20180059.4864
        -0.000          -0.000
 -24777970.427 9 -19022003.92947  22015447.365    22015447.6334   22015451.9114
        -0.000          -0.000
 -20760122.703 9 -14742656.36047  22427475.137    22427475.0724   22427479.8074
        -0.000          -0.000
 -29861823.416 9 -23257798.73449  20348740.925    20348740.5304   20348744.7834
        -0.000          -0.000
 -15219806.003 9 -11834443.43747  22121455.338    22121455.5054   22121459.6944
        -0.000          -0.000
  -5103501.099 9  -3962578.79746  24240237.609    24240237.5234   24240243.9804
        -0.000          -0.000
 -18263026.169 9 -14216139.43347  22462191.192    22462190.4994   22462196.2114
        -0.000          -0.000
 97  3  9  1  5 59.9990000  0  7 24  4  9  5 30  6 10               -0.000787206
 -30764778.185 9 -23946047.80449  20181609.387    20181609.2834   20181614.1524
        -0.000          -0.000
 -24708967.312 9 -18968235.27147  22028578.343    22028578.5724   22028582.7754
        -0.000          -0.000
 -20699147.927 9 -14695143.55647  22439078.168    22439078.1004   22439082.9764
        -0.000          -0.000
 -29917804.183 9 -23301420.10649  20338088.118    20338087.7254   20338091.9964
        -0.000          -0.000
 -15322961.918 9 -11914824.64647  22101825.500    22101825.6144   22101829.7394
        -0.000          -0.000
  -5187691.604 9  -4028181.73546  24224216.849    24224216.6844   24224222.9214
        -0.000          -0.000
 -18364803.190 9 -14295446.14747  22442823.671    22442822.9674   22442828.5704
        -0.000          -0.000
 97  3  9  1  6 29.9990000  0  7 24  4  9  5 30  6 10               -0.000796972
 -30756196.074 9 -23939360.43849  20183242.487    20183242.3924   20183247.2384
        -0.000          -0.000
 -24639753.877 9 -18914302.73247  22041749.220    22041749.4644   22041753.5884
        -0.000          -0.000
 -20637916.773 9 -14647430.96447  22450729.921    22450729.9034   22450734.9444
        -0.000          -0.000
 -29973364.181 9 -23344713.61049  20327515.335    20327514.9544   20327519.2814
        -0.000          -0.000
 -15425882.018 9 -11995022.10247  22082240.429    22082240.5634   22082244.6384
        -0.000          -0.000
  -5271850.992 9  -4093760.42546  24208201.684    24208201.6414   24208207.7764
        -0.000          -0.000
 -18466368.097 9 -14374587.60947  22423496.534    22423495.7564   22423501.3424
        -0.000          -0.000
 97  3  9  1  6 59.9990000  0  7 24  4  9  5 30  6 10               -0.000806750
 -30747201.701 9 -23932351.83049  20184954.022    20184953.9274   20184958.8124
        -0.000          -0.000
 -24570345.352 9 -18860218.16547  22054957.230    22054957.4414   22054961.5544
        -0.000          -0.000
 -20576453.468 9 -14599537.49547  22462426.167    22462426.0364   22462431.1554
        -0.000          -0.000
 -30028496.644 9 -23387673.97049  20317023.986    20317023.6374   20317027.9244
        -0.000          -0.000
 -15528578.139 9 -12075045.02147  22062697.882    22062698.0824   22062702.1934
        -0.000          -0.000
  -5356001.126 9  -4159331.88645  24192188.618    24192188.5074   24192194.4274
        -0.000          -0.000
 -18567721.416 9 -14453564.18547  22404209.570    22404208.7094   22404214.4254
        -0.000          -0.000
 97  3  9  1  7 29.9990000  0  7 24  4  9  5 30  6 10               -0.000816536
 -30737769.161 9 -23925001.79549  20186748.899    20186748.8154   20186753.7614
        -0.000          -0.000
 -24500735.174 9 -18805976.48547  22068203.484    22068203.7804   22068208.0124
        -0.000          -0.000
 -20514752.073 9 -14551458.50147  22474167.621    22474167.5084   22474172.5774
        -0.000          -0.000
 -30083176.739 9 -23430281.82849  20306618.685    20306618.3014   20306622.6204
        -0.000          -0.000
 -15631040.544 9 -12154885.83647  22043199.938    22043200.2304   22043204.2184
        -0.000          -0.000
  -5440123.118 8  -4224881.40045  24176180.519    24176180.3804   24176186.1534
        -0.000          -0.000
 -18668837.081 9 -14532355.59347  22384967.694    22384966.9004   22384972.8344
        -0.000          -0.000
 97  3  9  1  7 59.9990000  0  7 24  4  9  5 30  6 10               -0.000826320
 -30727867.130 9 -23917285.92049  20188633.193    20188633.1304   20188638.0514
        -0.000          -0.000
 -24430920.037 9 -18751575.09647  22081488.805    22081489.1234   22081493.4454
        -0.000          -0.000
 -20452792.532 9 -14503178.34847  22485958.164    22485958.1254   22485963.0184
        -0.000          -0.000
 -30137404.386 9 -23472537.12449  20296299.438    20296299.1044   20296303.4894
        -0.000          -0.000
 -15733260.107 9 -12234537.40547  22023748.229    22023748.4474   22023752.4944
        -0.000          -0.000
  -5524208.997 8  -4290402.79645  24160179.356    24160179.3754   24160184.6134
        -0.000          -0.000
 -18769676.325 9 -14610931.60647  22365778.539    22365777.8144   22365783.7344
        -0.000          -0.000
 97  3  9  1  8 29.9990000  0  7 24  4  9  5 30  6 10               -0.000836106
 -30717526.280 9 -23909228.10849  20190600.995    20190600.8984   20190605.8194
        -0.000          -0.000
 -24360907.231 9 -18697019.67947  22094811.829    22094812.1304   22094816.4434
        -0.000          -0.000
 -20390593.781 9 -14454711.81147  22497794.347    22497794.2214   22497798.9494
        -0.000          -0.000
 -30191197.918 9 -23514454.15449  20286062.908    20286062.5614   20286066.9204
        -0.000          -0.000
 -15835261.971 9 -12314019.33247  22004337.766    22004338.0244   22004342.2414
        -0.000          -0.000
  -5608277.137 8  -4355910.37645  24144181.732    24144181.6624   24144187.0534
        -0.000          -0.000
 -18870253.360 9 -14689303.28247  22346639.440    22346638.7044   22346644.5274
        -0.000          -0.000
 97  3  9  1  8 59.9990000  0  7 24  4  9  5 30  6 10               -0.000845900
 -30706755.707 9 -23900835.44449  20192650.530    20192650.4894   20192655.3914
        -0.000          -0.000
 -24290707.192 9 -18642318.34247  22108170.485    22108170.7324   22108174.9974
        -0.000          -0.000
 -20328153.937 9 -14406057.41347  22509676.288    22509676.0964   22509680.8794
        -0.000          -0.000
 -30244572.255 9 -23556044.54249  20275906.123    20275905.7624   20275910.0584
        -0.000          -0.000
 -15937060.667 9 -12393342.97147  21984966.216    21984966.4354   21984970.5884
        -0.000          -0.000
  -5692336.513 8  -4421411.12445  24128185.595    24128185.4654   24128191.0594
        -0.000          -0.000
 -18970577.510 9 -14767477.90047  22327548.466    22327547.7104   22327553.3804
        -0.000          -0.000
 97  3  9  1  9 29.9990000  0  7 24  4  9  5 30  6 10               -0.000855691
 -30695560.341 9 -23892111.77049  20194781.002    20194780.9144   20194785.8074
        -0.000          -0.000
 -24220313.861 9 -18587466.40247  22121565.824    22121566.0484   22121570.2494
        -0.000          -0.000
 -20265460.463 9 -14357205.36747  22521606.443    22521606.2474   22521611.2594
        -0.000          -0.000
 -30297525.122 9 -23597306.50849  20265829.558    20265829.1684   20265833.4844
        -0.000          -0.000
 -16038634.572 9 -12472491.44847  21965637.353    21965637.6164   21965641.6854
        -0.000          -0.000
  -5776381.007 8  -4486900.27045  24112192.376    24112192.3264   24112197.8114
        -0.000          -0.000
 -19070642.014 9 -14845450.19047  22308506.850    22308506.0534   22308511.6694
        -0.000          -0.000
 97  3  9  1  9 59.9990000  0  7 24  4  9  5 30  6 10               -0.000865471
 -30683953.464 9 -23883067.44049  20196989.662    20196989.5954   20196994.4974
        -0.000          -0.000
 -24149712.569 9 -18532452.41647  22135000.800    22135001.0884   22135005.2294
        -0.000          -0.000
 -20202515.174 9 -14308157.10947  22533584.295    22533584.1354   22533589.5504
        -0.000          -0.000
 -30350064.294 9 -23638246.11949  20255831.704    20255831.3204   20255835.6354
        -0.000          -0.000
 -16139968.589 9 -12551452.97447  21946354.022    21946354.2754   21946358.4414
        -0.000          -0.000
  -5860425.673 8  -4552389.55345  24096199.252    24096199.1584   24096204.7554
        -0.000          -0.000
 -19170450.752 9 -14923223.16747  22289513.803    22289513.0214   22289518.5744
        -0.000          -0.000
 97  3  9  1 10 29.9990000  0  7 24  4  9  5 30  6 10               -0.000875232
 -30671920.928 9 -23873691.42749  20199279.378    20199279.3104   20199284.1984
        -0.000          -0.000
 -24078889.797 9 -18477265.84547  22148477.961    22148478.2084   22148482.3614
        -0.000          -0.000
 -20139311.940 9 -14258907.83947  22545611.283    22545611.0694   22545616.8514
        -0.000          -0.000
 -30402165.894 9 -23678844.76649  20245917.092    20245916.6944   20245921.0114
        -0.000          -0.000
 -16241030.929 9 -12630202.82547  21927122.570    21927122.7884   21927126.9814
        -0.000          -0.000
  -5944443.303 9  -4617857.75546  24080211.050    24080210.9974   24080216.8474
        -0.000          -0.000
 -19270002.613 9 -15000795.98747  22270569.640    22270568.8864   22270574.3664
        -0.000          -0.000
 97  3  9  1 10 59.9990000  0  7 24  4  9  5 30  6 10               -0.000884988
 -30659479.830 9 -23863997.05449  20201646.838    20201646.7714   20201651.6694
        -0.000          -0.000
 -24007867.496 9 -18421923.79247  22161992.958    22161993.2414   22161997.3994
        -0.000          -0.000
 -20075876.729 9 -14209477.82847  22557682.479    22557682.2614   22557688.2584
        -0.000          -0.000
 -30453850.609 9 -23719118.57249  20236081.801    20236081.4324   20236085.7114
        -0.000          -0.000
 -16341834.051 9 -12708750.68247  21907940.450    21907940.6294   21907944.7404
        -0.000          -0.000
  -6028461.762 9  -4683326.63346  24064222.938    24064222.8654   24064228.6964
        -0.000          -0.000
 -19369309.827 9 -15078178.18347  22251672.079    22251671.3794   22251676.7874
        -0.000          -0.000
 97  3  9  1 11 29.9990000  0  7 24  4  9  5 30  6 10               -0.000894733
 -30646628.920 9 -23853983.34849  20204092.306    20204092.2384   20204097.1544
        -0.000          -0.000
 -23936631.902 9 -18366415.55647  22175548.692    22175548.9674   22175553.1664
        -0.000          -0.000
 -20012207.999 9 -14159865.84247  22569798.317    22569798.2144   22569804.0524
        -0.000          -0.000
 -30505102.045 9 -23759054.75149  20226329.043    20226328.6344   20226332.9104
        -0.000          -0.000
 -16442362.455 9 -12787084.48947  21888810.467    21888810.6724   21888814.7384
        -0.000          -0.000
  -6112483.061 9  -4748797.72546  24048234.180    24048234.0944   24048240.0114
        -0.000          -0.000
 -19468351.775 9 -15155353.67347  22232824.974    22232824.2864   22232829.7684
        -0.000          -0.000
 97  3  9  1 11 59.9990000  0  7 24  4  9  5 30  6 10               -0.000904480
 -30633371.053 9 -23843652.53649  20206615.210    20206615.1414   20206620.0484
        -0.000          -0.000
 -23865203.121 9 -18310756.75847  22189141.306    22189141.5364   22189145.6444
        -0.000          -0.000
 -19948350.151 9 -14110106.48947  22581950.256    22581950.2014   22581955.7024
        -0.000          -0.000
 -30555929.230 9 -23798660.34249  20216656.945    20216656.5604   20216660.8224
        -0.000          -0.000
 -16542632.687 9 -12865217.09947  21869729.636    21869729.8114   21869733.9954
        -0.000          -0.000
  -6196518.063 9  -4814279.50246  24032242.994    24032242.8944   24032248.6044
        -0.000          -0.000
 -19567141.275 9 -15232332.46647  22214025.942    22214025.1914   22214030.7584
        -0.000          -0.000
 97  3  9  1 12 29.9990000  0  7 24  4  9  5 30  6 10               -0.000914238
 -30619683.505 9 -23832986.90749  20209219.863    20209219.7784   20209224.6814
        -0.000          -0.000
 -23793605.054 9 -18254966.06247  22202766.082    22202766.2454   22202770.3714
        -0.000          -0.000
 -19884300.014 9 -14060197.29847  22594138.830    22594138.7634   22594143.8844
        -0.000          -0.000
 -30606313.205 9 -23837920.57749  20207069.237    20207068.8274   20207073.0564
        -0.000          -0.000
 -16642646.424 9 -12943149.86747  21850697.692    21850697.8864   21850702.0144
        -0.000          -0.000
  -6280539.734 9  -4879750.92346  24016254.317    24016254.1734   24016259.7774
        -0.000          -0.000
 -19665654.793 9 -15309096.19947  22195279.369    22195278.6194   22195284.2634
        -0.000          -0.000
 97  3  9  1 12 59.9990000  0  7 24  4  9  5 30  6 10               -0.000924013
 -30605563.569 9 -23821984.35449  20211906.835    20211906.7284   20211911.6324
        -0.000          -0.000
 -23721853.830 9 -18199056.03947  22216419.914    22216420.0234   22216424.2084
        -0.000          -0.000
 -19820064.192 9 -14010143.42747  22606362.762    22606362.5814   22606367.4844
        -0.000          -0.000
 -30656260.507 9 -23876840.54949  20197564.612    20197564.1774   20197568.3924
        -0.000          -0.000
 -16742417.249 9 -13020893.33547  21831711.966    21831712.1014   21831716.2834
        -0.000          -0.000
  -6364550.213 8  -4945213.60545  24000267.331    24000267.3014   24000273.0274
        -0.000          -0.000
 -19763884.068 9 -15385638.45847  22176586.845    22176586.0494   22176591.7964
        -0.000          -0.000
 97  3  9  1 13 29.9990000  0  7 24  4  9  5 30  6 10               -0.000933817
 -30591009.955 9 -23810643.86749  20214676.301    20214676.1814   20214681.0984
        -0.000          -0.000
 -23649966.540 9 -18143039.97347  22230099.517    22230099.7024   22230103.8244
        -0.000          -0.000
 -19755652.287 9 -13959952.34447  22618619.849    22618619.6854   22618624.7004
        -0.000          -0.000
 -30705778.576 9 -23915426.05149  20188141.650    20188141.2314   20188145.4324
        -0.000          -0.000
 -16841963.771 9 -13098462.03247  21812768.736    21812768.9944   21812773.1524
        -0.000          -0.000
  -6448543.499 8  -5010662.88845  23984283.922    23984283.8864   23984289.4574
        -0.000          -0.000
 -19861852.651 9 -15461977.59147  22157943.923    22157943.1254   22157948.9874
        -0.000          -0.000
 97  3  9  1 13 59.9990000  0  7 24  4  9  5 30  6 10               -0.000943638
 -30576011.113 9 -23798956.45549  20217530.394    20217530.3054   20217535.2334
        -0.000          -0.000
 -23577936.543 9 -18086912.69847  22243806.430    22243806.6334   22243810.7154
        -0.000          -0.000
 -19691045.365 9 -13909609.30947  22630913.883    22630913.8044   22630919.0184
        -0.000          -0.000
 -30754856.123 9 -23953668.29149  20178802.514    20178802.0664   20178806.2984
        -0.000          -0.000
 -16941284.306 9 -13175854.64647  21793868.642    21793868.9384   21793873.0414
        -0.000          -0.000
  -6532486.852 8  -5076073.25245  23968309.906    23968310.0044   23968315.4604
        -0.000          -0.000
 -19959561.370 9 -15538114.23647  22139350.362    22139349.6374   22139355.6444
        -0.000          -0.000
 97  3  9  1 14 29.9990000  0  7 24  4  9  5 30  6 10               -0.000953479
 -30560587.514 9 -23786938.05849  20220465.430    20220465.3334   20220470.2494
        -0.000          -0.000
 -23505765.573 9 -18030675.58747  22257540.109    22257540.2764   22257544.3884
        -0.000          -0.000
 -19626231.084 9 -13859104.69347  22643247.616    22643247.4164   22643252.8244
        -0.000          -0.000
 -30803499.758 9 -23991572.42349  20169545.909    20169545.4844   20169549.7254
        -0.000          -0.000
 -17040398.843 9 -13253086.72647  21775007.772    21775008.0064   21775012.1694
        -0.000          -0.000
  -6616394.680 8  -5141455.94045  23952342.686    23952342.7894   23952348.0914
        -0.000          -0.000
 -20057019.282 9 -15614055.44647  22120804.659    22120804.0064   22120810.0194
        -0.000          -0.000
 97  3  9  1 14 59.9990000  0  7 24  4  9  5 30  6 10               -0.000963340
 -30544761.577 9 -23774606.16349  20223476.927    20223476.8584   20223481.8084
        -0.000          -0.000
 -23433435.555 9 -17974314.53047  22271304.135    22271304.3074   22271308.3074
        -0.000          -0.000
 -19561219.628 9 -13808446.41347  22655618.889    22655618.6124   22655624.0144
        -0.000          -0.000
 -30851706.670 9 -24029136.25349  20160372.504    20160372.0254   20160376.2034
        -0.000          -0.000
 -17139306.131 9 -13330157.31647  21756186.170    21756186.4864   21756190.6964
        -0.000          -0.000
  -6700292.763 8  -5206831.03745  23936377.240    23936377.2214   23936382.9324
        -0.000          -0.000
 -20154245.715 9 -15689816.26547  22102303.201    22102302.4944   22102308.3904
        -0.000          -0.000
 97  3  9  1 15 29.9990000  0  7 24  4  9  5 30  6 10               -0.000973232
 -30528588.760 9 -23762003.95949  20226554.521    20226554.4384   20226559.3694
        -0.000          -0.000
 -23360961.766 9 -17917841.46147  22285095.413    22285095.5504   22285099.6704
        -0.000          -0.000
 -19496041.956 9 -13757658.61047  22668021.618    22668021.5254   22668026.7974
        -0.000          -0.000
 -30899481.663 9 -24066363.51149  20151281.182    20151280.6994   20151284.9614
        -0.000          -0.000
 -17238016.263 9 -13407074.28447  21737402.177    21737402.5294   21737406.7414
        -0.000          -0.000
  -6784214.141 9  -5272224.31045  23920407.435    23920407.4374   23920413.2524
        -0.000          -0.000
 -20251256.411 9 -15765408.98047  22083842.756    22083841.9544   22083847.7254
        -0.000          -0.000
 97  3  9  1 15 59.9990000  0  7 24  4  9  5 30  6 10               -0.000983151
 -30512088.147 9 -23749146.33249  20229694.488    20229694.4144   20229699.3154
        -0.000          -0.000
 -23288353.663 9 -17861263.72047  22298912.094    22298912.3444   22298916.4244
        -0.000          -0.000
 -19430713.069 9 -13706752.99847  22680453.335    22680453.3284   22680458.3304
        -0.000          -0.000
 -30946826.547 9 -24103255.62249  20142271.699    20142271.2364   20142275.5314
        -0.000          -0.000
 -17336519.760 9 -13483830.23847  21718657.593    21718657.9464   21718662.1454
        -0.000          -0.000
  -6868174.738 9  -5337648.13746  23904430.371    23904430.3674   23904436.1444
        -0.000          -0.000
 -20348027.733 9 -15840815.16647  22065427.761    22065427.0034   22065432.6134
        -0.000          -0.000
 97  3  9  1 16 29.9990000  0  7 24  4  9  5 30  6 10               -0.000993083
 -30495242.424 9 -23736019.79049  20232900.149    20232900.0254   20232904.9314
        -0.000          -0.000
 -23215597.242 9 -17804570.41147  22312757.026    22312757.2704   22312761.4214
        -0.000          -0.000
 -19365224.626 9 -13655723.07347  22692915.720    22692915.6204   22692920.3144
        -0.000          -0.000
 -30993719.835 9 -24139795.83649  20133348.221    20133347.7634   20133352.0454
        -0.000          -0.000
 -17434783.314 9 -13560399.21747  21699958.638    21699958.9414   21699963.1894
        -0.000          -0.000
  -6952164.923 9  -5403095.00346  23888447.764    23888447.6924   23888453.3744
        -0.000          -0.000
 -20444510.027 9 -15915996.12447  22047067.767    22047067.0534   22047072.5024
        -0.000          -0.000
 97  3  9  1 16 59.9990000  0  7 24  4  9  5 30  6 10               -0.001003004
 -30478033.820 9 -23722610.48149  20236174.812    20236174.7384   20236179.6314
        -0.000          -0.000
 -23142682.186 9 -17747753.50347  22326632.238    22326632.5144   22326636.7844
        -0.000          -0.000
 -19299546.093 9 -13604545.04047  22705414.189    22705413.9294   22705418.5004
        -0.000          -0.000
 -31040140.032 9 -24175967.41849  20124514.730    20124514.2694   20124518.5714
        -0.000          -0.000
 -17532761.913 9 -13636746.15547  21681313.970    21681314.2494   21681318.4734
        -0.000          -0.000
  -7036146.068 9  -5468534.81946  23872466.740    23872466.6154   23872472.2964
        -0.000          -0.000
 -20540656.119 9 -15990915.10947  22028771.932    22028771.1494   22028776.4104
        -0.000          -0.000
 97  3  9  1 17 29.9980000  0  7 24  4  9  5 30  6 10               -0.001012916
 -30460470.891 9 -23708925.07149  20239516.991    20239516.8544   20239521.7364
        -0.000          -0.000
 -23069642.836 9 -17690839.72747  22340531.211    22340531.4724   22340535.7274
        -0.000          -0.000
 -19233684.271 9 -13553224.16747  22717947.366    22717947.1424   22717951.7794
        -0.000          -0.000
 -31086118.211 9 -24211794.56749  20115765.362    20115764.9064   20115769.1894
        -0.000          -0.000
 -17630470.927 9 -13712883.03447  21662720.580    21662720.8704   21662724.9884
        -0.000          -0.000
  -7120115.539 9  -5533965.52046  23856487.959    23856487.8274   23856493.5234
        -0.000          -0.000
 -20636469.290 9 -16065574.68247  22010539.317    22010538.5024   22010543.7424
        -0.000          -0.000
 97  3  9  1 17 59.9980000  0  7 24  4  9  5 30  6 10               -0.001022822
 -30442519.302 9 -23694936.81949  20242933.049    20242932.8994   20242937.7634
        -0.000          -0.000
 -22996473.777 9 -17633824.89047  22354454.924    22354455.1624   22354459.3484
        -0.000          -0.000
 -19167607.968 9 -13501736.15147  22730521.226    22730521.0484   22730525.8704
        -0.000          -0.000
 -31131661.698 9 -24247283.00149  20107098.751    20107098.2954   20107102.5934
        -0.000          -0.000
 -17727919.829 9 -13788817.22447  21644176.639    21644176.9384   21644181.0554
        -0.000          -0.000
  -7204074.809 9  -5599388.27046  23840511.032    23840510.9284   23840516.6744
        -0.000          -0.000
 -20731951.747 9 -16139976.55947  21992369.576    21992368.8104   21992374.0874
        -0.000          -0.000
 97  3  9  1 18 29.9980000  0  7 24  4  9  5 30  6 10               -0.001032708
 -30424167.541 9 -23680636.73849  20246425.251    20246425.1324   20246429.9804
        -0.000          -0.000
 -22923157.435 9 -17576695.28647  22368406.709    22368406.9044   22368411.0464
        -0.000          -0.000
 -19101288.385 9 -13450058.56847  22743141.182    22743141.0824   22743146.2234
        -0.000          -0.000
 -31176745.910 9 -24282413.55449  20098519.523    20098519.0654   20098523.3324
        -0.000          -0.000
 -17825081.725 9 -13864527.76647  21625687.280    21625687.6084   21625691.7154
        -0.000          -0.000
  -7287996.696 9  -5664781.90046  23824541.254    23824541.0734   23824546.7684
        -0.000          -0.000
 -20827098.299 9 -16214116.69147  21974263.765    21974263.0044   21974268.3494
        -0.000          -0.000
 97  3  9  1 18 59.9980000  0  7 24  4  9  5 30  6 10               -0.001042608
 -30405457.896 9 -23666057.78849  20249985.605    20249985.4874   20249990.3104
        -0.000          -0.000
 -22849724.766 9 -17519475.03847  22382380.582    22382380.7504   22382384.7984
        -0.000          -0.000
 -19034767.422 9 -13398224.03347  22755799.714    22755799.5984   22755804.8234
        -0.000          -0.000
 -31221400.041 9 -24317208.97349  20090022.131    20090021.6574   20090025.9094
        -0.000          -0.000
 -17921981.354 9 -13940033.95047  21607247.980    21607248.2334   21607252.2734
        -0.000          -0.000
  -7371929.576 9  -5730184.10146  23808569.206    23808568.9914   23808574.7664
        -0.000          -0.000
 -20921975.003 9 -16288046.55847  21956209.299    21956208.5134   21956213.9294
        -0.000          -0.000
 97  3  9  1 19 29.9980000  0  7 24  4  9  5 30  6 10               -0.001052521
 -30386359.076 9 -23651175.58149  20253619.987    20253619.8614   20253624.6914
        -0.000          -0.000
 -22776141.681 9 -17462137.56547  22396382.964    22396383.1774   22396387.1614
        -0.000          -0.000
 -18968048.995 9 -13346235.64847  22768495.936    22768495.6894   22768500.9444
        -0.000          -0.000
 -31265599.207 9 -24351649.88049  20081611.352    20081610.8804   20081615.0744
        -0.000          -0.000
 -18018606.960 9 -14015326.61247  21588860.764    21588860.9924   21588864.9664
        -0.000          -0.000
  -7455870.628 9  -5795592.68046  23792595.509    23792595.3994   23792601.2854
        -0.000          -0.000
 -21016585.057 9 -16361768.65947  21938205.604    21938204.8274   21938210.2384
        -0.000          -0.000
 97  3  9  1 19 59.9980000  0  7 24  4  9  5 30  6 10               -0.001062436
 -30366860.773 9 -23635982.09149  20257330.359    20257330.2424   20257335.0964
        -0.000          -0.000
 -22702382.576 9 -17404662.96247  22410418.865    22410419.0304   22410423.1094
        -0.000          -0.000
 -18901140.087 9 -13294098.81947  22781228.117    22781227.9354   22781233.2924
        -0.000          -0.000
 -31309315.376 9 -24385714.42049  20073292.412    20073291.9294   20073296.1424
        -0.000          -0.000
 -18114921.797 9 -14090377.11747  21570532.680    21570532.8804   21570536.8194
        -0.000          -0.000
  -7539811.936 9  -5861001.44846  23776621.968    23776621.9584   23776627.6764
        -0.000          -0.000
 -21110900.843 9 -16435261.45747  21920257.893    21920257.0824   21920262.5284
        -0.000          -0.000
 97  3  9  1 20 29.9980000  0  7 24  4  9  5 30  6 10               -0.001072359
 -30346979.215 9 -23620489.95949  20261113.694    20261113.5834   20261118.4204
        -0.000          -0.000
 -22628446.018 9 -17347050.06747  22424488.471    22424488.6794   22424492.7254
        -0.000          -0.000
 -18834090.999 9 -13241852.78247  22793986.845    22793986.7724   22793992.3294
        -0.000          -0.000
 -31352561.391 9 -24419412.60249  20065062.924    20065062.4964   20065066.6994
        -0.000          -0.000
 -18210912.961 9 -14165175.41147  21552266.189    21552266.4064   21552270.2954
        -0.000          -0.000
  -7623766.741 9  -5926420.70646  23760645.978    23760645.8974   23760651.5724
        -0.000          -0.000
 -21204936.693 9 -16508536.11947  21902363.384    21902362.5604   21902368.0994
        -0.000          -0.000
 97  3  9  1 20 59.9980000  0  7 24  4  9  5 30  6 10               -0.001082287
 -30326683.400 9 -23604675.03049  20264975.850    20264975.7194   20264980.5694
        -0.000          -0.000
 -22554321.532 9 -17289290.72347  22438593.897    22438594.0954   22438598.1814
        -0.000          -0.000
 -18766907.869 9 -13189502.30647  22806771.427    22806771.3604   22806776.8234
        -0.000          -0.000
 -31395328.024 9 -24452737.24349  20056924.737    20056924.2704   20056928.4434
        -0.000          -0.000
 -18306572.690 9 -14239715.44347  21534062.797    21534062.9884   21534066.8354
        -0.000          -0.000
  -7707723.107 9  -5991841.19546  23744669.465    23744669.3484   23744675.2034
        -0.000          -0.000
 -21298674.483 9 -16581578.53747  21884525.576    21884524.7994   21884530.3594
        -0.000          -0.000
 97  3  9  1 21 29.9980000  0  7 24  4  9  5 30  6 10               -0.001092230
 -30305982.944 9 -23588544.79449  20268915.024    20268914.9224   20268919.7504
        -0.000          -0.000
 -22480040.108 9 -17231409.11447  22452729.110    22452729.2894   22452733.5544
        -0.000          -0.000
 -18699615.977 9 -13137067.09947  22819577.007    22819576.7954   22819581.9764
        -0.000          -0.000
 -31437639.333 9 -24485707.08549  20048873.156    20048872.6744   20048876.8494
        -0.000          -0.000
 -18401934.247 9 -14314023.12547  21515915.964    21515916.2114   21515920.1444
        -0.000          -0.000
  -7791694.070 9  -6057273.04046  23728690.222    23728690.1594   23728696.0534
        -0.000          -0.000
 -21392106.666 9 -16654382.80247  21866746.060    21866745.2674   21866750.7694
        -0.000          -0.000
 97  3  9  1 21 59.9980000  0  7 24  4  9  5 30  6 10               -0.001102168
 -30284848.084 9 -23572076.06549  20272936.850    20272936.7284   20272941.5894
        -0.000          -0.000
 -22405581.407 9 -17173389.36347  22466898.051    22466898.2594   22466902.5694
        -0.000          -0.000
 -18632181.183 9 -13084520.55347  22832409.611    22832409.2924   22832414.3154
        -0.000          -0.000
 -31479450.521 9 -24518287.22549  20040916.727    20040916.2524   20040920.4474
        -0.000          -0.000
 -18496944.149 9 -14388056.80647  21497836.225    21497836.4574   21497840.3034
        -0.000          -0.000
  -7875632.832 9  -6122679.77146  23712717.306    23712717.2174   23712723.0394
        -0.000          -0.000
 -21485184.156 9 -16726910.68147  21849034.038    21849033.2494   21849038.6614
        -0.000          -0.000
 97  3  9  1 22 29.9980000  0  7 24  4  9  5 30  6 10               -0.001112144
 -30263357.089 9 -23555329.82349  20277026.428    20277026.2974   20277031.1774
        -0.000          -0.000
 -22331027.552 9 -17115295.44247  22481085.293    22481085.5184   22481089.6214
        -0.000          -0.000
 -18564652.648 9 -13031900.95847  22845259.682    22845259.5264   22845264.4614
        -0.000          -0.000
 -31520817.828 9 -24550521.48849  20033044.802    20033044.3324   20033048.4824
        -0.000          -0.000
 -18591684.128 9 -14461880.14547  21479807.792    21479807.9884   21479811.8794
        -0.000          -0.000
  -7959590.327 9  -6188101.11346  23696740.831    23696740.6984   23696746.4374
        -0.000          -0.000
 -21577986.598 9 -16799224.23447  21831374.363    21831373.5344   21831378.8364
        -0.000          -0.000
 97  3  9  1 22 59.9980000  0  7 24  4  9  5 30  6 10               -0.001122126
 -30241480.560 9 -23538283.16849  20281189.358    20281189.2454   20281194.1584
        -0.000          -0.000
 -22256358.628 9 -17057111.87247  22495294.480    22495294.6714   22495298.7284
        -0.000          -0.000
 -18496955.157 9 -12979149.68847  22858141.879    22858141.8484   22858146.8774
        -0.000          -0.000
 -31561690.508 9 -24582370.32149  20025266.976    20025266.4774   20025270.6494
        -0.000          -0.000
 -18686124.720 9 -14535470.18947  21461836.284    21461836.4804   21461840.4624
        -0.000          -0.000
  -8043509.489 9  -6253492.59346  23680771.479    23680771.3634   23680776.9984
        -0.000          -0.000
 -21670453.696 9 -16871276.47947  21813778.472    21813777.6464   21813782.8804
        -0.000          -0.000
 97  3  9  1 23 29.9980000  0  7 24  4  9  5 30  6 10               -0.001132139
 -30219275.297 9 -23520980.35649  20285414.920    20285414.7804   20285419.6994
        -0.000          -0.000
 -22181623.595 9 -16998876.78047  22509516.208    22509516.3364   22509520.2874
        -0.000          -0.000
 -18429128.470 9 -12926297.74947  22871048.885    22871048.7934   22871053.9734
        -0.000          -0.000
 -31602113.900 9 -24613869.06249  20017574.601    20017574.1224   20017578.3074
        -0.000          -0.000
 -18780302.871 9 -14608855.74747  21443914.711    21443914.9474   21443918.9304
        -0.000          -0.000
  -8127438.036 9  -6318891.37246  23664800.334    23664800.2504   23664805.8644
        -0.000          -0.000
 -21762615.615 9 -16943090.92247  21796240.554    21796239.7284   21796244.9814
        -0.000          -0.000
 97  3  9  1 23 59.9980000  0  7 24  4  9  5 30  6 10               -0.001142152
 -30196728.683 9 -23503411.55949  20289705.357    20289705.2194   20289710.1884
        -0.000          -0.000
 -22106790.283 9 -16940565.09947  22523756.392    22523756.6284   22523760.5504
        -0.000          -0.000
 -18361140.803 9 -12873320.36447  22883986.719    22883986.5154   22883991.7974
        -0.000          -0.000
 -31642074.990 9 -24645007.56649  20009970.213    20009969.7764   20009973.9814
        -0.000          -0.000
 -18874195.023 9 -14682018.44347  21426047.666    21426047.8964   21426051.7924
        -0.000          -0.000
  -8211343.592 9  -6384272.26646  23648833.576    23648833.5344   23648839.0774
        -0.000          -0.000
 -21854457.907 9 -17014656.30447  21778763.460    21778762.6274   21778767.9314
        -0.000          -0.000
 97  3  9  1 24 29.9980000  0  7 24  4  9  5 30  6 10               -0.001152098
 -30173767.896 9 -23485520.02849  20294074.612    20294074.4854   20294079.4124
        -0.000          -0.000
 -22031772.538 9 -16882109.72747  22538031.810    22538031.9954   22538036.0144
        -0.000          -0.000
 -18292900.828 9 -12820146.36547  22896972.411    22896972.1464   22896977.5584
        -0.000          -0.000
 -31681506.666 9 -24675733.54249  20002466.647    20002466.1814   20002470.3714
        -0.000          -0.000
 -18967729.470 9 -14754902.40048  21408248.607    21408248.8384   21408252.7904
        -0.000          -0.000
  -8295147.356 9  -6449573.84246  23632886.184    23632886.1434   23632891.7454
        -0.000          -0.000
 -21945879.034 9 -17085893.51247  21761366.519    21761365.7104   21761370.9614
        -0.000          -0.000
 97  3  9  1 24 59.9980000  0  7 24  4  9  5 30  6 10               -0.001162009
 -30150419.273 9 -23467326.28849  20298517.705    20298517.5894   20298522.5144
        -0.000          -0.000
 -21956612.258 9 -16823543.27747  22552334.480    22552334.5644   22552338.6024
        -0.000          -0.000
 -18224477.361 9 -12766829.36847  22909992.813    22909992.6324   22909998.2604
        -0.000          -0.000
 -31720464.829 9 -24706090.54849  19995053.135    19995052.6734   19995056.8694
        -0.000          -0.000
 -19060943.837 9 -14827536.94348  21390510.512    21390510.7674   21390514.6764
        -0.000          -0.000
  -8378911.650 9  -6514844.64746  23616946.323    23616946.2684   23616951.9164
        -0.000          -0.000
 -22036905.170 9 -17156822.93247  21744044.776    21744043.9724   21744049.1774
        -0.000          -0.000
 97  3  9  1 25 29.9980000  0  7 24  4  9  5 30  6 10               -0.001171902
 -30126699.920 9 -23448843.66549  20303031.391    20303031.2444   20303036.1644
        -0.000          -0.000
 -21881311.135 9 -16764867.06547  22566663.863    22566663.9644   22566668.0364
        -0.000          -0.000
 -18155912.774 9 -12713402.40746  22923039.852    22923039.7914   22923045.6644
        -0.000          -0.000
 -31758955.239 9 -24736083.06949  19987728.663    19987728.2144   19987732.4074
        -0.000          -0.000
 -19153862.740 9 -14899941.25248  21372828.641    21372828.8694   21372832.7534
        -0.000          -0.000
  -8462663.339 9  -6580105.63446  23601008.878    23601008.7434   23601014.3854
        -0.000          -0.000
 -22127553.161 9 -17227457.69547  21726795.128    21726794.2934   21726799.4344
        -0.000          -0.000
 97  3  9  1 25 59.9980000  0  7 24  4  9  5 30  6 10               -0.001181793
 -30102640.324 9 -23430095.92049  20307609.761    20307609.6244   20307614.4854
        -0.000          -0.000
 -21805893.558 9 -16706100.14047  22581015.259    22581015.4484   22581019.6814
        -0.000          -0.000
 -18087222.469 9 -12659877.50846  22936110.929    22936110.9014   22936116.9974
        -0.000          -0.000
 -31796975.973 9 -24765709.61049  19980493.570    19980493.1034   19980497.3164
        -0.000          -0.000
 -19246502.747 9 -14972128.25048  21355199.830    21355200.0734   21355203.8974
        -0.000          -0.000
  -8546415.713 9  -6645367.16146  23585071.269    23585071.0454   23585076.7674
        -0.000          -0.000
 -22217842.264 9 -17297812.79947  21709613.674    21709612.8684   21709618.0534
        -0.000          -0.000
 97  3  9  1 26 29.9980000  0  7 24  4  9  5 30  6 10               -0.001191698
 -30078245.999 9 -23411087.34849  20312251.894    20312251.7614   20312256.6034
        -0.000          -0.000
 -21730376.873 9 -16647255.96547  22595385.394    22595385.5814   22595390.0844
        -0.000          -0.000
 -18018412.845 9 -12606259.63546  22949205.103    22949205.0354   22949210.8764
        -0.000          -0.000
 -31834507.067 9 -24794954.60849  19973351.634    19973351.1774   19973355.3974
        -0.000          -0.000
 -19338853.701 9 -15044090.00148  21337626.083    21337626.2694   21337630.0944
        -0.000          -0.000
  -8630181.662 9  -6710639.26646  23569130.923    23569130.7704   23569136.4884
        -0.000          -0.000
 -22307766.653 9 -17367883.72647  21692501.628    21692500.7944   21692506.1084
        -0.000          -0.000
 97  3  9  1 26 59.9980000  0  7 24  4  9  5 30  6 10               -0.001201624
 -30053492.692 9 -23391799.04749  20316962.345    20316962.1904   20316966.9994
        -0.000          -0.000
 -21654752.310 9 -16588327.75847  22609776.023    22609776.1984   22609780.9304
        -0.000          -0.000
 -17949476.699 9 -12552543.17147  22962323.634    22962323.4044   22962328.8514
        -0.000          -0.000
 -31871519.397 9 -24823795.37849  19966308.456    19966308.0024   19966312.2024
        -0.000          -0.000
 -19430896.113 9 -15115811.33448  21320110.996    21320111.2144   21320115.0434
        -0.000          -0.000
  -8713953.009 9  -6775915.57846  23553189.757    23553189.6164   23553195.3234
        -0.000          -0.000
 -22397325.124 9 -17437669.53047  21675459.067    21675458.2734   21675463.7094
        -0.000          -0.000
 97  3  9  1 27 29.9980000  0  7 24  4  9  5 30  6 10               -0.001211568
 -30028396.275 9 -23372243.39849  20321737.950    20321737.8044   20321742.6244
        -0.000          -0.000
 -21579030.190 9 -16529323.48947  22624185.448    22624185.6624   22624190.3074
        -0.000          -0.000
 -17880406.456 9 -12498722.21247  22975467.654    22975467.3744   22975472.3764
        -0.000          -0.000
 -31908018.247 9 -24852236.03049  19959362.983    19959362.4814   19959366.6744
        -0.000          -0.000
 -19522633.606 9 -15187295.07348  21302653.963    21302654.1404   21302657.9544
        -0.000          -0.000
  -8797728.856 9  -6841195.41646  23537247.784    23537247.6724   23537253.3064
        -0.000          -0.000
 -22486524.431 9 -17507175.46347  21658484.857    21658484.1234   21658489.5954
        -0.000          -0.000
 97  3  9  1 27 59.9980000  0  7 24  4  9  5 30  6 10               -0.001221536
 -30002952.615 9 -23352417.15949  20326579.778    20326579.6424   20326584.4374
        -0.000          -0.000
 -21503227.878 9 -16470256.76247  22638610.186    22638610.3964   22638614.9054
        -0.000          -0.000
 -17811210.169 9 -12444803.02447  22988635.543    22988635.2884   22988639.8624
        -0.000          -0.000
 -31944024.524 9 -24880292.85749  19952511.235    19952510.7344   19952514.9164
        -0.000          -0.000
 -19614053.459 9 -15258531.29548  21285257.237    21285257.4634   21285261.3314
        -0.000          -0.000
  -8881511.585 9  -6906480.62246  23521304.397    23521304.3494   23521309.9754
        -0.000          -0.000
 -22575379.196 9 -17576412.91747  21641576.422    21641575.6794   21641580.9974
        -0.000          -0.000
 97  3  9  1 28 29.9980000  0  7 24  4  9  5 30  6 10               -0.001231528
 -29977154.457 9 -23332314.69249  20331488.994    20331488.8234   20331493.6344
        -0.000          -0.000
 -21427338.216 9 -16411121.95747  22653051.641    22653051.8684   22653056.2084
        -0.000          -0.000
 -17741907.286 9 -12390800.77446  23001823.782    23001823.4984   23001827.6684
        -0.000          -0.000
 -31979555.038 9 -24907978.96649  19945750.002    19945749.5154   19945753.6914
        -0.000          -0.000
 -19705152.545 9 -15329517.57848  21267921.658    21267921.8644   21267925.7214
        -0.000          -0.000
  -8965308.854 9  -6971777.16146  23505358.256    23505358.1394   23505363.8094
        -0.000          -0.000
 -22663896.530 9 -17645387.43747  21624732.244    21624731.4104   21624736.6034
        -0.000          -0.000
 97  3  9  1 28 59.9980000  0  7 24  4  9  5 30  6 10               -0.001241533
 -29950997.106 9 -23311932.33649  20336466.534    20336466.3574   20336471.2184
        -0.000          -0.000
 -21351350.055 9 -16351910.40547  22667511.982    22667512.1574   22667516.2514
        -0.000          -0.000
 -17672503.861 9 -12336720.19446  23015030.959    23015030.7364   23015034.6324
        -0.000          -0.000
 -32014616.385 9 -24935299.49049  19939078.045    19939077.5644   19939081.7124
        -0.000          -0.000
 -19795932.278 9 -15400255.01248  21250646.831    21250647.0234   21250650.8984
        -0.000          -0.000
  -9049111.430 9  -7037077.80446  23489411.050    23489410.9704   23489416.7674
        -0.000          -0.000
 -22752082.188 9 -17714103.51247  21607951.025    21607950.1574   21607955.3734
        -0.000          -0.000
 97  3  9  1 29 29.9980000  0  7 24  4  9  5 30  6 10               -0.001251550
 -29924509.585 9 -23291292.70149  20341506.910    20341506.7684   20341511.6124
        -0.000          -0.000
 -21275269.704 9 -16292627.01547  22681989.826    22681989.9054   22681993.8164
        -0.000          -0.000
 -17603018.718 9 -12282575.94146  23028253.484    23028253.2134   23028257.3894
        -0.000          -0.000
 -32049229.054 9 -24962270.39549  19932491.481    19932490.9644   19932495.0944
        -0.000          -0.000
 -19886414.109 9 -15470760.32148  21233428.672    21233428.8934   21233432.7064
        -0.000          -0.000
  -9132924.108 9  -7102386.34246  23473462.050    23473461.9304   23473467.6614
        -0.000          -0.000
 -22839952.569 9 -17782573.91647  21591229.756    21591228.9044   21591234.2474
        -0.000          -0.000
 97  3  9  1 29 59.9980000  0  7 24  4  9  5 30  6 10               -0.001261568
 -29897687.712 9 -23270392.53049  20346610.995    20346610.8044   20346615.6244
        -0.000          -0.000
 -21199083.863 9 -16233261.42147  22696487.501    22696487.5994   22696491.4984
        -0.000          -0.000
 -17533437.946 9 -12228357.18646  23041494.115    23041493.8164   23041498.3464
        -0.000          -0.000
 -32083371.479 9 -24988874.87449  19925994.316    19925993.8224   19925998.0094
        -0.000          -0.000
 -19976570.253 9 -15541011.84948  21216272.596    21216272.7804   21216276.5954
        -0.000          -0.000
  -9216726.943 9  -7167687.19446  23457514.982    23457514.8704   23457520.3734
        -0.000          -0.000
 -22927499.819 9 -17850792.52547  21574570.040    21574569.1974   21574574.6164
        -0.000          -0.000
 97  3  9  1 30 29.9980000  0  7 24  4  9  5 30  6 10               -0.001271578
 -29870534.966 9 -23249234.54349  20351777.899    20351777.7284   20351782.5964
        -0.000          -0.000
 -21122787.315 9 -16173809.59247  22711006.144    22711006.2884   22711010.3514
        -0.000          -0.000
 -17463746.609 9 -12174052.27546  23054755.685    23054755.1964   23054760.3944
        -0.000          -0.000
 -32117038.543 9 -25015108.94249  19919587.689    19919587.2174   19919591.4234
        -0.000          -0.000
 -20066390.870 9 -15611001.91948  21199180.303    21199180.4534   21199184.3274
        -0.000          -0.000
  -9300513.652 9  -7232975.48746  23441570.862    23441570.7694   23441576.1404
        -0.000          -0.000
 -23014711.087 9 -17918749.32848  21557974.223    21557973.4264   21557978.8254
        -0.000          -0.000
 97  3  9  1 30 59.9980000  0  7 24  4  9  5 30  6 10               -0.001281578
 -29843051.538 9 -23227818.87249  20357007.852    20357007.7074   20357012.4754
        -0.000          -0.000
 -21046388.883 9 -16114278.36247  22725543.983    22725544.2134   22725548.5214
        -0.000          -0.000
 -17393936.707 9 -12119654.97446  23068039.756    23068039.1894   23068045.0654
        -0.000          -0.000
 -32150222.100 9 -25040966.24949  19913273.044    19913272.5484   19913276.7594
        -0.000          -0.000
 -20155886.335 9 -15680738.62848  21182149.888    21182150.0434   21182153.8834
        -0.000          -0.000
  -9384281.045 9  -7298248.71146  23425630.436    23425630.3044   23425635.7594
        -0.000          -0.000
 -23101572.129 9 -17986433.22248  21541445.160    21541444.3684   21541449.6384
        -0.000          -0.000
 97  3  9  1 31 29.9980000  0  7 24  4  9  5 30  6 10               -0.001291577
 -29815228.552 9 -23206138.61449  20362302.404    20362302.2024   20362306.9614
        -0.000          -0.000
 -20969902.381 9 -16054678.50347  22740098.733    22740099.0674   22740103.4884
        -0.000          -0.000
 -17324013.218 9 -12065169.13946  23081345.850    23081345.2874   23081351.1664
        -0.000          -0.000
 -32182912.462 9 -25066439.25249  19907052.230    19907051.7654   19907055.9784
        -0.000          -0.000
 -20245048.502 9 -15750215.63048  21165182.833    21165182.9894   21165186.7834
        -0.000          -0.000
  -9468032.183 9  -7363509.28246  23409692.993    23409692.9574   23409698.4554
        -0.000          -0.000
 -23188064.753 9 -18053830.03548  21524986.223    21524985.4234   21524990.5734
        -0.000          -0.000
 97  3  9  1 31 59.9980000  0  7 24  4  9  5 30  6 10               -0.001301593
 -29787052.699 9 -23184183.39448  20367664.065    20367663.9104   20367668.6364
        -0.000          -0.000
 -20893347.206 9 -15995025.13146  22754666.742    22754667.0224   22754671.4794
        -0.000          -0.000
 -17253993.466 9 -12010608.30846  23094670.462    23094669.9424   23094675.5004
        -0.000          -0.000
 -32215112.703 9 -25091530.35049  19900924.765    19900924.2974   19900928.4914
        -0.000          -0.000
 -20333867.033 9 -15819424.85148  21148281.171    21148281.3104   21148285.1744
        -0.000          -0.000
  -9551782.815 9  -7428769.46246  23393755.883    23393755.7804   23393761.1314
        -0.000          -0.000
 -23274186.361 9 -18120937.74948  21508597.825    21508597.0284   21508602.1624
        -0.000          -0.000
 97  3  9  1 32 29.9980000  0  7 24  4  9  5 30  6 10               -0.001311628
 -29758512.723 9 -23161944.44248  20373095.074    20373094.8904   20373099.6144
        -0.000          -0.000
 -20816712.832 9 -15935310.03946  22769249.960    22769250.0774   22769254.4574
        -0.000          -0.000
 -17183887.681 9 -11955980.43247  23108011.292    23108010.9164   23108016.0324
        -0.000          -0.000
 -32246806.969 9 -25116227.18049  19894893.622    19894893.1024   19894897.2474
        -0.000          -0.000
 -20422351.812 9 -15888374.00048  21131443.031    21131443.1764   21131447.1274
        -0.000          -0.000
  -9635539.944 9  -7494034.71446  23377817.420    23377817.3244   23377822.4304
        -0.000          -0.000
 -23359910.038 9 -18187735.38948  21492285.138    21492284.3514   21492289.4714
        -0.000          -0.000
 97  3  9  1 32 59.9980000  0  7 24  4  9  5 30  6 10               -0.001321701
 -29729627.242 9 -23139436.26948  20378591.811    20378591.6444   20378596.3274
        -0.000          -0.000
 -20740017.921 9 -15875547.75846  22783844.388    22783844.5924   22783848.9074
        -0.000          -0.000
 -17113722.331 9 -11901306.13347  23121363.401    23121363.1434   23121367.8734
        -0.000          -0.000
 -32277997.216 9 -25140531.27349  19888958.305    19888957.8214   19888961.9064
        -0.000          -0.000
 -20510521.330 9 -15957077.49948  21114664.923    21114665.0624   21114668.9854
        -0.000          -0.000
  -9719324.976 9  -7559321.69946  23361873.572    23361873.4624   23361878.6214
        -0.000          -0.000
 -23445238.146 9 -18254224.79748  21476047.719    21476046.8624   21476052.0714
        -0.000          -0.000
 97  3  9  1 33 29.9980000  0  7 24  4  9  5 30  6 10               -0.001331804
 -29700398.616 9 -23116660.70848  20384153.833    20384153.6444   20384158.3124
        -0.000          -0.000
 -20663255.495 9 -15815732.87346  22798451.794    22798452.0504   22798456.2874
        -0.000          -0.000
 -17043492.898 9 -11846581.90246  23134727.508    23134727.2824   23134731.9094
        -0.000          -0.000
 -32308681.611 9 -25164441.19049  19883119.370    19883118.8534   19883122.9094
        -0.000          -0.000
 -20598340.492 9 -16025507.98748  21097953.385    21097953.5514   21097957.5664
        -0.000          -0.000
  -9803131.841 9  -7624625.71946  23345925.576    23345925.4034   23345930.6674
        -0.000          -0.000
 -23530172.295 9 -18320407.22748  21459885.166    21459884.3424   21459889.6344
        -0.000          -0.000
 97  3  9  1 33 59.9980000  0  7 24  4  9  5 30  6 10               -0.001341925
 -29670858.020 9 -23093642.05548  20389775.228    20389775.0524   20389779.7094
        -0.000          -0.000
 -20586422.946 9 -15755863.35246  22813072.588    22813072.8784   22813077.1714
        -0.000          -0.000
 -16973195.199 9 -11791804.49746  23148104.530    23148104.3104   23148109.1694
        -0.000          -0.000
 -32338867.663 9 -25187962.79149  19877375.194    19877374.6404   19877378.6884
        -0.000          -0.000
 -20685801.583 9 -16093659.46048  21081310.123    21081310.2824   21081314.2864
        -0.000          -0.000
  -9886961.918 9  -7689947.83546  23329973.128    23329973.0154   23329978.3444
        -0.000          -0.000
 -23614706.409 9 -18386277.93848  21443798.755    21443797.9784   21443803.3914
        -0.000          -0.000
 97  3  9  1 34 29.9980000  0  7 24  4  9  5 30  6 10               -0.001352050
 -29641027.087 9 -23070397.16548  20395451.918    20395451.7234   20395456.3854
        -0.000          -0.000
 -20509516.767 9 -15695936.46146  22827707.611    22827707.7974   22827712.0204
        -0.000          -0.000
 -16902810.828 9 -11736959.56746  23161498.101    23161497.8794   23161502.9694
        -0.000          -0.000
 -32368545.161 9 -25211088.11349  19871727.698    19871727.1904   19871731.2624
        -0.000          -0.000
 -20772899.587 9 -16161528.01548  21064735.997    21064736.1074   21064740.0634
        -0.000          -0.000
  -9970801.490 9  -7755277.34846  23314019.010    23314018.9304   23314024.2644
        -0.000          -0.000
 -23698833.226 9 -18451831.28448  21427789.923    21427789.1704   21427794.5974
        -0.000          -0.000
 97  3  9  1 34 59.9980000  0  7 24  4  9  5 30  6 10               -0.001362187
 -29610920.841 9 -23046937.75048  20401180.941    20401180.7274   20401185.3874
        -0.000          -0.000
 -20432566.587 9 -15635975.27146  22842350.940    22842351.0294   22842355.1864
        -0.000          -0.000
 -16832343.100 9 -11682049.69146  23174907.681    23174907.4154   23174912.7394
        -0.000          -0.000
 -32397745.870 9 -25233841.91149  19866171.047    19866170.5264   19866174.6134
        -0.000          -0.000
 -20859627.245 9 -16229107.98748  21048232.258    21048232.3524   21048236.2894
        -0.000          -0.000
 -10054656.999 9  -7820619.25346  23298061.814    23298061.6674   23298067.1154
        -0.000          -0.000
 -23782580.288 9 -18517088.70148  21411853.459    21411852.6534   21411858.0184
        -0.000          -0.000
 97  3  9  1 35 29.9980000  0  7 24  4  9  5 30  6 10               -0.001372328
 -29580532.281 9 -23023258.34148  20406963.667    20406963.4634   20406968.1114
        -0.000          -0.000
 -20355569.356 9 -15575977.43446  22857003.140    22857003.0864   22857007.2354
        -0.000          -0.000
 -16761786.330 9 -11627070.41246  23188334.531    23188334.2204   23188339.5434
        -0.000          -0.000
 -32426465.530 9 -25256220.86249  19860705.856    19860705.3104   19860709.4264
        -0.000          -0.000
 -20945983.288 9 -16296398.38348  21031799.248    21031799.3684   21031803.2834
        -0.000          -0.000
 -10138515.266 9  -7885963.32146  23282104.191    23282103.9854   23282109.5394
        -0.000          -0.000
 -23865938.429 9 -18582043.07548  21395990.965    21395990.1144   21395995.4114
        -0.000          -0.000
 97  3  9  1 35 59.9980000  0  7 24  4  9  5 30  6 10               -0.001382470
 -29549843.729 9 -22999345.18348  20412803.446    20412803.2704   20412807.9744
        -0.000          -0.000
 -20278515.608 9 -15515935.55146  22871665.993    22871665.8854   22871670.0894
        -0.000          -0.000
 -16691140.408 9 -11572021.66146  23201778.281    23201777.9034   23201783.3074
        -0.000          -0.000
 -32454684.424 9 -25278209.60849  19855335.921    19855335.4074   19855339.5864
        -0.000          -0.000
 -21031986.119 9 -16363413.56248  21015433.474    21015433.6084   21015437.4444
        -0.000          -0.000
 -10222366.884 9  -7951302.19246  23266147.667    23266147.5224   23266153.1044
        -0.000          -0.000
 -23948889.667 9 -18646680.36948  21380205.858    21380205.0224   21380210.2754
        -0.000          -0.000
 97  3  9  1 36 29.9980000  0  7 24  4  9  5 30  6 10               -0.001392624
 -29518843.302 9 -22975188.99548  20418702.744    20418702.5364   20418707.1854
        -0.000          -0.000
 -20201406.276 9 -15455850.34046  22886339.177    22886339.1684   22886343.3374
        -0.000          -0.000
 -16620417.334 9 -11516912.77146  23215236.361    23215236.1764   23215241.4964
        -0.000          -0.000
 -32482399.019 9 -25299805.38749  19850062.000    19850061.4684   19850065.7044
        -0.000          -0.000
 -21117655.168 9 -16430168.64048  20999131.137    20999131.2544   20999135.1164
        -0.000          -0.000
 -10306214.568 9  -8016638.00346  23250191.951    23250191.7374   23250197.2364
        -0.000          -0.000
 -24031458.946 9 -18711020.03248  21364493.454    21364492.6104   21364497.8014
        -0.000          -0.000
 97  3  9  1 36 59.9980000  0  7 24  4  9  5 30  6 10               -0.001402782
 -29487508.604 9 -22950772.34648  20424665.502    20424665.2694   20424669.9964
        -0.000          -0.000
 -20124231.569 9 -15395714.19146  22901024.960    22901025.0514   22901029.0064
        -0.000          -0.000
 -16549618.437 9 -11461744.80446  23228708.875    23228708.6704   23228713.9144
        -0.000          -0.000
 -32509604.060 9 -25321004.11749  19844885.049    19844884.5224   19844888.7614
        -0.000          -0.000
 -21202982.869 9 -16496657.74348  20982893.796    20982893.9454   20982897.7494
        -0.000          -0.000
 -10390053.839 9  -8081967.26346  23234237.860    23234237.6524   23234243.0224
        -0.000          -0.000
 -24113627.930 9 -18775047.78048  21348857.261    21348856.4144   21348861.5624
        -0.000          -0.000
 97  3  9  1 37 29.9980000  0  7 24  4  9  5 30  6 10               -0.001412940
 -29455842.312 9 -22926097.30448  20430691.419    20430691.2164   20430695.9444
        -0.000          -0.000
 -20046970.910 9 -15335511.06846  22915727.027    22915727.1424   22915731.1344
        -0.000          -0.000
 -16478751.815 9 -11406524.08046  23242193.980    23242193.8154   23242199.0394
        -0.000          -0.000
 -32536275.795 9 -25341787.27649  19839809.547    19839809.0264   19839813.2954
        -0.000          -0.000
 -21287968.564 9 -16562880.34448  20966721.633    20966721.7604   20966725.4944
        -0.000          -0.000
 -10473873.737 9  -8147281.41146  23218287.476    23218287.2454   23218292.6294
        -0.000          -0.000
 -24195379.741 9 -18838750.46048  21333300.417    21333299.5344   21333304.7534
        -0.000          -0.000
 97  3  9  1 37 59.9980000  0  7 24  4  9  5 30  6 10               -0.001423101
 -29423860.738 9 -22901176.59548  20436777.396    20436777.1044   20436781.8434
        -0.000          -0.000
 -19969635.526 9 -15275249.74246  22930443.341    22930443.4944   22930447.5674
        -0.000          -0.000
 -16407830.625 9 -11351260.84246  23255689.486    23255689.3824   23255694.4284
        -0.000          -0.000
 -32562425.690 9 -25362163.81749  19834833.389    19834832.8714   19834837.1564
        -0.000          -0.000
 -21372598.799 9 -16628825.96848  20950617.044    20950617.1604   20950620.8824
        -0.000          -0.000
 -10557677.373 9  -8212582.88346  23202340.129    23202339.9254   23202345.2664
        -0.000          -0.000
 -24276729.532 9 -18902139.88348  21317820.007    21317819.1614   21317824.4314
        -0.000          -0.000
 97  3  9  1 38 29.9980000  0  7 24  4  9  5 30  6 10               -0.001433266
 -29391577.258 9 -22876020.62948  20442920.645    20442920.4214   20442925.1844
        -0.000          -0.000
 -19892238.889 9 -15214940.65446  22945171.365    22945171.4884   22945175.5804
        -0.000          -0.000
 -16336854.566 9 -11295954.82346  23269195.757    23269195.5814   23269200.4294
        -0.000          -0.000
 -32588060.485 9 -25382138.97949  19829955.318    19829954.7884   19829959.0054
        -0.000          -0.000
 -21456843.407 9 -16694471.10448  20934585.815    20934585.9384   20934589.6344
        -0.000          -0.000
 -10641460.120 9  -8277868.07946  23186396.873    23186396.6024   23186401.8994
        -0.000          -0.000
 -24357676.389 9 -18965215.33748  21302416.296    21302415.4654   21302420.7154
        -0.000          -0.000
 97  3  9  1 38 59.9980000  0  7 24  4  9  5 30  6 10               -0.001443427
 -29358976.103 9 -22850617.12848  20449124.464    20449124.2464   20449129.0244
        -0.000          -0.000
 -19814770.118 9 -15154575.36946  22959913.101    22959913.3124   22959917.4944
        -0.000          -0.000
 -16265818.177 9 -11240601.80346  23282713.461    23282713.2934   23282718.0144
        -0.000          -0.000
 -32613169.150 9 -25401704.17349  19825177.342    19825176.7864   19825180.9354
        -0.000          -0.000
 -21540671.260 9 -16759791.50048  20918633.924    20918634.0314   20918637.7134
        -0.000          -0.000
 -10725210.323 9  -8343127.92146  23170459.758    23170459.5244   23170464.7304
        -0.000          -0.000
 -24438179.315 9 -19027944.86548  21287097.134    21287096.3004   21287101.4474
        -0.000          -0.000
 97  3  9  1 39 29.9980000  0  7 24  4  9  5 30  6 10               -0.001453590
 -29326084.571 9 -22824987.35948  20455383.546    20455383.3134   20455388.0464
        -0.000          -0.000
 -19737239.965 9 -15094162.25546  22974666.844    22974666.9794   22974671.0674
        -0.000          -0.000
 -16194737.527 9 -11185214.28446  23296239.906    23296239.7084   23296244.3024
        -0.000          -0.000
 -32637763.938 9 -25420868.94849  19820497.148    19820496.5864   19820500.6924
        -0.000          -0.000
 -21624086.720 9 -16824790.54448  20902760.432    20902760.5704   20902764.2894
        -0.000          -0.000
 -10808942.551 9  -8408373.76646  23154526.029    23154525.7264   23154530.9454
        -0.000          -0.000
 -24518258.791 9 -19090344.43348  21271858.564    21271857.6794   21271862.7444
        -0.000          -0.000
 97  3  9  1 39 59.9980000  0  7 24  4  9  5 30  6 10               -0.001463758
 -29292898.924 9 -22799128.40248  20461698.589    20461698.3214   20461703.0694
        -0.000          -0.000
 -19659650.114 9 -15033702.62746  22989431.791    22989431.9474   22989436.1214
        -0.000          -0.000
 -16123607.692 9 -11129788.44046  23309775.748    23309775.5484   23309780.0524
        -0.000          -0.000
 -32661848.192 9 -25439635.89949  19815914.081    19815913.4894   19815917.5854
        -0.000          -0.000
 -21707086.916 9 -16889466.00948  20886966.064    20886966.1644   20886969.8434
        -0.000          -0.000
 -10892669.271 9  -8473615.32646  23138593.316    23138593.0664   23138598.1974
        -0.000          -0.000
 -24597914.155 9 -19152413.52548  21256700.608    21256699.7034   21256704.7884
        -0.000          -0.000
 97  3  9  1 40 29.9980000  0  7 24  4  9  5 30  6 10               -0.001473919
 -29259403.808 9 -22773028.31548  20468072.441    20468072.1994   20468077.0164
        -0.000          -0.000
 -19581970.100 9 -14973172.74746  23004213.915    23004214.1344   23004218.2314
        -0.000          -0.000
 -16052419.828 9 -11074317.39546  23323322.497    23323322.3494   23323326.9234
        -0.000          -0.000
 -32685408.770 9 -25457994.79849  19811430.662    19811430.0924   19811434.1204
        -0.000          -0.000
 -21789684.473 9 -16953827.72948  20871248.202    20871248.3354   20871251.9934
        -0.000          -0.000
 -10976399.909 9  -8538859.91146  23122659.783    23122659.4764   23122664.6054
        -0.000          -0.000
 -24677129.173 9 -19214139.49148  21241626.390    21241625.4994   21241630.6824
        -0.000          -0.000
 97  3  9  1 40 59.9980000  0  7 24  4  9  5 30  6 10               -0.001484062
 -29225595.959 9 -22746684.52748  20474505.873    20474505.6554   20474510.3264
        -0.000          -0.000
 -19504178.609 9 -14912556.01646  23019017.131    23019017.3264   23019021.5704
        -0.000          -0.000
 -15981175.269 9 -11018802.18246  23336880.174    23336879.9744   23336884.6744
        -0.000          -0.000
 -32708442.104 9 -25475942.85849  19807047.602    19807047.0274   19807051.0034
        -0.000          -0.000
 -21871891.775 9 -17017885.34948  20855604.658    20855604.8054   20855608.4374
        -0.000          -0.000
 -11060139.035 9  -8604111.14046  23106724.718    23106724.3774   23106729.4614
        -0.000          -0.000
 -24755892.833 9 -19275513.75148  21226638.060    21226637.1954   21226642.4604
        -0.000          -0.000
 97  3  9  1 41 29.9980000  0  7 24  4  9  5 30  6 10               -0.001494199
 -29191510.725 9 -22720124.59648  20480992.098    20480991.8644   20480996.5084
        -0.000          -0.000
 -19426300.221 9 -14851871.55746  23033836.812    23033837.0364   23033841.3014
        -0.000          -0.000
 -15909892.804 9 -10963257.42746  23350444.995    23350444.5644   23350449.5554
        -0.000          -0.000
 -32730957.865 9 -25493487.61349  19802763.000    19802762.4234   19802766.3924
        -0.000          -0.000
 -21953725.717 9 -17081652.03648  20840032.161    20840032.3164   20840035.9314
        -0.000          -0.000
 -11143892.568 9  -8669373.56446  23090786.916    23090786.5224   23090791.6254
        -0.000          -0.000
 -24834238.028 9 -19336561.93148  21211729.469    21211728.6064   21211733.8644
        -0.000          -0.000
 97  3  9  1 41 59.9980000  0  7 24  4  9  5 30  6 10               -0.001504342
 -29157146.001 9 -22693346.88948  20487531.491    20487531.2474   20487535.9554
        -0.000          -0.000
 -19348353.168 9 -14791133.60446  23048669.583    23048669.8884   23048674.2774
        -0.000          -0.000
 -15838591.302 9 -10907697.84046  23364013.048    23364012.5514   23364018.0034
        -0.000          -0.000
 -32752957.598 9 -25510630.26449  19798576.623    19798576.0314   19798580.0044
        -0.000          -0.000
 -22035201.148 9 -17145139.36348  20824527.878    20824528.0194   20824531.6534
        -0.000          -0.000
 -11227659.948 9  -8734646.78446  23074846.322    23074845.9674   23074851.1844
        -0.000          -0.000
 -24912163.170 9 -19397282.79548  21196900.849    21196899.9914   21196905.1984
        -0.000          -0.000
 97  3  9  1 42 29.9980000  0  7 24  4  9  5 30  6 10               -0.001514476
 -29122486.878 9 -22666339.77148  20494126.857    20494126.6314   20494131.3474
        -0.000          -0.000
 -19270332.401 9 -14730338.19446  23063516.455    23063516.6404   23063521.1484
        -0.000          -0.000
 -15767247.752 9 -10852105.49146  23377588.909    23377588.3234   23377594.3674
        -0.000          -0.000
 -32774416.558 9 -25527351.53349  19794493.115    19794492.5184   19794496.5204
        -0.000          -0.000
 -22116285.424 9 -17208321.89648  20809098.047    20809098.1714   20809101.8064
        -0.000          -0.000
 -11311402.279 9  -8799900.50946  23058910.561    23058910.2594   23058915.4904
        -0.000          -0.000
 -24989634.014 9 -19457649.65548  21182158.643    21182157.7674   21182162.9174
        -0.000          -0.000
 97  3  9  1 42 59.9980000  0  7 24  4  9  5 30  6 10               -0.001524634
 -29087567.468 9 -22639129.83548  20500771.809    20500771.5814   20500776.3064
        -0.000          -0.000
 -19192304.564 9 -14669537.26246  23078364.642    23078364.7514   23078369.2614
        -0.000          -0.000
 -15695888.970 9 -10796501.27946  23391167.992    23391167.2724   23391173.4024
        -0.000          -0.000
 -32795350.714 9 -25543663.86049  19790509.456    19790508.8664   19790512.8984
        -0.000          -0.000
 -22196972.779 9 -17271195.13748  20793743.744    20793743.9114   20793747.5344
        -0.000          -0.000
 -11395126.886 9  -8865140.42646  23042978.380    23042978.0784   23042983.2484
        -0.000          -0.000
 -25066672.393 9 -19517679.53048  21167498.794    21167497.8864   21167503.0084
        -0.000          -0.000
 97  3  9  1 43 29.9980000  0  7 24  4  9  5 30  6 10               -0.001534812
 -29052356.621 9 -22611692.81048  20507472.200    20507471.9534   20507476.7474
        -0.000          -0.000
 -19114273.464 9 -14608733.79746  23093213.408    23093213.4214   23093218.1494
        -0.000          -0.000
 -15624482.458 9 -10740859.85546  23404756.374    23404755.4954   23404761.5184
        -0.000          -0.000
 -32815729.306 9 -25559543.28049  19786631.535    19786630.9504   19786634.9934
        -0.000          -0.000
 -22277232.142 9 -17333734.88548  20778470.947    20778471.0544   20778474.6924
        -0.000          -0.000
 -11478805.445 9  -8930344.45746  23027054.825    23027054.4924   23027059.7914
        -0.000          -0.000
 -25143260.725 9 -19577358.71848  21152924.496    21152923.5764   21152928.7084
        -0.000          -0.000
 97  3  9  1 43 59.9980000  0  7 24  4  9  5 30  6 10               -0.001545007
 -29016842.115 9 -22584019.16348  20514230.375    20514230.1444   20514234.9734
        -0.000          -0.000
 -19036241.453 9 -14547929.61846  23108062.329    23108062.3224   23108067.1404
        -0.000          -0.000
 -15553019.793 9 -10685174.64146  23418355.642    23418354.6304   23418360.2654
        -0.000          -0.000
 -32835566.180 9 -25575000.57849  19782856.689    19782856.0944   19782860.1784
        -0.000          -0.000
 -22357070.625 9 -17395946.67448  20763278.229    20763278.3414   20763281.9284
        -0.000          -0.000
 -11562460.922 9  -8995530.51346  23011135.703    23011135.4124   23011140.6984
        -0.000          -0.000
 -25219388.196 9 -19636678.80048  21138437.857    21138436.9654   21138442.0904
        -0.000          -0.000
 97  3  9  1 44 29.9980000  0  7 24  4  9  5 30  6 10               -0.001555222
 -28981042.297 9 -22556123.19048  20521042.917    20521042.6674   20521047.3924
        -0.000          -0.000
 -18958218.477 9 -14487132.49046  23122909.603    23122909.6534   23122914.4154
        -0.000          -0.000
 -15481500.673 9 -10629445.46646  23431965.296    23431964.4984   23431969.6974
        -0.000          -0.000
 -32854873.847 9 -25590045.50649  19779182.510    19779181.9374   19779186.0914
        -0.000          -0.000
 -22436496.109 9 -17457836.64248  20748164.054    20748164.1254   20748167.7364
        -0.000          -0.000
 -11646116.767 9  -9060716.85246  22995216.480    22995216.2634   22995221.4914
        -0.000          -0.000
 -25295072.658 9 -19695653.67448  21124035.594    21124034.6554   21124039.8164
        -0.000          -0.000
 97  3  9  1 44 59.9980000  0  7 24  4  9  5 30  6 10               -0.001565461
 -28944953.477 9 -22528002.01548  20527910.421    20527910.1344   20527914.8074
        -0.000          -0.000
 -18880201.718 9 -14426340.21746  23137755.852    23137755.7754   23137760.4894
        -0.000          -0.000
 -15409941.342 9 -10573684.95646  23445582.460    23445581.9814   23445586.7854
        -0.000          -0.000
 -32873659.237 9 -25604683.46949  19775607.825    19775607.2224   19775611.3764
        -0.000          -0.000
 -22515528.560 9 -17519420.35748  20733124.712    20733124.7564   20733128.2894
        -0.000          -0.000
 -11729783.050 9  -9125911.33646  22979295.402    22979295.1854   22979300.2934
        -0.000          -0.000
 -25370332.799 9 -19754297.91348  21109714.021    21109713.1204   21109718.2854
        -0.000          -0.000
 97  3  9  1 45 29.9980000  0  7 24  4  9  5 30  6 10               -0.001575693
 -28908555.721 9 -22499640.13148  20534836.647    20534836.3894   20534841.1104
        -0.000          -0.000
 -18802141.531 9 -14365514.09346  23152610.271    23152610.2514   23152614.8214
        -0.000          -0.000
 -15338328.155 9 -10517882.48546  23459209.917    23459209.7274   23459214.3524
        -0.000          -0.000
 -32891921.037 9 -25618913.44449  19772132.747    19772132.1184   19772136.2794
        -0.000          -0.000
 -22594170.736 9 -17580699.95748  20718159.549    20718159.6074   20718163.1954
        -0.000          -0.000
 -11813447.826 9  -9191104.62447  22963374.552    22963374.3274   22963379.3934
        -0.000          -0.000
 -25445156.453 9 -19812602.03948  21095475.501    21095474.6174   21095479.7464
        -0.000          -0.000
 97  3  9  1 45 59.9980000  0  7 24  4  9  5 30  6 10               -0.001585913
 -28871873.248 9 -22471056.37048  20541817.161    20541816.8964   20541821.5304
        -0.000          -0.000
 -18724035.236 9 -14304652.01246  23167473.794    23167473.6614   23167477.9194
        -0.000          -0.000
 -15266679.486 9 -10462052.36546  23472844.370    23472844.2784   23472848.8384
        -0.000          -0.000
 -32909677.341 9 -25632749.51649  19768753.799    19768753.1774   19768757.3524
        -0.000          -0.000
 -22672429.980 9 -17641681.16848  20703267.280    20703267.3764   20703270.9784
        -0.000          -0.000
 -11897115.996 9  -9256300.55247  22947453.102    22947452.8594   22947457.8834
        -0.000          -0.000
 -25519554.489 9 -19870574.50948  21081317.990    21081317.1284   21081322.2104
        -0.000          -0.000
 97  3  9  1 46 29.9980000  0  7 24  4  9  5 30  6 10               -0.001596116
 -28834900.016 9 -22442246.05248  20548852.919    20548852.6354   20548857.2734
        -0.000          -0.000
 -18645869.069 9 -14243743.29246  23182348.260    23182348.1254   23182352.2984
        -0.000          -0.000
 -15194995.634 9 -10406194.85746  23486485.502    23486485.4054   23486490.0054
        -0.000          -0.000
 -32926913.188 9 -25646180.04349  19765473.966    19765473.3674   19765477.5014
        -0.000          -0.000
 -22750282.272 9 -17702345.27848  20688452.472    20688452.5324   20688456.1274
        -0.000          -0.000
 -11980763.929 9  -9321480.74047  22931535.479    22931535.2294   22931540.1454
        -0.000          -0.000
 -25593513.170 9 -19928204.62448  21067244.162    21067243.2914   21067248.2584
        -0.000          -0.000
 97  3  9  1 46 59.9980000  0  7 24  4  9  5 30  6 10               -0.001606306
 -28797644.652 9 -22413215.89148  20555942.300    20555942.0484   20555946.7204
        -0.000          -0.000
 -18567646.525 9 -14182790.62746  23197233.614    23197233.5494   23197237.5304
        -0.000          -0.000
 -15123302.843 9 -10350330.37946  23500128.135    23500128.0014   23500132.8184
        -0.000          -0.000
 -32943643.671 9 -25659216.78249  19762290.254    19762289.6624   19762293.7784
        -0.000          -0.000
 -22827720.870 9 -17762687.02848  20673716.368    20673716.4144   20673720.0574
        -0.000          -0.000
 -12064393.295 9  -9386646.44047  22915621.227    22915621.0064   22915625.9404
        -0.000          -0.000
 -25667023.429 9 -19985485.31348  21053255.705    21053254.7554   21053259.7074
        -0.000          -0.000
 97  3  9  1 47 29.9980000  0  7 24  4  9  5 30  6 10               -0.001616482
 -28760109.049 9 -22383967.35648  20563085.092    20563084.8234   20563089.4904
        -0.000          -0.000
 -18489367.677 9 -14121794.11446  23212129.555    23212129.4374   23212133.6084
        -0.000          -0.000
 -15051603.238 9 -10294460.57946  23513771.862    23513771.7064   23513776.9364
        -0.000          -0.000
 -32959864.297 9 -25671856.23849  19759203.580    19759202.9884   19759207.0654
        -0.000          -0.000
 -22904730.093 9 -17822694.19848  20659061.937    20659062.0594   20659065.7104
        -0.000          -0.000
 -12148002.529 9  -9451796.44347  22899710.977    22899710.7204   22899715.5854
        -0.000          -0.000
 -25740060.282 9 -20042397.12648  21039357.191    21039356.2674   21039361.2464
        -0.000          -0.000
 97  3  9  1 47 59.9980000  0  7 24  4  9  5 30  6 10               -0.001626650
 -28722277.931 9 -22354488.55648  20570284.140    20570283.8594   20570288.4774
        -0.000          -0.000
 -18411026.103 9 -14060748.75046  23227037.142    23227037.1774   23227041.6664
        -0.000          -0.000
 -14979903.407 9 -10238590.63046  23527415.661    23527415.4104   23527420.8984
        -0.000          -0.000
 -32975548.979 9 -25684078.07149  19756218.881    19756218.2954   19756222.3684
        -0.000          -0.000
 -22981284.012 9 -17882346.58948  20644494.204    20644494.3144   20644497.9174
        -0.000          -0.000
 -12231580.625 9  -9516922.20847  22883806.603    22883806.3014   22883811.1194
        -0.000          -0.000
 -25812582.806 9 -20098908.16148  21025556.613    21025555.6914   21025560.6864
        -0.000          -0.000
 97  3  9  1 48 29.9980000  0  7 24  4  9  5 30  6 10               -0.001636829
 -28684169.734 9 -22324793.84848  20577535.841    20577535.5594   20577540.1844
        -0.000          -0.000
 -18332644.021 9 -13999671.78646  23241952.707    23241952.7114   23241957.2454
        -0.000          -0.000
 -14908240.071 9 -10182749.07046  23541052.766    23541052.3594   23541057.5884
        -0.000          -0.000
 -32990711.759 9 -25695893.22449  19753333.475    19753332.8624   19753336.9774
        -0.000          -0.000
 -23057407.822 9 -17941663.82648  20630008.278    20630008.3924   20630012.0174
        -0.000          -0.000
 -12315158.311 9  -9582047.64947  22867902.237    22867901.9614   22867906.7724
        -0.000          -0.000
 -25884601.438 9 -20155026.54748  21011851.908    21011850.9984   21011855.9634
        -0.000          -0.000
 97  3  9  1 48 59.9980000  0  7 24  4  9  5 30  6 10               -0.001647028
 -28645798.966 9 -22294894.54148  20584837.506    20584837.2444   20584841.8314
        -0.000          -0.000
 -18254240.217 9 -13938577.89046  23256872.385    23256872.4324   23256876.8304
        -0.000          -0.000
 -14836622.923 9 -10126943.50045  23554681.444    23554680.4644   23554685.4714
        -0.000          -0.000
 -33005347.540 9 -25707297.72749  19750548.378    19750547.7504   19750551.8614
        -0.000          -0.000
 -23133112.108 9 -18000654.16048  20615602.277    20615602.3754   20615605.9974
        -0.000          -0.000
 -12398730.288 9  -9647168.64447  22851998.968    22851998.7014   22852003.5424
        -0.000          -0.000
 -25956123.003 9 -20210757.61248  20998241.808    20998240.8804   20998245.8474
        -0.000          -0.000
 97  3  9  1 49 29.9980000  0  7 24  4  9  5 30  6 10               -0.001657243
 -28607170.675 9 -22264794.56148  20592188.253    20592187.9754   20592192.5504
        -0.000          -0.000
 -18175815.345 9 -13877467.58946  23271796.009    23271796.2114   23271800.5454
        -0.000          -0.000
 -14765034.978 9 -10071160.70045  23568304.389    23568303.0844   23568308.0324
        -0.000          -0.000
 -33019445.262 9 -25718282.96849  19747865.612    19747865.0174   19747869.1524
        -0.000          -0.000
 -23208395.826 9 -18059316.77948  20601276.259    20601276.3334   20601279.9754
        -0.000          -0.000
 -12482290.477 9  -9712280.45546  22836097.956    22836097.6294   22836102.4774
        -0.000          -0.000
 -26027155.904 9 -20266107.89848  20984724.643    20984723.7384   20984728.7144
        -0.000          -0.000
 97  3  9  1 49 59.9980000  0  7 24  4  9  5 30  6 10               -0.001667468
 -28568287.926 9 -22234496.31748  20599587.326    20599587.0534   20599591.7384
        -0.000          -0.000
 -18097363.652 9 -13816336.42046  23286724.768    23286724.9564   23286729.3624
        -0.000          -0.000
 -14693462.225 9 -10015389.74045  23581923.984    23581922.8354   23581927.7004
        -0.000          -0.000
 -33032989.497 9 -25728836.92049  19745288.262    19745287.6424   19745291.7894
        -0.000          -0.000
 -23283248.647 9 -18117643.64648  20587032.240    20587032.3544   20587035.9084
        -0.000          -0.000
 -12565835.849 9  -9777380.70846  22820199.654    22820199.3554   22820204.2294
        -0.000          -0.000
 -26097705.987 9 -20321081.96448  20971299.380    20971298.4724   20971303.4844
        -0.000          -0.000
 97  3  9  1 50 29.9980000  0  7 24  4  9  5 30  6 10               -0.001677709
 -28529170.894 9 -22204015.50648  20607031.104    20607030.8094   20607035.4454
        -0.000          -0.000
 -18018916.685 9 -13755208.90746  23301652.836    23301652.9414   23301657.3244
        -0.000          -0.000
 -14621887.756 9  -9959617.45546  23595544.088    23595543.0554   23595547.9784
        -0.000          -0.000
 -33045974.492 9 -25738955.10249  19742817.279    19742816.6824   19742820.8624
        -0.000          -0.000
 -23357668.940 9 -18175633.47048  20572870.565    20572870.6484   20572874.1954
        -0.000          -0.000
 -12649367.581 9  -9842470.35546  22804303.971    22804303.7094   22804308.5934
        -0.000          -0.000
 -26167792.891 9 -20375695.11348  20957962.206    20957961.3054   20957966.3614
        -0.000          -0.000
 97  3  9  1 50 59.9980000  0  7 24  4  9  5 30  6 10               -0.001687960
 -28489825.249 9 -22173356.55848  20614518.351    20614518.0364   20614522.6704
        -0.000          -0.000
 -17940473.681 9 -13694084.46546  23316580.229    23316580.1484   23316584.4814
        -0.000          -0.000
 -14550300.787 9  -9903835.42946  23609166.788    23609165.9234   23609170.8544
        -0.000          -0.000
 -33058395.100 9 -25748633.49749  19740453.718    19740453.1194   19740457.2974
        -0.000          -0.000
 -23431641.952 9 -18233274.75648  20558793.951    20558794.0534   20558797.6254
        -0.000          -0.000
 -12732885.237 9  -9907549.01046  22788411.086    22788410.7524   22788415.7304
        -0.000          -0.000
 -26237407.702 9 -20429940.39648  20944714.980    20944714.0564   20944719.0914
        -0.000          -0.000
 97  3  9  1 51 29.9980000  0  7 24  4  9  5 30  6 10               -0.001698206
 -28450220.513 9 -22142495.72048  20622054.880    20622054.5994   20622059.2164
        -0.000          -0.000
 -17862002.211 9 -13632937.83146  23331512.898    23331512.8404   23331517.0874
        -0.000          -0.000
 -14478682.923 9  -9848029.30146  23622795.630    23622794.8984   23622799.5674
        -0.000          -0.000
 -33070236.413 9 -25757860.49949  19738200.429    19738199.8194   19738203.9824
        -0.000          -0.000
 -23505140.787 9 -18290546.56748  20544807.628    20544807.6954   20544811.1854
        -0.000          -0.000
 -12816383.351 9  -9972612.44446  22772521.866    22772521.5124   22772526.5294
        -0.000          -0.000
 -26306526.091 9 -20483798.85448  20931562.182    20931561.2524   20931566.2494
        -0.000          -0.000
 97  3  9  1 51 59.9980000  0  7 24  4  9  5 30  6 10               -0.001708452
 -28410344.428 9 -22111423.43948  20629643.112    20629642.7864   20629647.3984
        -0.000          -0.000
 -17783507.817 9 -13571773.36846  23346449.798    23346449.8094   23346454.2334
        -0.000          -0.000
 -14407041.130 9  -9792204.56446  23636428.879    23636428.2114   23636432.9134
        -0.000          -0.000
 -33081499.786 9 -25766637.15549  19736057.107    19736056.5024   19736060.6474
        -0.000          -0.000
 -23578158.836 9 -18347443.72848  20530912.757    20530912.8254   20530916.3514
        -0.000          -0.000
 -12899864.420 9 -10037662.58046  22756635.856    22756635.5294   22756640.5874
        -0.000          -0.000
 -26375133.092 9 -20537258.82648  20918506.730    20918505.8004   20918510.7704
        -0.000          -0.000
 97  3  9  1 52 29.9980000  0  7 24  4  9  5 30  6 10               -0.001718692
 -28370192.648 9 -22080136.34348  20637283.738    20637283.4364   20637288.0254
        -0.000          -0.000
 -17704990.900 9 -13510591.35746  23361391.059    23361391.1064   23361395.6734
        -0.000          -0.000
 -14335380.909 9  -9736365.47346  23650065.432    23650064.9404   23650069.5674
        -0.000          -0.000
 -33092209.112 9 -25774982.09249  19734019.207    19734018.6134   19734022.7444
        -0.000          -0.000
 -23650702.378 9 -18403971.14448  20517108.095    20517108.1724   20517111.7844
        -0.000          -0.000
 -12983329.580 9 -10102700.32146  22740752.876    22740752.6354   22740757.5784
        -0.000          -0.000
 -26443234.937 9 -20590325.17748  20905547.407    20905546.4814   20905551.3664
        -0.000          -0.000
 97  3  9  1 52 59.9980000  0  7 24  4  9  5 30  6 10               -0.001728911
 -28329754.277 9 -22048625.91448  20644978.995    20644978.6784   20644983.2274
        -0.000          -0.000
 -17626420.742 9 -13449367.85746  23376342.530    23376342.6144   23376347.2734
        -0.000          -0.000
 -14263718.272 9  -9680524.49746  23663702.372    23663702.0004   23663706.6334
        -0.000          -0.000
 -33102391.229 9 -25782916.20549  19732081.614    19732081.0154   19732085.1394
        -0.000          -0.000
 -23722784.385 9 -18460138.92248  20503391.350    20503391.4084   20503395.0154
        -0.000          -0.000
 -13066778.869 9 -10167725.67446  22724873.020    22724872.7184   22724877.6914
        -0.000          -0.000
 -26510844.946 9 -20643008.27548  20892681.662    20892680.7284   20892685.5724
        -0.000          -0.000
 97  3  9  1 53 29.9980000  0  7 24  4  9  5 30  6 10               -0.001739110
 -28289032.945 9 -22016895.00348  20652728.036    20652727.7144   20652732.2204
        -0.000          -0.000
 -17547814.076 9 -13388115.90446  23391300.995    23391301.0694   23391305.6884
        -0.000          -0.000
 -14192060.652 9  -9624687.40646  23677338.074    23677337.8614   23677342.6714
        -0.000          -0.000
 -33112067.878 9 -25790456.45449  19730240.213    19730239.6394   19730243.6934
        -0.000          -0.000
 -23794417.433 9 -18515956.86148  20489760.048    20489760.1044   20489763.7044
        -0.000          -0.000
 -13150211.770 9 -10232738.26546  22708996.395    22708996.0794   22709001.0234
        -0.000          -0.000
 -26577984.640 9 -20695324.89148  20879905.376    20879904.4134   20879909.3164
        -0.000          -0.000
 97  3  9  1 53 59.9980000  0  7 24  4  9  5 30  6 10               -0.001749312
 -28248079.249 9 -21984983.03048  20660521.264    20660520.9494   20660525.4524
        -0.000          -0.000
 -17469220.999 9 -13326874.52246  23406256.870    23406256.8664   23406261.3914
        -0.000          -0.000
 -14120432.606 8  -9568873.35546  23690967.902    23690968.0144   23690973.2014
        -0.000          -0.000
 -33121270.808 9 -25797627.57649  19728488.988    19728488.3824   19728492.4464
        -0.000          -0.000
 -23865639.835 9 -18571454.82348  20476206.914    20476206.9374   20476210.5104
        -0.000          -0.000
 -13233657.599 9 -10297760.92446  22693117.091    22693116.8024   22693121.8234
        -0.000          -0.000
 -26644688.857 9 -20747302.18548  20867211.926    20867210.9714   20867215.8554
        -0.000          -0.000
 97  3  9  1 54 29.9980000  0  7 24  4  9  5 30  6 10               -0.001759526
 -28206916.984 9 -21952908.53648  20668354.155    20668353.8464   20668358.3794
        -0.000          -0.000
 -17390659.264 9 -13265657.56046  23421206.749    23421206.6864   23421210.8824
        -0.000          -0.000
 -14048848.325 8  -9513093.39046  23704589.172    23704589.6064   23704595.3854
        -0.000          -0.000
 -33130000.424 9 -25804429.87849  19726827.761    19726827.1524   19726831.2444
        -0.000          -0.000
 -23936462.696 9 -18626641.45148  20462729.772    20462729.7774   20462733.3134
        -0.000          -0.000
 -13317123.772 9 -10362799.45047  22677234.073    22677233.7374   22677238.7024
        -0.000          -0.000
 -26710969.245 9 -20798949.22348  20854599.115    20854598.2024   20854603.0194
        -0.000          -0.000
 97  3  9  1 54 59.9980000  0  7 24  4  9  5 30  6 10               -0.001769742
 -28165515.734 9 -21920647.81848  20676232.524    20676232.2224   20676236.7494
        -0.000          -0.000
 -17312106.646 9 -13204447.69646  23436154.869    23436154.7774   23436158.7624
        -0.000          -0.000
 -13977280.903 8  -9457326.55745  23718206.775    23718207.5684   23718214.4574
        -0.000          -0.000
 -33138200.468 9 -25810819.52749  19725267.347    19725266.7324   19725270.8004
        -0.000          -0.000
 -24006841.955 9 -18681482.41948  20449336.991    20449337.0294   20449340.5474
        -0.000          -0.000
 -13400575.413 9 -10427826.63647  22661353.769    22661353.4224   22661358.4314
        -0.000          -0.000
 -26776769.565 9 -20850222.17748  20842077.779    20842076.8604   20842081.6194
        -0.000          -0.000
 97  3  9  1 55 29.9980000  0  7 24  4  9  5 30  6 10               -0.001779957
 -28123851.907 9 -21888182.48848  20684160.893    20684160.5544   20684165.0744
        -0.000          -0.000
 -17233561.540 9 -13143243.69946  23451101.530    23451101.4104   23451105.3044
        -0.000          -0.000
 -13905708.690 8  -9401555.94645  23731825.867    23731826.7294   23731834.2504
        -0.000          -0.000
 -33145820.995 9 -25816757.60449  19723817.211    19723816.5864   19723820.6154
        -0.000          -0.000
 -24076736.951 9 -18735946.04348  20436036.418    20436036.4464   20436039.9394
        -0.000          -0.000
 -13483990.453 9 -10492825.33047  22645480.351    22645479.9914   22645484.9554
        -0.000          -0.000
 -26842034.442 9 -20901077.90548  20829658.314    20829657.3384   20829662.1154
        -0.000          -0.000
 97  3  9  1 55 59.9980000  0  7 24  4  9  5 30  6 10               -0.001790202
 -28081964.244 9 -21855542.74448  20692131.816    20692131.4864   20692136.0574
        -0.000          -0.000
 -17155057.016 9 -13082071.30246  23466040.369    23466040.2984   23466044.1184
        -0.000          -0.000
 -13834185.457 8  -9345823.56145  23745436.596    23745437.0064   23745444.8844
        -0.000          -0.000
 -33152878.313 9 -25822256.81449  19722474.220    19722473.5864   19722477.6424
        -0.000          -0.000
 -24146180.872 9 -18790058.17648  20422821.655    20422821.6854   20422825.2024
        -0.000          -0.000
 -13567406.383 9 -10557824.70247  22629606.776    22629606.4304   22629611.4254
        -0.000          -0.000
 -26906783.494 9 -20951531.69348  20817336.923    20817335.9884   20817340.7764
        -0.000          -0.000
 97  3  9  1 56 29.9980000  0  7 24  4  9  5 30  6 10               -0.001800456
 -28039812.784 9 -21822697.44948  20700152.945    20700152.6134   20700157.2644
        -0.000          -0.000
 -17076544.002 9 -13020892.30545  23480980.742    23480980.7864   23480984.5084
        -0.000          -0.000
 -13762689.857 8  -9290112.73345  23759042.218    23759042.3364   23759050.1414
        -0.000          -0.000
 -33159341.203 9 -25827292.83549  19721244.392    19721243.7674   19721247.8214
        -0.000          -0.000
 -24215135.418 9 -18843788.97948  20409700.005    20409700.0294   20409703.6114
        -0.000          -0.000
 -13650791.916 9 -10622800.38147  22613738.969    22613738.6744   22613743.6164
        -0.000          -0.000
 -26970982.821 9 -21001557.12248  20805120.200    20805119.2364   20805124.0244
        -0.000          -0.000
 97  3  9  1 56 59.9980000  0  7 24  4  9  5 30  6 10               -0.001810709
 -27997406.743 9 -21789653.78048  20708222.459    20708222.1264   20708226.8604
        -0.000          -0.000
 -16998019.531 9 -12959704.40645  23495923.311    23495923.3014   23495927.0694
        -0.000          -0.000
 -13691240.914 8  -9234438.27245  23772638.676    23772638.6344   23772646.2864
        -0.000          -0.000
 -33165237.159 9 -25831887.09149  19720122.409    19720121.7744   19720125.8764
        -0.000          -0.000
 -24283616.148 9 -18897150.57848  20396668.518    20396668.5604   20396672.1494
        -0.000          -0.000
 -13734155.595 9 -10687759.04747  22597875.342    22597875.0574   22597879.9834
        -0.000          -0.000
 -27034641.611 9 -21051161.35148  20793006.340    20793005.3624   20793010.1724
        -0.000          -0.000
 97  3  9  1 57 29.9980000  0  7 24  4  9  5 30  6 10               -0.001820929
 -27954702.240 9 -21756377.53548  20716348.883    20716348.5304   20716353.2424
        -0.000          -0.000
 -16919415.850 9 -12898454.74545  23510880.930    23510880.9574   23510884.6554
        -0.000          -0.000
 -13619790.808 9  -9178762.92445  23786235.697    23786235.5404   23786242.4574
        -0.000          -0.000
 -33170526.889 9 -25836008.96249  19719115.768    19719115.1714   19719119.3094
        -0.000          -0.000
 -24351567.840 9 -18950099.93548  20383737.691    20383737.7724   20383741.3804
        -0.000          -0.000
 -13817436.451 9 -10752653.18147  22582027.524    22582027.1784   22582032.1434
        -0.000          -0.000
 -27097719.589 9 -21100312.99748  20781002.982    20781001.9924   20781006.7654
        -0.000          -0.000
 97  3  9  1 57 59.9980000  0  7 24  4  9  5 30  6 10               -0.001831125
 -27911742.979 9 -21722902.78248  20724523.692    20724523.3814   20724528.0754
        -0.000          -0.000
 -16840756.078 9 -12837161.37645  23525849.262    23525849.4224   23525853.0704
        -0.000          -0.000
 -13548375.227 9  -9123114.44346  23799826.333    23799826.0714   23799831.9834
        -0.000          -0.000
 -33175256.991 9 -25839694.76249  19718215.651    19718215.0744   19718219.2524
        -0.000          -0.000
 -24419020.756 9 -19002660.63848  20370901.884    20370901.9084   20370905.5034
        -0.000          -0.000
 -13900666.107 9 -10817507.41647  22566189.228    22566188.9734   22566194.0474
        -0.000          -0.000
 -27160263.410 9 -21149048.41848  20769101.239    20769100.2514   20769105.0044
        -0.000          -0.000
 97  3  9  1 58 29.9980000  0  7 24  4  9  5 30  6 10               -0.001841324
 -27868580.117 9 -21689269.37648  20732737.328    20732736.9954   20732741.7284
        -0.000          -0.000
 -16762088.091 9 -12775861.61346  23540819.362    23540819.4004   23540823.1064
        -0.000          -0.000
 -13477047.966 9  -9067534.77746  23813400.281    23813399.9754   23813404.7624
        -0.000          -0.000
 -33179489.870 9 -25842993.11549  19717410.204    19717409.6114   19717413.7594
        -0.000          -0.000
 -24486018.845 9 -19054866.92748  20358152.595    20358152.6044   20358156.2164
        -0.000          -0.000
 -13983898.411 9 -10882363.71147  22550350.559    22550350.2674   22550355.4034
        -0.000          -0.000
 -27222327.551 9 -21197410.06048  20757290.767    20757289.8074   20757294.5774
        -0.000          -0.000
 97  3  9  1 58 59.9980000  0  7 24  4  9  5 30  6 10               -0.001851475
 -27825128.687 9 -21655411.11948  20741005.878    20741005.5804   20741010.2964
        -0.000          -0.000
 -16683321.777 9 -12714485.27346  23555807.872    23555808.0244   23555811.9374
        -0.000          -0.000
 -13405730.48019  -9011962.70446  23826972.176    23826971.8205   23826975.5714
        -0.000          -0.000
 -33183130.236 9 -25845829.76949  19716717.492    19716716.8914   19716721.0324
        -0.000          -0.000
 -24552458.944 9 -19106638.42548  20345509.442    20345509.4774   20345513.0594
        -0.000          -0.000
 -14067036.094 9 -10947146.28047  22534529.872    22534529.6704   22534534.8064
        -0.000          -0.000
 -27283809.902 9 -21245318.35948  20745590.987    20745590.0774   20745594.8924
        -0.000          -0.000
 97  3  9  1 59 29.9980000  0  7 24  4  9  5 30  6 10               -0.001861641
 -27781476.093 9 -21621396.09948  20749312.791    20749312.4804   20749317.1014
        -0.000          -0.000
 -16604560.019 9 -12653112.49346  23570795.609    23570795.7984   23570799.9864
        -0.000          -0.000
 -13334505.307 9  -8956462.57746  23840526.302    23840525.7374   23840529.0314
        -0.000          -0.000
 -33186247.043 9 -25848258.44849  19716124.396    19716123.7624   19716127.9204
        -0.000          -0.000
 -24618419.549 9 -19158036.28848  20332957.579    20332957.6364   20332961.1774
        -0.000          -0.000
 -14150170.168 9 -11011926.04747  22518709.905    22518709.6824   22518714.8894
        -0.000          -0.000
 -27344800.010 9 -21292843.08948  20733985.050    20733984.0624   20733988.8944
        -0.000          -0.000
 97  3  9  1 59 59.9980000  0  7 24  4  9  5 30  6 10               -0.001871796
 -27737576.462 9 -21587188.59048  20757666.593    20757666.2774   20757670.8474
        -0.000          -0.000
 -16525776.782 9 -12591722.94546  23585787.641    23585787.7784   23585791.9434
        -0.000          -0.000
 -13263318.852 9  -8900992.60946  23854072.593    23854071.9114   23854075.1314
        -0.000          -0.000
 -33188790.806 9 -25850240.60549  19715640.350    19715639.7174   19715643.8784
        -0.000          -0.000
 -24683862.534 9 -19209030.81248  20320504.139    20320504.1784   20320507.7684
        -0.000          -0.000
 -14233259.492 9 -11076670.93347  22502898.360    22502898.2084   22502903.4454
        -0.000          -0.000
 -27405246.306 9 -21339944.07448  20722482.475    20722481.5054   20722486.3434
        -0.000          -0.000
 97  3  9  2  0 29.9980000  0  7 24  4  9  5 30  6 10               -0.001881943
 -27693439.890 9 -21552796.44748  20766065.476    20766065.1824   20766069.7704
        -0.000          -0.000
 -16446995.613 9 -12530335.01546  23600779.464    23600779.5304   23600783.5674
        -0.000          -0.000
 -13192161.648 9  -8845545.47745  23867613.186    23867612.4464   23867615.8204
        -0.000          -0.000
 -33190767.644 9 -25851781.00149  19715264.192    19715263.5474   19715267.7054
        -0.000          -0.000
 -24748804.407 9 -19259634.86748  20308146.139    20308146.1734   20308149.7064
        -0.000          -0.000
 -14316306.283 9 -11141382.69347  22487095.113    22487094.8884   22487100.1544
        -0.000          -0.000
 -27465154.185 9 -21386625.51348  20711082.355    20711081.4074   20711086.2154
        -0.000          -0.000
 97  3  9  2  0 59.9980000  0  7 24  4  9  5 30  6 10               -0.001892076
 -27649078.291 9 -21518228.97048  20774507.263    20774506.9784   20774511.5444
        -0.000          -0.000
 -16368228.258 9 -12468957.85146  23615768.551    23615768.5344   23615772.5884
        -0.000          -0.000
 -13121025.216 8  -8790114.49945  23881149.724    23881148.9454   23881152.6954
        -0.000          -0.000
 -33192177.232 9 -25852879.38749  19714995.998    19714995.3634   19714999.4894
        -0.000          -0.000
 -24813259.852 9 -19309859.87948  20295880.682    20295880.7044   20295884.2394
        -0.000          -0.000
 -14399301.847 9 -11206054.54347  22471301.616    22471301.3524   22471306.5474
        -0.000          -0.000
 -27524520.348 9 -21432884.83448  20699785.349    20699784.3984   20699789.1544
        -0.000          -0.000
 97  3  9  2  1 29.9980000  0  7 24  4  9  5 30  6 10               -0.001902181
 -27604462.788 9 -21483463.63048  20782997.293    20782996.9714   20783001.4764
        -0.000          -0.000
 -16289465.632 9 -12407584.36646  23630756.625    23630756.5074   23630760.4354
        -0.000          -0.000
 -13049869.870 8  -8734668.79445  23894689.962    23894689.0914   23894693.3214
        -0.000          -0.000
 -33192995.307 9 -25853516.85449  19714840.308    19714839.6614   19714843.7464
        -0.000          -0.000
 -24877210.184 9 -19359691.30548  20283711.371    20283711.3994   20283714.8924
        -0.000          -0.000
 -14482228.226 9 -11270672.47847  22455521.187    22455520.9664   22455526.0794
        -0.000          -0.000
 -27583324.659 9 -21478706.35248  20688595.218    20688594.2744   20688599.0234
        -0.000          -0.000
 97  3  9  2  1 59.9980000  0  7 24  4  9  5 30  6 10               -0.001912271
 -27559624.337 9 -21448524.56548  20791529.750    20791529.4744   20791533.9024
        -0.000          -0.000
 -16210729.523 9 -12346231.53546  23645739.676    23645739.5254   23645743.4324
        -0.000          -0.000
 -12978730.707 8  -8679235.71545  23908227.158    23908226.1914   23908231.0684
        -0.000          -0.000
 -33193257.121 9 -25853720.87049  19714790.445    19714789.8254   19714793.9224
        -0.000          -0.000
 -24940681.115 9 -19409149.16348  20271633.239    20271633.2404   20271636.7844
        -0.000          -0.000
 -14565113.829 9 -11335258.63247  22439748.561    22439748.3754   22439753.3934
        -0.000          -0.000
 -27641582.098 9 -21524101.73448  20677509.153    20677508.2194   20677512.9244
        -0.000          -0.000
 97  3  9  2  2 29.9980000  0  7 24  4  9  5 30  6 10               -0.001922349
 -27514553.852 9 -21413404.70448  20800106.382    20800106.0664   20800110.5214
        -0.000          -0.000
 -16131997.904 9 -12284882.19946  23660721.644    23660721.5744   23660725.3554
        -0.000          -0.000
 -12907618.894 8  -8623823.92555  23921758.261    23921757.1164   23921763.5365
        -0.000          -0.000
 -33192947.597 9 -25853479.69149  19714849.307    19714848.7244   19714852.8054
        -0.000          -0.000
 -25003655.214 9 -19458219.88848  20259649.633    20259649.6564   20259653.1574
        -0.000          -0.000
 -14647957.207 9 -11399811.88447  22423984.049    22423983.8394   22423988.7894
        -0.000          -0.000
 -27699276.557 9 -21569058.43048  20666530.169    20666529.2304   20666533.9714
        -0.000          -0.000
 97  3  9  2  2 59.9980000  0  7 24  4  9  5 30  6 10               -0.001932443
 -27469278.378 9 -21378125.10948  20808722.043    20808721.7024   20808726.2034
        -0.000          -0.000
 -16053291.753 9 -12223552.69946  23675698.956    23675698.9654   23675702.6394
        -0.000          -0.000
 -12836593.91118  -8568479.80045  23935272.878    23935271.4695   23935279.4514
        -0.000          -0.000
 -33192087.320 9 -25852809.35249  19715013.119    19715012.5114   19715016.5444
        -0.000          -0.000
 -25066153.690 9 -19506919.99948  20247756.605    20247756.6104   20247760.0874
        -0.000          -0.000
 -14730807.238 9 -11464370.31947  22408218.300    22408218.0934   22408222.8714
        -0.000          -0.000
 -27756429.483 9 -21613593.16648  20655654.295    20655653.3694   20655658.1494
        -0.000          -0.000
 97  3  9  2  3 29.9980000  0  7 24  4  9  5 30  6 10               -0.001942538
 -27423777.173 9 -21342669.61748  20817380.546    20817380.2584   20817384.7564
        -0.000          -0.000
 -15974581.768 9 -12162220.23546  23690677.040    23690676.9654   23690680.6594
        -0.000          -0.000
 -12765636.791 8  -8513188.55445  23948774.550    23948773.1614   23948782.2694
        -0.000          -0.000
 -33190653.052 9 -25851691.74049  19715286.063    19715285.4324   19715289.4584
        -0.000          -0.000
 -25128137.177 9 -19555218.81448  20235961.542    20235961.5554   20235965.0194
        -0.000          -0.000
 -14813648.618 9 -11528922.02947  22392454.198    22392453.9574   22392458.5654
        -0.000          -0.000
 -27813031.015 9 -21657698.23448  20644883.386    20644882.4554   20644887.2604
        -0.000          -0.000
 97  3  9  2  3 59.9980000  0  7 24  4  9  5 30  6 10               -0.001952624
 -27378049.622 9 -21307037.76048  20826082.232    20826081.8944   20826086.5104
        -0.000          -0.000
 -15895852.095 9 -12100872.44245  23705658.754    23705658.7444   23705662.2624
        -0.000          -0.000
 -12694753.834 8  -8457955.08445  23962263.562    23962261.6814   23962271.2174
        -0.000          -0.000
 -33188643.042 9 -25850125.49449  19715668.539    19715667.9074   19715671.9704
        -0.000          -0.000
 -25189596.444 9 -19603109.14449  20224266.247    20224266.2724   20224269.7034
        -0.000          -0.000
 -14896459.555 9 -11593449.98847  22376695.842    22376695.5964   22376700.1154
        -0.000          -0.000
 -27869075.995 9 -21701369.62848  20634218.427    20634217.4884   20634222.2764
        -0.000          -0.000
 97  3  9  2  4 29.9980000  0  7 24  4  9  5 30  6 10               -0.001962712
 -27332101.689 9 -21271234.16148  20834825.780    20834825.4904   20834830.0454
        -0.000          -0.000
 -15817117.895 9 -12039521.11345  23720641.062    23720641.1724   23720644.7504
        -0.000          -0.000
 -12623959.696 9  -8402790.82745  23975735.781    23975734.1924   23975742.8864
        -0.000          -0.000
 -33186065.418 9 -25848116.95649  19716159.047    19716158.4084   19716162.5024
        -0.000          -0.000
 -25250537.080 9 -19650595.34549  20212669.638    20212669.6404   20212673.0714
        -0.000          -0.000
 -14979244.124 9 -11657957.39947  22360942.507    22360942.2224   22360946.6394
        -0.000          -0.000
 -27924590.128 9 -21744627.37448  20623654.506    20623653.5024   20623658.2364
        -0.000          -0.000
 97  3  9  2  4 59.9980000  0  7 24  4  9  5 30  6 10               -0.001972779
 -27285911.911 9 -21235242.12048  20843615.389    20843615.0764   20843619.6524
        -0.000          -0.000
 -15738373.920 9 -11978162.15545  23735625.500    23735625.5294   23735629.2174
        -0.000          -0.000
 -12553218.179 9  -8347667.56046  23989198.332    23989196.9324   23989204.5794
        -0.000          -0.000
 -33182907.277 9 -25845656.06749  19716760.025    19716759.3524   19716763.4784
        -0.000          -0.000
 -25310930.562 9 -19697655.19449  20201177.058    20201177.0864   20201180.5604
        -0.000          -0.000
 -15061962.195 9 -11722412.99647  22345201.771    22345201.5194   22345205.8254
        -0.000          -0.000
 -27979559.446 9 -21787460.58748  20613194.142    20613193.1634   20613197.8734
        -0.000          -0.000
 97  3  9  2  5 29.9980000  0  7 24  4  9  5 30  6 10               -0.001982850
 -27239522.514 9 -21199094.53248  20852442.929    20852442.6444   20852447.2764
        -0.000          -0.000
 -15659681.321 8 -11916843.23945  23750600.368    23750600.2314   23750604.0424
        -0.000          -0.000
 -12482559.616 9  -8292608.94446  24002644.761    24002643.5644   24002650.3734
        -0.000          -0.000
 -33179230.089 9 -25842790.72549  19717459.742    19717459.0974   19717463.2654
        -0.000          -0.000
 -25370814.043 9 -19744317.63949  20189781.624    20189781.6354   20189785.1424
        -0.000          -0.000
 -15144638.280 9 -11786835.88347  22329469.045    22329468.7714   22329472.9484
        -0.000          -0.000
 -28034030.552 9 -21829905.58448  20602828.601    20602827.6394   20602832.3314
        -0.000          -0.000
 97  3  9  2  5 59.9980000  0  7 24  4  9  5 30  6 10               -0.001992931
 -27192923.093 9 -21162783.28848  20861310.530    20861310.2354   20861314.8834
        -0.000          -0.000
 -15581048.853 8 -11855571.16445  23765563.524    23765563.3734   23765567.1384
        -0.000          -0.000
 -12411988.113 9  -8237618.17346  24016074.605    24016073.5074   24016079.7254
        -0.000          -0.000
 -33175027.977 9 -25839516.35749  19718259.385    19718258.7244   19718262.8934
        -0.000          -0.000
 -25430176.385 9 -19790574.00149  20178485.357    20178485.3854   20178488.8694
        -0.000          -0.000
 -15227283.079 9 -11851234.37247  22313742.186    22313741.8984   22313746.1404
        -0.000          -0.000
 -28087976.367 9 -21871941.26448  20592563.011    20592562.0664   20592566.7684
        -0.000          -0.000
 97  3  9  2  6 29.9980000  0  7 24  4  9  5 30  6 10               -0.002002986
 -27146063.517 9 -21126269.32048  20870227.627    20870227.3324   20870231.9574
        -0.000          -0.000
 -15502419.275 8 -11794301.34945  23780526.391    23780526.3244   23780529.9304
        -0.000          -0.000
 -12341436.297 9  -8182642.74346  24029500.661    24029499.6424   24029505.1924
        -0.000          -0.000
 -33170229.130 9 -25835776.99749  19719172.601    19719171.9414   19719176.1264
        -0.000          -0.000
 -25488949.077 9 -19836370.89949  20167301.320    20167301.3084   20167304.7704
        -0.000          -0.000
 -15309848.271 9 -11915570.84247  22298030.516    22298030.2254   22298034.4614
        -0.000          -0.000
 -28141318.637 9 -21913506.64848  20582412.276    20582411.3234   20582416.0744
        -0.000          -0.000
 97  3  9  2  6 59.9970000  0  7 24  4  9  5 30  6 10               -0.002013060
 -27099038.271 9 -21089626.26948  20879176.193    20879175.8584   20879180.4964
        -0.000          -0.000
 -15423870.697 8 -11733094.67845  23795473.906    23795473.7474   23795477.3714
        -0.000          -0.000
 -12270983.525 9  -8127744.50846  24042907.589    24042906.6424   24042911.6734
        -0.000          -0.000
 -33164921.431 9 -25831641.13349  19720182.636    19720181.9724   19720186.1504
        -0.000          -0.000
 -25547234.303 9 -19881787.95049  20156209.930    20156209.9864   20156213.4634
        -0.000          -0.000
 -15392419.111 9 -11979911.71847  22282317.725    22282317.4534   22282321.6784
        -0.000          -0.000
 -28194121.918 9 -21954652.04348  20572364.062    20572363.1394   20572367.9174
        -0.000          -0.000
 97  3  9  2  7 29.9970000  0  7 24  4  9  5 30  6 10               -0.002023139
 -27051819.019 9 -21052832.03448  20888161.650    20888161.3774   20888165.9724
        -0.000          -0.000
 -15345356.084 9 -11671914.42045  23810414.809    23810414.6834   23810418.2824
        -0.000          -0.000
 -12200605.747 9  -8072904.69945  24056300.189    24056299.2504   24056303.9654
        -0.000          -0.000
 -33159063.014 9 -25827076.13949  19721297.481    19721296.8104   19721300.9914
        -0.000          -0.000
 -25605015.491 9 -19926812.25549  20145214.558    20145214.5984   20145218.0144
        -0.000          -0.000
 -15474990.846 9 -12044253.28347  22266604.824    22266604.5514   22266608.7584
        -0.000          -0.000
 -28246347.260 9 -21995347.09848  20562425.920    20562424.9794   20562429.7254
        -0.000          -0.000
 97  3  9  2  7 59.9970000  0  7 24  4  9  5 30  6 10               -0.002033226
 -27004438.959 9 -21015912.50548  20897177.786    20897177.4654   20897182.1504
        -0.000          -0.000
 -15266874.232 9 -11610759.68845  23825349.672    23825349.4844   23825352.8824
        -0.000          -0.000
 -12130327.462 9  -8018142.39145  24069673.860    24069672.7934   24069677.5804
        -0.000          -0.000
 -33152655.819 9 -25822083.52449  19722516.724    19722516.0764   19722520.1994
        -0.000          -0.000
 -25662317.476 9 -19971463.14649  20134310.353    20134310.3774   20134313.7884
        -0.000          -0.000
 -15557572.317 9 -12108602.44347  22250890.012    22250889.7304   22250893.9684
        -0.000          -0.000
 -28298000.903 9 -22035596.66648  20552596.559    20552595.6144   20552600.3434
        -0.000          -0.000
 97  3  9  2  8 29.9970000  0  7 24  4  9  5 30  6 10               -0.002043293
 -26956866.520 9 -20978843.06248  20906230.574    20906230.2684   20906234.8684
        -0.000          -0.000
 -15188392.106 9 -11549604.77345  23840284.336    23840284.0454   23840287.7764
        -0.000          -0.000
 -12060115.610 9  -7963431.88845  24083035.040    24083033.9314   24083038.6344
        -0.000          -0.000
 -33145673.920 9 -25816643.09849  19723845.421    19723844.7364   19723848.7684
        -0.000          -0.000
 -25719123.762 9 -20015727.77349  20123500.492    20123500.4814   20123503.9114
        -0.000          -0.000
 -15640107.065 9 -12172915.18247  22235184.109    22235183.8634   22235188.1354
        -0.000          -0.000
 -28349054.677 9 -22075378.80948  20542881.375    20542880.4204   20542885.0994
        -0.000          -0.000
 97  3  9  2  8 59.9970000  0  7 24  4  9  5 30  6 10               -0.002053359
 -26909119.179 9 -20941637.34648  20915316.658    20915316.3284   20915320.9684
        -0.000          -0.000
 -15109945.839 8 -11488477.80345  23855212.125    23855211.7504   23855215.5554
        -0.000          -0.000
 -11990004.144 9  -7908799.58945  24096377.195    24096376.1854   24096380.6594
        -0.000          -0.000
 -33138153.775 9 -25810783.25649  19725276.462    19725275.7564   19725279.7734
        -0.000          -0.000
 -25775456.132 9 -20059623.12449  20112780.790    20112780.8024   20112784.1574
        -0.000          -0.000
 -15722620.440 9 -12237211.27547  22219482.311    22219482.0734   22219486.4644
        -0.000          -0.000
 -28399549.758 9 -22114725.60948  20533272.469    20533271.5124   20533276.2054
        -0.000          -0.000
 97  3  9  2  9 29.9970000  0  7 24  4  9  5 30  6 10               -0.002063414
 -26861163.672 9 -20904269.40448  20924442.345    20924441.9704   20924446.5624
        -0.000          -0.000
 -15031519.454 8 -11427366.33845  23870136.140    23870135.8294   23870139.8454
        -0.000          -0.000
 -11919969.160 8  -7854226.89345  24109704.587    24109703.5004   24109707.8544
        -0.000          -0.000
 -33130067.560 9 -25804482.31549  19726815.168    19726814.5014   19726818.5384
        -0.000          -0.000
 -25831255.236 9 -20103102.93549  20102162.555    20102162.5824   20102165.9294
        -0.000          -0.000
 -15805084.132 9 -12301468.65447  22203789.929    22203789.6764   22203794.2214
        -0.000          -0.000
 -28449457.665 9 -22153614.87048  20523775.267    20523774.3074   20523779.0104
        -0.000          -0.000
 97  3  9  2  9 59.9970000  0  7 24  4  9  5 30  6 10               -0.002073447
 -26812981.582 9 -20866724.92448  20933611.016    20933610.7234   20933615.3844
        -0.000          -0.000
 -14953100.762 8 -11366260.88045  23885058.725    23885058.3884   23885062.5324
        -0.000          -0.000
 -11850001.590 8  -7799706.74445  24123018.724    24123017.9314   24123022.1624
        -0.000          -0.000
 -33121412.178 9 -25797737.86749  19728462.178    19728461.5304   19728465.6104
        -0.000          -0.000
 -25886494.212 9 -20146146.28349  20091650.940    20091650.9404   20091654.3024
        -0.000          -0.000
 -15887475.087 9 -12365669.36247  22188111.361    22188111.1804   22188115.6684
        -0.000          -0.000
 -28498773.488 9 -22192042.76748  20514390.733    20514389.7544   20514394.5054
        -0.000          -0.000
 97  3  9  2 10 29.9970000  0  7 24  4  9  5 30  6 10               -0.002083480
 -26764586.681 9 -20829014.60648  20942820.268    20942819.9384   20942824.6264
        -0.000          -0.000
 -14874722.628 8 -11305187.00145  23899973.506    23899973.0634   23899977.5284
        -0.000          -0.000
 -11780137.008 8  -7745266.80845  24136313.152    24136312.5604   24136316.8444
        -0.000          -0.000
 -33112218.687 9 -25790574.11149  19730211.587    19730210.9594   19730215.0844
        -0.000          -0.000
 -25941197.229 9 -20188772.00649  20081241.296    20081241.3164   20081244.6484
        -0.000          -0.000
 -15969834.765 9 -12429845.69547  22172438.878    22172438.6704   22172443.0884
        -0.000          -0.000
 -28547542.007 9 -22230044.20148  20505110.338    20505109.3784   20505114.1494
        -0.000          -0.000
 97  3  9  2 10 59.9970000  0  7 24  4  9  5 30  6 10               -0.002093520
 -26715991.277 9 -20791148.06248  20952067.563    20952067.2564   20952072.0404
        -0.000          -0.000
 -14796387.459 8 -11244146.57045  23914879.797    23914879.6944   23914884.2414
        -0.000          -0.000
 -11710391.683 8  -7690919.82245  24149584.587    24149584.0024   24149588.9324
        -0.000          -0.000
 -33102503.630 9 -25783003.94649  19732060.291    19732059.6894   19732063.7844
        -0.000          -0.000
 -25995361.311 9 -20230977.77349  20070934.194    20070934.1914   20070937.5434
        -0.000          -0.000
 -16052183.672 9 -12494013.63347  22156768.459    22156768.2094   22156772.5474
        -0.000          -0.000
 -28595783.201 9 -22267634.72048  20495930.383    20495929.4334   20495934.1434
        -0.000          -0.000
 97  3  9  2 11 29.9970000  0  7 24  4  9  5 30  6 10               -0.002103563
 -26667210.735 9 -20753137.24248  20961350.268    20961349.9194   20961354.6674
        -0.000          -0.000
 -14718088.402 8 -11183134.32145  23929779.209    23929779.2104   23929783.9904
        -0.000          -0.000
 -11640775.471 8  -7636673.40545  24162831.690    24162831.1004   24162836.1454
        -0.000          -0.000
 -33092272.953 9 -25775031.99049  19734007.082    19734006.4624   19734010.6214
        -0.000          -0.000
 -26049003.751 9 -20272777.06849  20060726.398    20060726.4184   20060729.7624
        -0.000          -0.000
 -16134522.644 9 -12558173.83147  22141099.866    22141099.5764   22141103.9324
        -0.000          -0.000
 -28643498.673 9 -22304815.58448  20486850.549    20486849.5594   20486854.1584
        -0.000          -0.000
 97  3  9  2 11 59.9970000  0  7 24  4  9  5 30  6 10               -0.002113597
 -26618249.387 9 -20714985.53248  20970667.287    20970666.9404   20970671.6494
        -0.000          -0.000
 -14639804.880 8 -11122134.18045  23944675.846    23944675.9564   23944680.6974
        -0.000          -0.000
 -11571282.862 8  -7582523.31345  24176055.360    24176054.7574   24176059.8844
        -0.000          -0.000
 -33081519.295 9 -25766652.52049  19736053.399    19736052.7954   19736057.0334
        -0.000          -0.000
 -26102129.751 9 -20314173.94349  20050616.836    20050616.8574   20050620.2264
        -0.000          -0.000
 -16216838.856 9 -12622316.29247  22125435.499    22125435.2904   22125439.6184
        -0.000          -0.000
 -28690678.903 9 -22341579.37848  20477872.512    20477871.4854   20477876.0604
        -0.000          -0.000
 97  3  9  2 12 29.9970000  0  7 24  4  9  5 30  6 10               -0.002123576
 -26569052.937 9 -20676650.64448  20980028.915    20980028.6584   20980033.3694
        -0.000          -0.000
 -14561473.860 8 -11061097.00745  23959581.934    23959581.8364   23959586.5084
        -0.000          -0.000
 -11501842.925 9  -7528414.28245  24189269.240    24189268.8674   24189273.6444
        -0.000          -0.000
 -33070178.115 9 -25757815.24549  19738211.599    19738210.9714   19738215.2094
        -0.000          -0.000
 -26154672.364 9 -20355116.22549  20040618.234    20040618.2794   20040621.6364
        -0.000          -0.000
 -16299059.098 9 -12686383.97147  22109789.600    22109789.2914   22109793.5724
        -0.000          -0.000
 -28737245.914 9 -22377865.34648  20469011.033    20469010.0194   20469014.6614
        -0.000          -0.000
 97  3  9  2 12 59.9970000  0  7 24  4  9  5 30  6 10               -0.002133548
 -26519699.745 9 -20638193.59348  20989420.655    20989420.3574   20989424.8664
        -0.000          -0.000
 -14483170.427 9 -11000081.36345  23974482.769    23974482.5714   23974487.1074
        -0.000          -0.000
 -11432526.670 9  -7474401.60246  24202459.797    24202459.4654   24202464.2104
        -0.000          -0.000
 -33058305.319 9 -25748563.72049  19740470.958    19740470.3274   19740474.5504
        -0.000          -0.000
 -26206690.157 9 -20395649.56049  20030719.655    20030719.6314   20030723.0324
        -0.000          -0.000
 -16381249.007 9 -12750428.01947  22094149.391    22094149.1094   22094153.2854
        -0.000          -0.000
 -28783249.416 9 -22413712.21848  20460256.781    20460255.7904   20460260.5134
        -0.000          -0.000
 97  3  9  2 13 29.9970000  0  6 24  4  5 30  6 10                  -0.002143800
 -26470166.782 9 -20599596.47248  20998846.548    20998846.1614   20998850.6114
        -0.000          -0.000
 -14404866.386 9 -10939065.18546  23989383.644    23989383.4454   23989387.6614
        -0.000          -0.000
 -33045843.633 9 -25738853.32849  19742842.378    19742841.7454   19742845.9104
        -0.000          -0.000
 -26258150.337 9 -20435748.39149  20020927.016    20020927.0214   20020930.4894
        -0.000          -0.000
 -16463371.059 9 -12814419.19647  22078522.014    22078521.7484   22078525.9094
        -0.000          -0.000
 -28828636.045 9 -22449078.40548  20451619.948    20451618.9594   20451623.6624
        -0.000          -0.000
 97  3  9  2 13 59.9970000  0  6 24  4  5 30  6 10                  -0.002153762
 -26420511.526 9 -20560904.06848  21008295.537    21008295.1304   21008299.6334
        -0.000          -0.000
 -14326642.805 9 -10878111.75945  24004269.166    24004269.0414   24004273.1444
        -0.000          -0.000
 -33032846.190 9 -25728725.46249  19745315.759    19745315.1134   19745319.2334
        -0.000          -0.000
 -26309093.229 9 -20475444.15049  20011232.886    20011232.9024   20011236.3464
        -0.000          -0.000
 -16545488.641 9 -12878406.89547  22062895.457    22062895.2464   22062899.4004
        -0.000          -0.000
 -28873462.499 9 -22484008.08948  20443089.755    20443088.7244   20443093.4244
        -0.000          -0.000
 97  3  9  2 14 29.9970000  0  6 24  4  5 30  6 10                  -0.002163735
 -26370709.652 9 -20522097.40548  21017772.522    21017772.1694   21017776.5794
        -0.000          -0.000
 -14248504.487 9 -10817224.75545  24019138.421    24019138.1974   24019142.2944
        -0.000          -0.000
 -33019285.817 9 -25718158.94949  19747896.291    19747895.5864   19747899.6604
        -0.000          -0.000
 -26359493.644 9 -20514717.20049  20001642.027    20001642.0314   20001645.4864
        -0.000          -0.000
 -16627591.408 9 -12942383.04547  22047271.755    22047271.5124   22047275.7364
        -0.000          -0.000
 -28917716.073 9 -22518491.38048  20434668.518    20434667.5144   20434672.2164
        -0.000          -0.000
 97  3  9  2 14 59.9970000  0  6 24  4  5 30  6 10                  -0.002173692
 -26320693.190 9 -20483123.51448  21027290.384    21027289.9804   21027294.2274
        -0.000          -0.000
 -14170389.562 9 -10756355.91945  24034003.138    24034002.9264   24034006.7814
        -0.000          -0.000
 -33005086.111 9 -25707094.24949  19750598.426    19750597.7164   19750601.7484
        -0.000          -0.000
 -26409284.814 9 -20553515.50549  19992167.074    19992167.0814   19992170.5354
        -0.000          -0.000
 -16709628.533 9 -13006308.02747  22031660.520    22031660.2494   22031664.5824
        -0.000          -0.000
 -28961339.392 9 -22552483.55448  20426367.253    20426366.3114   20426370.9294
        -0.000          -0.000
 97  3  9  2 15 29.9970000  0  6 24  4  5 30  6 10                  -0.002183690
 -26270546.995 9 -20444048.54948  21036832.829    21036832.4544   21036836.6744
        -0.000          -0.000
 -14092377.280 9 -10695567.09545  24048848.425    24048848.2594   24048852.2184
        -0.000          -0.000
 -32990363.443 9 -25695622.05249  19753400.048    19753399.3464   19753403.3754
        -0.000          -0.000
 -26458545.982 9 -20591900.82149  19982793.043    19982793.0304   19982796.4564
        -0.000          -0.000
 -16791676.690 9 -13070241.61447  22016047.259    22016046.9284   22016051.3024
        -0.000          -0.000
 -29004422.185 9 -22586054.54748  20418168.921    20418167.9574   20418172.5744
        -0.000          -0.000
 97  3  9  2 15 59.9970000  0  6 24  4  5 30  6 10                  -0.002193728
 -26220241.707 9 -20404849.61448  21046405.573    21046405.2574   21046409.4954
        -0.000          -0.000
 -14014438.783 9 -10634835.81145  24063679.590    24063679.5414   24063683.5274
        -0.000          -0.000
 -32975127.699 9 -25683750.05449  19756299.330    19756298.6194   19756302.6394
        -0.000          -0.000
 -26507254.623 9 -20629855.59049  19973524.059    19973524.0374   19973527.5234
        -0.000          -0.000
 -16873710.157 9 -13134163.75847  22000436.658    22000436.3454   22000440.8564
        -0.000          -0.000
 -29046951.500 9 -22619194.25848  20410075.797    20410074.8404   20410079.5314
        -0.000          -0.000
 97  3  9  2 16 29.9970000  0  6 24  4  5 30  6 10                  -0.002203757
 -26169743.104 9 -20365500.04048  21056015.194    21056014.8844   21056019.0564
        -0.000          -0.000
 -13936515.061 8 -10574116.00745  24078507.921    24078508.0764   24078511.7174
        -0.000          -0.000
 -32959344.474 9 -25671451.44849  19759302.726    19759302.0504   19759306.0734
        -0.000          -0.000
 -26555388.094 9 -20667362.18549  19964364.523    19964364.5184   19964368.0344
        -0.000          -0.000
 -16955680.615 9 -13198036.80447  21984838.143    21984837.8444   21984842.3844
        -0.000          -0.000
 -29088894.549 9 -22651877.14148  20402094.205    20402093.2854   20402098.0164
        -0.000          -0.000
 97  3  9  2 16 59.9970000  0  6 24  4  5 30  6 10                  -0.002213774
 -26119094.427 9 -20326033.53048  21065653.349    21065653.0124   21065657.2774
        -0.000          -0.000
 -13858625.213 8 -10513422.61445  24093329.855    24093330.0344   24093333.5874
        -0.000          -0.000
 -32943070.639 9 -25658770.54349  19762399.543    19762398.8664   19762402.9264
        -0.000          -0.000
 -26602980.050 9 -20704446.81749  19955308.060    19955308.0784   19955311.6034
        -0.000          -0.000
 -17037608.307 9 -13261876.52047  21969247.776    21969247.4964   21969252.0054
        -0.000          -0.000
 -29130275.964 9 -22684122.38148  20394219.563    20394218.6264   20394223.3284
        -0.000          -0.000
 97  3  9  2 17 29.9970000  0  6 24  4  5 30  6 10                  -0.002223734
 -26068228.255 9 -20286397.54048  21075332.925    21075332.5614   21075336.8514
        -0.000          -0.000
 -13780710.013 9 -10452709.51145  24108156.567    24108156.5714   24108160.2814
        -0.000          -0.000
 -32926248.795 9 -25645662.62049  19765600.660    19765599.9504   19765604.0204
        -0.000          -0.000
 -26649965.916 9 -20741059.17649  19946366.952    19946366.9674   19946370.4294
        -0.000          -0.000
 -17119402.368 9 -13325612.12747  21953682.880    21953682.5824   21953687.0574
        -0.000          -0.000
 -29171022.880 9 -22715873.20848  20386465.681    20386464.7344   20386469.4034
        -0.000          -0.000
 97  3  9  2 17 59.9970000  0  6 24  4  5 30  6 10                  -0.002233689
 -26017232.794 9 -20246660.81048  21085036.958    21085036.6234   21085041.0854
        -0.000          -0.000
 -13702865.020 9 -10392051.10245  24122970.042    24122969.9254   24122973.6364
        -0.000          -0.000
 -32908930.954 9 -25632168.20949  19768896.169    19768895.4584   19768899.5374
        -0.000          -0.000
 -26696438.527 9 -20777271.59349  19937523.523    19937523.5304   19937527.0144
        -0.000          -0.000
 -17201161.499 9 -13389320.50947  21938124.710    21938124.3534   21938128.8264
        -0.000          -0.000
 -29211216.019 9 -22747192.51648  20378817.201    20378816.2594   20378820.8764
        -0.000          -0.000
 97  3  9  2 18 29.9970000  0  6 24  4  5 30  6 10                  -0.002243637
 -25966085.038 9 -20206805.41348  21094769.992    21094769.6454   21094774.2624
        -0.000          -0.000
 -13625089.041 9 -10331446.40845  24137770.262    24137770.1794   24137773.8584
        -0.000          -0.000
 -32891065.402 9 -25618247.00849  19772295.878    19772295.1854   19772299.2654
        -0.000          -0.000
 -26742376.961 9 -20813067.77149  19928781.692    19928781.6924   19928785.2084
        -0.000          -0.000
 -17282869.141 9 -13452988.77247  21922576.217    21922575.9064   21922580.4024
        -0.000          -0.000
 -29250832.076 9 -22778062.15748  20371278.620    20371277.6184   20371282.1904
        -0.000          -0.000
 97  3  9  2 18 59.9970000  0  5 24  5 30  6 10                     -0.002253954
 -25914718.475 9 -20166779.51648  21104544.643    21104544.3084   21104549.0944
        -0.000          -0.000
 -32872589.857 9 -25603850.48149  19775811.665    19775810.9914   19775815.1074
        -0.000          -0.000
 -26787712.392 9 -20848394.07849  19920154.613    19920154.6544   19920158.1574
        -0.000          -0.000
 -17364468.797 9 -13516572.88747  21907048.386    21907048.0264   21907052.4744
        -0.000          -0.000
 -29289795.077 9 -22808422.91148  20363864.151    20363863.1614   20363867.7584
        -0.000          -0.000
 97  3  9  2 19 29.9970000  0  5 24  5 30  6 10                     -0.002263843
 -25863223.575 9 -20126653.60948  21114343.809    21114343.4544   21114348.2664
        -0.000          -0.000
 -32853566.249 9 -25589026.88549  19779431.745    19779431.0454   19779435.2124
        -0.000          -0.000
 -26832539.400 9 -20883324.21049  19911624.342    19911624.3494   19911627.8114
        -0.000          -0.000
 -17446059.420 9 -13580149.96447  21891522.173    21891521.8354   21891526.3004
        -0.000          -0.000
 -29328201.484 9 -22838349.96848  20356555.574    20356554.6104   20356559.2594
        -0.000          -0.000
 97  3  9  2 19 59.9970000  0  5 24  5 30  6 10                     -0.002273692
 -25811534.198 9 -20086376.16948  21124179.867    21124179.5054   21124184.4634
        -0.000          -0.000
 -32833918.181 9 -25573716.70149  19783170.588    19783169.9074   19783174.0994
        -0.000          -0.000
 -26876787.620 9 -20917803.33549  19903204.174    19903204.1784   19903207.6174
        -0.000          -0.000
 -17527583.326 9 -13643675.05647  21876008.764    21876008.3644   21876012.8074
        -0.000          -0.000
 -29365979.372 9 -22867787.26248  20349366.641    20349365.6774   20349370.3304
        -0.000          -0.000
 97  3  9  2 20 29.9970000  0  6 24 17  5 30  6 10                  -0.002283233
 -25759685.448 9 -20045974.54648  21134046.369    21134045.9744   21134050.9194
        -0.000          -0.000
  -4988861.04419  -2534268.68955  24272531.088    24272529.7865   24272536.6115
        -0.000          -0.000
 -32813698.067 9 -25557960.77749  19787018.317    19787017.6534   19787021.8804
        -0.000          -0.000
 -26920479.459 9 -20951848.92949  19894889.909    19894889.9044   19894893.3304
        -0.000          -0.000
 -17609047.916 9 -13707153.93347  21860506.555    21860506.1474   21860510.5714
        -0.000          -0.000
 -29403155.234 9 -22896755.44748  20342292.399    20342291.4344   20342295.9904
        -0.000          -0.000
 97  3  9  2 20 59.9970000  0  6 24 17  5 30  6 10                  -0.002293181
 -25707699.764 9 -20005466.21248  21143938.866    21143938.5064   21143943.4284
        -0.000          -0.000
  -5095427.793 9  -2617307.67446  24252252.222    24252251.1454   24252257.6924
        -0.000          -0.000
 -32792928.964 9 -25541777.06849  19790970.632    19790969.9174   19790974.1074
        -0.000          -0.000
 -26963614.456 9 -20985460.60949  19886681.536    19886681.5674   19886685.0344
        -0.000          -0.000
 -17690459.522 9 -13770591.52147  21845014.405    21845014.0214   21845018.4604
        -0.000          -0.000
 -29439740.446 9 -22925263.38048  20335330.499    20335329.5044   20335334.0184
        -0.000          -0.000
 97  3  9  2 21 29.9970000  0  6 24 17  5 30  6 10                  -0.002303157
 -25655602.514 9 -19964870.94648  21153852.667    21153852.3234   21153857.1864
        -0.000          -0.000
  -5201883.340 9  -2700259.99646  24231994.486    24231993.6694   24231999.7584
        -0.000          -0.000
 -32771637.262 9 -25525186.14649  19795022.280    19795021.6024   19795025.7114
        -0.000          -0.000
 -27006211.278 9 -21018652.93849  19878575.645    19878575.6984   19878579.1284
        -0.000          -0.000
 -17771848.992 9 -13834011.85847  21829526.451    21829526.0844   21829530.4984
        -0.000          -0.000
 -29475760.788 9 -22953331.15748  20328476.025    20328475.0404   20328479.6404
        -0.000          -0.000
 97  3  9  2 21 59.9970000  0  6 24 17  5 30  6 10                  -0.002313125
 -25603346.549 9 -19924152.00648  21163796.732    21163796.3584   21163801.1524
        -0.000          -0.000
  -5308187.003 9  -2783093.95045  24211765.708    24211764.8144   24211770.7504
        -0.000          -0.000
 -32749806.635 9 -25508175.28049  19799176.546    19799175.8564   19799179.9094
        -0.000          -0.000
 -27048225.753 9 -21051391.48149  19870580.604    19870580.6534   19870584.0264
        -0.000          -0.000
 -17853175.023 9 -13897382.75547  21814050.520    21814050.2074   21814054.5884
        -0.000          -0.000
 -29511177.376 9 -22980928.47548  20321736.415    20321735.4254   20321740.0814
        -0.000          -0.000
 97  3  9  2 22 29.9970000  0  6 24 17  5 30  6 10                  -0.002323085
 -25550918.529 9 -19883298.99948  21173773.588    21173773.1724   21173777.8044
        -0.000          -0.000
  -5414321.896 8  -2865796.43345  24191568.826    24191567.9674   24191573.8554
        -0.000          -0.000
 -32727426.041 9 -25490735.86949  19803435.419    19803434.7674   19803438.8034
        -0.000          -0.000
 -27089629.935 9 -21083654.47549  19862701.669    19862701.7184   19862705.0764
        -0.000          -0.000
 -17934430.806 9 -13960698.92547  21798588.005    21798587.7124   21798592.0234
        -0.000          -0.000
 -29545994.457 9 -23008058.65548  20315110.938    20315109.9424   20315114.6054
        -0.000          -0.000
 97  3  9  2 22 59.9970000  0  6 24 17  5 30  6 10                  -0.002333055
 -25498340.772 9 -19842329.31848  21183778.786    21183778.3754   21183782.8944
        -0.000          -0.000
  -5520311.862 8  -2948386.02145  24171399.050    24171398.5894   24171404.5754
        -0.000          -0.000
 -32704519.396 9 -25472886.55249  19807794.482    19807793.8104   19807797.8034
        -0.000          -0.000
 -27130453.527 9 -21115465.06549  19854933.210    19854933.2464   19854936.5714
        -0.000          -0.000
 -18015666.177 9 -14023999.19047  21783129.483    21783129.1634   21783133.3824
        -0.000          -0.000
 -29580249.150 9 -23034750.60748  20308592.444    20308591.4354   20308596.1484
        -0.000          -0.000
 97  3  9  2 23 29.9970000  0  6 24 17  5 30  6 10                  -0.002343012
 -25445598.347 9 -19801231.31748  21193815.425    21193814.9874   21193819.3804
        -0.000          -0.000
  -5626140.363 8  -3030849.77145  24151260.687    24151260.0904   24151266.0024
        -0.000          -0.000
 -32681085.490 9 -25454626.38049  19812253.815    19812253.1134   19812257.1154
        -0.000          -0.000
 -27170695.698 9 -21146822.60049  19847275.343    19847275.4174   19847278.7004
        -0.000          -0.000
 -18096884.120 9 -14087285.87547  21767674.224    21767673.8934   21767678.0474
        -0.000          -0.000
 -29613929.571 9 -23060995.06948  20302183.259    20302182.2914   20302186.9734
        -0.000          -0.000
 97  3  9  2 23 59.9970000  0  6 24 17  5 30  6 10                  -0.002352945
 -25392673.770 9 -19759991.36948  21203886.709    21203886.2654   21203890.5364
        -0.000          -0.000
  -5731778.848 8  -3113165.39545  24131158.891    24131157.9364   24131163.7074
        -0.000          -0.000
 -32657093.369 9 -25435931.22949  19816819.354    19816818.6624   19816822.6754
        -0.000          -0.000
 -27210324.175 9 -21177701.92449  19839734.364    19839734.3984   19839737.6554
        -0.000          -0.000
 -18178046.503 9 -14150529.25947  21752229.492    21752229.2054   21752233.2964
        -0.000          -0.000
 -29647011.058 9 -23086772.82948  20295888.094    20295887.1204   20295891.7314
        -0.000          -0.000
 97  3  9  2 24 29.9970000  0  6 24 17  5 30  6 10                  -0.002362872
 -25339605.970 9 -19718639.82648  21213985.218    21213984.7244   21213988.9844
        -0.000          -0.000
  -5837250.064 8  -3195350.66645  24111088.236    24111087.0834   24111093.3024
        -0.000          -0.000
 -32632566.186 9 -25416819.15049  19821486.690    19821486.0014   19821490.0734
        -0.000          -0.000
 -27249376.111 9 -21208132.00149  19832303.038    19832303.0424   19832306.3544
        -0.000          -0.000
 -18259192.392 9 -14213759.79647  21736787.995    21736787.6354   21736791.7534
        -0.000          -0.000
 -29679509.473 9 -23112096.24948  20289703.877    20289702.9114   20289707.4174
        -0.000          -0.000
 97  3  9  2 24 59.9970000  0  6 24 17  5 30  6 10                  -0.002372763
 -25286386.480 9 -19677170.11548  21224112.291    21224111.9034   21224116.3844
        -0.000          -0.000
  -5942537.284 8  -3277392.59545  24091052.200    24091051.4634   24091057.7514
        -0.000          -0.000
 -32607506.808 9 -25397292.37049  19826255.309    19826254.6404   19826258.7904
        -0.000          -0.000
 -27287859.242 9 -21238118.84749  19824979.841    19824979.8724   19824983.2234
        -0.000          -0.000
 -18340300.082 9 -14276960.58047  21721353.742    21721353.3704   21721357.4064
        -0.000          -0.000
 -29711382.201 9 -23136932.12048  20283638.704    20283637.7304   20283642.2244
        -0.000          -0.000
 97  3  9  2 25 29.9970000  0  6 24 17  5 30  6 10                  -0.002382609
 -25233017.622 9 -19635583.97648  21234268.042    21234267.6924   21234271.9984
        -0.000          -0.000
  -6047634.954 8  -3359286.85945  24071052.120    24071051.7484   24071058.3814
        -0.000          -0.000
 -32581916.624 9 -25377351.97349  19831124.908    19831124.2384   19831128.4604
        -0.000          -0.000
 -27325771.848 9 -21267661.13049  19817765.331    19817765.3764   19817768.7124
        -0.000          -0.000
 -18421343.740 9 -14340111.45547  21705931.571    21705931.2064   21705935.2444
        -0.000          -0.000
 -29742616.581 9 -23161270.58248  20277695.006    20277694.0254   20277698.5644
        -0.000          -0.000
 97  3  9  2 25 59.9970000  0  6 24 17  5 30  6 10                  -0.002392452
 -25179567.508 9 -19593934.51648  21244439.283    21244438.8714   21244443.1624
        -0.000          -0.000
  -6152604.509 8  -3441081.32945  24051077.005    24051076.5174   24051083.1634
        -0.000          -0.000
 -32555858.321 9 -25357046.80949  19836083.655    19836082.9754   19836087.2194
        -0.000          -0.000
 -27363171.266 9 -21296803.52149  19810648.435    19810648.4544   19810651.8764
        -0.000          -0.000
 -18502368.806 9 -14403247.83347  21690513.054    21690512.6604   21690516.6364
        -0.000          -0.000
 -29773277.657 9 -23185162.30848  20271860.335    20271859.3344   20271863.9244
        -0.000          -0.000
 97  3  9  2 26 29.9970000  0  6 24 17  5 30  6 10                  -0.002402256
 -25125961.990 9 -19552163.99047  21254639.965    21254639.6094   21254643.9814
        -0.000          -0.000
  -6257403.118 9  -3522742.59845  24031134.497    24031133.8234   24031140.5154
        -0.000          -0.000
 -32529284.021 9 -25336339.56549  19841140.545    19841139.8754   19841144.2044
        -0.000          -0.000
 -27399997.545 9 -21325499.32549  19803640.573    19803640.6154   19803644.0354
        -0.000          -0.000
 -18583316.927 9 -14466324.26547  21675109.136    21675108.7544   21675112.6744
        -0.000          -0.000
 -29803306.210 9 -23208561.16748  20266146.088    20266145.0904   20266149.6564
        -0.000          -0.000
 97  3  9  2 26 59.9970000  0  6 24 17  5 30  6 10                  -0.002412028
 -25072191.130 9 -19510264.62847  21264872.111    21264871.7554   21264876.3334
        -0.000          -0.000
  -6362024.284 9  -3604265.59745  24011225.641    24011224.9954   24011231.8864
        -0.000          -0.000
 -32502183.077 9 -25315221.94449  19846297.651    19846297.0244   19846301.3644
        -0.000          -0.000
 -27436214.994 9 -21353720.70749  19796748.595    19796748.6464   19796752.0684
        -0.000          -0.000
 -18664153.944 9 -14529314.11947  21659726.394    21659726.0044   21659729.8744
        -0.000          -0.000
 -29832690.183 9 -23231457.74748  20260554.471    20260553.4514   20260557.9544
        -0.000          -0.000
 97  3  9  2 27 29.9970000  0  6 24 17  5 30  6 10                  -0.002421808
 -25018292.666 9 -19468265.81848  21275128.781    21275128.4054   21275132.9674
        -0.000          -0.000
  -6466510.033 9  -3685683.05245  23991342.728    23991342.1194   23991348.9784
        -0.000          -0.000
 -32474572.510 9 -25293707.23049  19851551.821    19851551.1674   19851555.4794
        -0.000          -0.000
 -27471850.131 9 -21381488.34849  19789967.491    19789967.5204   19789970.9044
        -0.000          -0.000
 -18744925.038 9 -14592252.60447  21644356.072    21644355.7544   21644359.6564
        -0.000          -0.000
 -29861480.137 9 -23253891.46548  20255075.900    20255074.8934   20255079.4044
        -0.000          -0.000
 97  3  9  2 27 59.9970000  0  6 24 17  5 30  6 10                  -0.002431605
 -24964259.352 9 -19426161.93848  21285411.024    21285410.6574   21285415.1784
        -0.000          -0.000
  -6570858.979 9  -3766993.89846  23971485.983    23971485.2964   23971491.9124
        -0.000          -0.000
 -32446425.844 9 -25271774.77349  19856908.020    19856907.3394   19856911.5604
        -0.000          -0.000
 -27506881.756 9 -21408785.71649  19783301.184    19783301.2164   19783304.5794
        -0.000          -0.000
 -18825626.883 9 -14655137.13347  21628998.980    21628998.6364   21629002.6244
        -0.000          -0.000
 -29889663.556 9 -23275852.55248  20249712.742    20249711.7464   20249716.2714
        -0.000          -0.000
 97  3  9  2 28 29.9970000  0  6 24 17  5 30  6 10                  -0.002441433
 -24910106.288 9 -19383964.73348  21295716.012    21295715.6834   21295720.2014
        -0.000          -0.000
  -6675081.783 8  -3848206.41646  23951653.256    23951652.3664   23951658.8534
        -0.000          -0.000
 -32417738.622 9 -25249421.10249  19862367.008    19862366.3604   19862370.5294
        -0.000          -0.000
 -27541310.646 9 -21435613.42449  19776749.594    19776749.6214   19776752.9364
        -0.000          -0.000
 -18906266.863 9 -14717973.45647  21613653.571    21613653.3294   21613657.3874
        -0.000          -0.000
 -29917229.122 9 -23297332.19648  20244467.162    20244466.1584   20244470.7244
        -0.000          -0.000
 97  3  9  2 28 59.9970000  0  6 24 17  5 30  6 10                  -0.002451296
 -24855878.455 9 -19341709.29148  21306035.185    21306034.8894   21306039.4984
        -0.000          -0.000
  -6779159.058 8  -3929305.52545  23931847.732    23931847.0474   23931853.6084
        -0.000          -0.000
 -32388511.959 9 -25226647.09049  19867928.615    19867927.9904   19867932.1894
        -0.000          -0.000
 -27575156.210 9 -21461986.59149  19770309.044    19770309.0504   19770312.3494
        -0.000          -0.000
 -18986861.448 9 -14780774.39847  21598316.960    21598316.6474   21598320.8034
        -0.000          -0.000
 -29944191.244 9 -23318341.62648  20239336.361    20239335.3904   20239339.9784
        -0.000          -0.000
 97  3  9  2 29 29.9970000  0  6 24 17  5 30  6 10                  -0.002461199
 -24801585.055 9 -19299402.72548  21316367.006    21316366.6664   21316371.2004
        -0.000          -0.000
  -6883098.322 8  -4010297.12945  23912068.546    23912068.0304   23912074.5134
        -0.000          -0.000
 -32358746.975 9 -25203453.61149  19873592.703    19873592.0684   19873596.2804
        -0.000          -0.000
 -27608435.426 9 -21487918.45149  19763976.246    19763976.2544   19763979.5284
        -0.000          -0.000
 -19067428.659 9 -14843554.02347  21582985.446    21582985.1504   21582989.3754
        -0.000          -0.000
 -29970574.464 9 -23338899.96448  20234315.804    20234314.8554   20234319.3704
        -0.000          -0.000
 97  3  9  2 29 59.9970000  0  6 24 17  5 30  6 10                  -0.002471105
 -24747173.703 9 -19257004.27747  21326721.109    21326720.7684   21326725.3684
        -0.000          -0.000
  -6986844.108 8  -4091137.94445  23892326.300    23892325.7174   23892332.4204
        -0.000          -0.000
 -32328405.815 9 -25179811.16149  19879366.518    19879365.8614   19879370.0384
        -0.000          -0.000
 -27641093.448 9 -21513366.26349  19757761.634    19757761.6164   19757764.8774
        -0.000          -0.000
 -19147902.602 9 -14906260.96547  21567671.739    21567671.4524   21567675.7214
        -0.000          -0.000
 -29996337.074 9 -23358974.70748  20229413.409    20229412.4494   20229416.8964
        -0.000          -0.000
 97  3  9  2 30 29.9970000  0  6 24 17  5 30  6 10                  -0.002480984
 -24692629.841 9 -19214502.56547  21337100.325    21337100.0734   21337104.6974
        -0.000          -0.000
  -7090368.423 8  -4171806.17445  23872625.647    23872625.1074   23872632.2354
        -0.000          -0.000
 -32297502.501 9 -25155730.66849  19885247.265    19885246.5904   19885250.8184
        -0.000          -0.000
 -27673134.605 9 -21538333.39549  19751664.353    19751664.3574   19751667.6774
        -0.000          -0.000
 -19228275.581 9 -14968889.23847  21552377.241    21552376.9504   21552381.2634
        -0.000          -0.000
 -30021477.019 9 -23378564.25848  20224629.464    20224628.4614   20224632.9404
        -0.000          -0.000
 97  3  9  2 30 59.9970000  0  6 24 17  5 30  6 10                  -0.002490825
 -24637934.678 9 -19171882.95547  21347508.509    21347508.1684   21347512.7274
        -0.000          -0.000
  -7193672.656 8  -4252302.90645  23852967.035    23852966.5654   23852974.1634
        -0.000          -0.000
 -32266050.166 9 -25131222.36349  19891232.395    19891231.7374   19891236.0354
        -0.000          -0.000
 -27704563.889 9 -21562823.74749  19745683.568    19745683.5684   19745686.8614
        -0.000          -0.000
 -19308543.323 9 -15031435.50747  21537102.790    21537102.5044   21537106.7424
        -0.000          -0.000
 -30046012.568 9 -23397682.85448  20219960.453    20219959.4334   20219963.9664
        -0.000          -0.000
 97  3  9  2 31 29.9970000  0  6 24 17  5 30  6 10                  -0.002500633
 -24583080.898 9 -19129139.75047  21357946.824    21357946.4824   21357951.1204
        -0.000          -0.000
  -7296806.794 9  -4332667.11845  23833341.981    23833341.3094   23833348.2964
        -0.000          -0.000
 -32234088.098 9 -25106316.85649  19897314.563    19897313.8964   19897318.2284
        -0.000          -0.000
 -27735407.185 9 -21586857.47649  19739814.201    19739814.2014   19739817.5764
        -0.000          -0.000
 -19388715.823 9 -15093907.56647  21521846.542    21521846.2264   21521850.3264
        -0.000          -0.000
 -30069955.508 9 -23416339.67448  20215404.199    20215403.2074   20215407.6974
        -0.000          -0.000
 97  3  9  2 31 59.9970000  0  6 24 17  5 30  6 10                  -0.002510406
 -24528075.969 9 -19086278.76947  21368413.895    21368413.4964   21368418.1584
        -0.000          -0.000
  -7399773.016 9  -4412900.50145  23813748.706    23813747.8854   23813754.2204
        -0.000          -0.000
 -32201629.389 9 -25081024.36349  19903491.240    19903490.6004   19903494.9194
        -0.000          -0.000
 -27765680.536 9 -21610447.09849  19734053.394    19734053.3894   19734056.7994
        -0.000          -0.000
 -19468797.162 9 -15156308.58747  21506607.532    21506607.2164   21506611.2744
        -0.000          -0.000
 -30093295.048 9 -23434526.31248  20210962.855    20210961.8524   20210966.3244
        -0.000          -0.000
 97  3  9  2 32 29.9970000  0  6 24 17  5 30  6 10                  -0.002520142
 -24472929.649 9 -19043307.60547  21378907.749    21378907.4404   21378911.9334
        -0.000          -0.000
  -7502564.178 9  -4492997.46245  23794188.125    23794187.4574   23794193.3954
        -0.000          -0.000
 -32168676.021 9 -25055346.42249  19909762.140    19909761.4794   19909765.7834
        -0.000          -0.000
 -27795379.784 9 -21633589.36549  19728401.821    19728401.8024   19728405.2464
        -0.000          -0.000
 -19548801.223 9 -15218649.39747  21491383.227    21491382.9254   21491386.8644
        -0.000          -0.000
 -30116011.427 9 -23452227.37448  20206640.085    20206639.1054   20206643.5774
        -0.000          -0.000
 97  3  9  2 32 59.9970000  0  6 24 17  5 30  6 10                  -0.002529851
 -24417643.131 9 -19000227.19047  21389428.564    21389428.1674   21389432.6164
        -0.000          -0.000
  -7605180.377 9  -4572958.10645  23774661.107    23774660.3064   23774665.6404
        -0.000          -0.000
 -32135199.354 9 -25029260.71849  19916132.489    19916131.8194   19916136.1494
        -0.000          -0.000
 -27824486.348 9 -21656269.79949  19722863.034    19722863.0064   19722866.4244
        -0.000          -0.000
 -19628720.404 9 -15280924.06947  21476175.050    21476174.7944   21476178.6354
        -0.000          -0.000
 -30138091.870 9 -23469432.89749  20202438.371    20202437.3644   20202441.7814
        -0.000          -0.000
 97  3  9  2 33 29.9970000  0  6 24 17  5 30  6 10                  -0.002539547
 -24362238.025 9 -18957054.37247  21399971.822    21399971.4284   21399975.8774
        -0.000          -0.000
  -7707612.122 8  -4652775.00545  23755168.919    23755167.9494   23755173.0594
        -0.000          -0.000
 -32101184.415 9 -25002755.57749  19922605.234    19922604.6084   19922608.9524
        -0.000          -0.000
 -27852991.456 9 -21678481.56749  19717438.692    19717438.6714   19717442.1064
        -0.000          -0.000
 -19708565.627 9 -15343141.10247  21460980.974    21460980.7124   21460984.5334
        -0.000          -0.000
 -30159542.266 9 -23486147.46949  20198356.497    20198355.4794   20198359.8924
        -0.000          -0.000
 97  3  9  2 33 59.9970000  0  6 24 17  5 30  6 10                  -0.002549238
 -24306733.659 9 -18913804.20447  21410534.010    21410533.5964   21410538.0854
        -0.000          -0.000
  -7809841.258 9  -4732434.01545  23735715.139    23735714.1684   23735719.2144
        -0.000          -0.000
 -32066624.076 9 -24975825.45549  19929181.843    19929181.1854   19929185.5174
        -0.000          -0.000
 -27880875.457 9 -21700209.35949  19712132.545    19712132.5254   19712135.9674
        -0.000          -0.000
 -19788347.150 9 -15405308.50047  21445798.962    21445798.7634   21445802.6744
        -0.000          -0.000
 -30180372.876 9 -23502379.09349  20194392.540    20194391.5244   20194395.9604
        -0.000          -0.000
 97  3  9  2 34 29.9970000  0  6 24 17  5 30  6 10                  -0.002558948
 -24251154.332 9 -18870495.65447  21421110.286    21421109.8844   21421114.5744
        -0.000          -0.000
  -7911900.973 9  -4811961.00645  23716293.993    23716293.0014   23716297.9034
        -0.000          -0.000
 -32031554.003 9 -24948498.14149  19935855.467    19935854.8254   19935859.0904
        -0.000          -0.000
 -27908150.139 9 -21721462.36149  19706942.317    19706942.3084   19706945.7494
        -0.000          -0.000
 -19868095.262 9 -15467449.86248  21430623.391    21430623.1894   21430627.1804
        -0.000          -0.000
 -30200618.073 9 -23518154.55848  20190539.979    20190538.9614   20190543.4354
        -0.000          -0.000
 97  3  9  2 34 59.9970000  0  6 24 17  5 30  6 10                  -0.002568705
 -24195519.955 9 -18827144.18347  21431697.125    21431696.7654   21431701.3644
        -0.000          -0.000
  -8013833.769 9  -4891389.09545  23696897.225    23696896.1504   23696901.0974
        -0.000          -0.000
 -31996001.716 9 -24920795.08049  19942620.872    19942620.2314   19942624.3974
        -0.000          -0.000
 -27934842.527 9 -21742261.62249  19701862.930    19701862.9044   19701866.3554
        -0.000          -0.000
 -19947830.909 9 -15529581.50948  21415450.243    21415450.0034   21415454.0584
        -0.000          -0.000
 -30220322.504 9 -23533508.64348  20186790.283    20186789.2774   20186793.7454
        -0.000          -0.000
 97  3  9  2 35 29.9970000  0  6 24 17  5 30  6 10                  -0.002578505
 -24139828.493 9 -18783748.23147  21442294.929    21442294.5584   21442298.9904
        -0.000          -0.000
  -8115644.701 9  -4970722.23846  23677523.263    23677522.2334   23677527.3444
        -0.000          -0.000
 -31959994.434 9 -24892737.47149  19949472.908    19949472.2284   19949476.3104
        -0.000          -0.000
 -27960955.060 9 -21762609.05049  19696893.843    19696893.8344   19696897.2684
        -0.000          -0.000
 -20027552.589 9 -15591702.27348  21400279.758    21400279.4754   21400283.6154
        -0.000          -0.000
 -30239480.373 9 -23548436.83948  20183144.617    20183143.6204   20183148.1104
        -0.000          -0.000
 97  3  9  2 35 59.9970000  0  6 24 17  5 30  6 10                  -0.002588311
 -24084033.339 9 -18740271.47747  21452912.414    21452912.0284   21452916.3624
        -0.000          -0.000
  -8217300.771 9  -5049934.69446  23658178.583    23658177.5354   23658183.1744
        -0.000          -0.000
 -31923509.135 9 -24864307.38449  19956415.810    19956415.1414   19956419.1894
        -0.000          -0.000
 -27986453.431 9 -21782477.91349  19692041.663    19692041.6634   19692045.0774
        -0.000          -0.000
 -20107213.038 9 -15653775.32748  21385120.857    21385120.5894   21385124.7074
        -0.000          -0.000
 -30258022.275 9 -23562885.05848  20179616.192    20179615.2134   20179619.6814
        -0.000          -0.000
 97  3  9  2 36 29.9970000  0  6 24 17  5 30  6 10                  -0.002598095
 -24028085.841 9 -18696676.03047  21463558.889    21463558.4984   21463562.8314
        -0.000          -0.000
  -8318761.983 8  -5128995.33745  23638870.710    23638869.5924   23638876.0454
        -0.000          -0.000
 -31886501.416 9 -24835470.21649  19963458.184    19963457.4864   19963461.5154
        -0.000          -0.000
 -28011300.348 9 -21801839.14849  19687313.443    19687313.4274   19687316.8614
        -0.000          -0.000
 -20186761.514 9 -15715761.12548  21369983.299    21369982.9794   21369987.1084
        -0.000          -0.000
 -30275899.964 9 -23576815.71348  20176214.189    20176213.1684   20176217.6344
        -0.000          -0.000
 97  3  9  2 36 59.9970000  0  6 24 17  5 30  6 10                  -0.002607865
 -23972023.596 9 -18652991.16647  21474227.165    21474226.8024   21474231.1924
        -0.000          -0.000
  -8420045.080 9  -5207917.19845  23619596.777    23619595.9144   23619602.7474
        -0.000          -0.000
 -31848993.299 9 -24806243.11249  19970595.755    19970595.0754   19970599.1344
        -0.000          -0.000
 -28035536.990 9 -21820724.84149  19682701.386    19682701.3794   19682704.8234
        -0.000          -0.000
 -20266213.486 9 -15777671.72348  21354864.037    21354863.7464   21354867.8494
        -0.000          -0.000
 -30293137.117 9 -23590247.24748  20172933.983    20172932.9794   20172937.5064
        -0.000          -0.000
 97  3  9  2 37 29.9970000  0  6 24 17  5 30  6 10                  -0.002617603
 -23915848.148 9 -18609218.09147  21484917.072    21484916.6824   21484921.1484
        -0.000          -0.000
  -8521130.876 9  -5286685.32746  23600360.882    23600360.1004   23600366.8024
        -0.000          -0.000
 -31810974.144 9 -24776617.80649  19977830.558    19977829.9064   19977834.0144
        -0.000          -0.000
 -28059171.459 9 -21839141.31249  19678203.938    19678203.9134   19678207.3464
        -0.000          -0.000
 -20345561.144 9 -15839501.03548  21339764.588    21339764.3394   21339768.3774
        -0.000          -0.000
 -30309716.926 9 -23603166.56948  20169778.872    20169777.9034   20169782.4264
        -0.000          -0.000
 97  3  9  2 37 59.9970000  0  6 24 17  5 30  6 10                  -0.002627319
 -23859566.932 9 -18565362.59547  21495627.042    21495626.6574   21495631.0964
        -0.000          -0.000
  -8622019.493 9  -5365299.80346  23581162.566    23581161.9104   23581168.1174
        -0.000          -0.000
 -31772429.841 9 -24746583.28249  19985165.334    19985164.6684   19985168.8414
        -0.000          -0.000
 -28082206.317 9 -21857090.54949  19673820.570    19673820.5574   19673823.9234
        -0.000          -0.000
 -20424806.924 9 -15901250.96648  21324684.542    21324684.2784   21324688.2944
        -0.000          -0.000
 -30325666.887 9 -23615595.09348  20166743.762    20166742.7944   20166747.2364
        -0.000          -0.000
 97  3  9  2 38 29.9970000  0  6 24 17  5 30  6 10                  -0.002637017
 -23803184.895 9 -18521428.54147  21506356.183    21506355.8004   21506360.2384
        -0.000          -0.000
  -8722714.770 9  -5443763.60645  23562001.159    23562000.4364   23562006.2244
        -0.000          -0.000
 -31733370.600 9 -24716147.51449  19992598.093    19992597.3834   19992601.6644
        -0.000          -0.000
 -28104652.094 9 -21874580.76749  19669549.365    19669549.3244   19669552.6464
        -0.000          -0.000
 -20503964.023 9 -15962931.79648  21309621.355    21309621.1264   21309625.1354
        -0.000          -0.000
 -30341024.242 9 -23627561.85748  20163821.394    20163820.3684   20163824.8254
        -0.000          -0.000
 97  3  9  2 38 59.9970000  0  6 24 17  5 30  6 10                  -0.002646686
 -23746685.044 9 -18477402.68547  21517107.765    21517107.3664   21517111.8584
        -0.000          -0.000
  -8823198.363 9  -5522062.42645  23542879.824    23542878.9754   23542884.6814
        -0.000          -0.000
 -31693768.215 9 -24685288.51149  20000134.123    20000133.4264   20000137.7934
        -0.000          -0.000
 -28126487.207 9 -21891595.13949  19665394.300    19665394.2814   19665397.6124
        -0.000          -0.000
 -20583015.101 9 -16024530.02648  21294578.435    21294578.2304   21294582.1704
        -0.000          -0.000
 -30355764.038 9 -23639047.40048  20161016.404    20161015.4294   20161019.9164
        -0.000          -0.000
 97  3  9  2 39 29.9970000  0  6 24 17  5 30  6 10                  -0.002656353
 -23690084.253 9 -18433298.17247  21527878.485    21527878.1304   21527882.5664
        -0.000          -0.000
  -8923499.231 9  -5600218.91145  23523792.811    23523792.0784   23523798.1214
        -0.000          -0.000
 -31653634.146 9 -24654015.20949  20007771.351    20007770.6694   20007775.0854
        -0.000          -0.000
 -28147715.834 9 -21908136.92249  19661354.631    19661354.6074   19661357.8984
        -0.000          -0.000
 -20661989.367 9 -16086068.37048  21279550.206    21279549.9044   21279553.8204
        -0.000          -0.000
 -30369908.108 9 -23650068.73848  20158324.881    20158323.9134   20158328.3784
        -0.000          -0.000
 97  3  9  2 39 59.9970000  0  6 24 17  5 30  6 10                  -0.002666035
 -23633401.966 9 -18389130.14447  21538664.825    21538664.3934   21538668.7624
        -0.000          -0.000
  -9023641.663 9  -5678251.96345  23504736.161    23504735.4804   23504741.5924
        -0.000          -0.000
 -31612996.616 9 -24622349.60749  20015504.430    20015503.7254   20015508.1794
        -0.000          -0.000
 -28168341.297 9 -21924208.71249  19657429.753    19657429.7054   19657433.0504
        -0.000          -0.000
 -20740902.466 9 -16147559.07748  21264533.608    21264533.3004   21264537.1274
        -0.000          -0.000
 -30383472.666 9 -23660638.51248  20155743.710    20155742.6804   20155747.1264
        -0.000          -0.000
 97  3  9  2 40 29.9970000  0  6 24 17  5 30  6 10                  -0.002675718
 -23576638.935 9 -18344899.22347  21549466.346    21549465.9254   21549470.4474
        -0.000          -0.000
  -9123614.629 9  -5756152.95046  23485712.164    23485711.3804   23485717.2434
        -0.000          -0.000
 -31571858.525 9 -24590293.96049  20023332.734    20023332.0264   20023336.5034
        -0.000          -0.000
 -28188365.983 9 -21939812.36149  19653619.138    19653619.0834   19653622.4494
        -0.000          -0.000
 -20819750.771 9 -16208999.29048  21249529.238    21249528.9274   21249532.7884
        -0.000          -0.000
 -30396422.655 9 -23670729.40148  20153279.316    20153278.2964   20153282.8574
        -0.000          -0.000
 97  3  9  2 40 59.9970000  0  6 24 17  5 30  6 10                  -0.002685425
 -23519824.835 9 -18300628.50647  21560277.594    21560277.2504   21560281.9484
        -0.000          -0.000
  -9223438.688 9  -5833937.89945  23466716.296    23466715.5214   23466721.1174
        -0.000          -0.000
 -31530228.617 9 -24557855.07749  20031254.641    20031253.9614   20031258.3804
        -0.000          -0.000
 -28207804.114 9 -21954958.95949  19649920.090    19649920.0644   19649923.4934
        -0.000          -0.000
 -20898545.102 9 -16270397.45148  21234535.203    21234534.8874   21234538.7564
        -0.000          -0.000
 -30408767.225 9 -23680348.53648  20150930.198    20150929.1924   20150933.7384
        -0.000          -0.000
 97  3  9  2 41 29.9970000  0  6 24 17  5 30  6 10                  -0.002695140
 -23462943.447 9 -18256305.34847  21571101.717    21571101.3874   21571106.1584
        -0.000          -0.000
  -9323100.121 9  -5911596.11646  23447751.322    23447750.6704   23447756.1254
        -0.000          -0.000
 -31488118.129 9 -24525041.72049  20039268.039    20039267.3544   20039271.6894
        -0.000          -0.000
 -28226647.317 9 -21969641.97949  19646334.313    19646334.3064   19646337.7814
        -0.000          -0.000
 -20977270.286 9 -16331741.73748  21219554.293    21219553.9694   21219557.8904
        -0.000          -0.000
 -30420499.859 9 -23689490.83548  20148697.611    20148696.6084   20148701.0684
        -0.000          -0.000
 97  3  9  2 41 59.9970000  0  6 24 17  5 30  6 10                  -0.002704832
 -23405967.630 9 -18211908.60247  21581943.973    21581943.6114   21581948.3074
        -0.000          -0.000
  -9422560.730 9  -5989097.85046  23428824.762    23428823.9224   23428829.3784
        -0.000          -0.000
 -31445518.109 9 -24491846.91449  20047374.631    20047373.9324   20047378.1564
        -0.000          -0.000
 -28244876.855 9 -21983846.81949  19642865.275    19642865.3074   19642868.7624
        -0.000          -0.000
 -21055893.082 9 -16393006.23448  21204592.821    21204592.4764   21204596.4904
        -0.000          -0.000
 -30431594.789 9 -23698136.22148  20146586.355    20146585.3494   20146589.6954
        -0.000          -0.000
 97  3  9  2 42 29.9970000  0  6 24 17  5 30  6 10                  -0.002714499
 -23348892.548 9 -18167434.50547  21592804.933    21592804.5424   21592809.2524
        -0.000          -0.000
  -9521809.341 9  -6066434.40146  23409938.231    23409937.3874   23409942.8914
        -0.000          -0.000
 -31402416.669 9 -24458261.38648  20055576.549    20055575.8744   20055580.0214
        -0.000          -0.000
 -28262484.919 9 -21997567.38149  19639514.634    19639514.6274   19639518.0604
        -0.000          -0.000
 -21134409.786 9 -16454188.05548  21189651.540    21189651.2104   21189655.2424
        -0.000          -0.000
 -30442058.910 9 -23706290.05948  20144595.141    20144594.0984   20144598.3934
        -0.000          -0.000
 97  3  9  2 42 59.9970000  0  6 24 17  5 30  6 10                  -0.002724158
 -23291716.404 9 -18122881.66147  21603685.154    21603684.7604   21603689.3194
        -0.000          -0.000
  -9620864.445 9  -6143620.14145  23391088.439    23391087.4884   23391093.2734
        -0.000          -0.000
 -31358819.008 9 -24424289.20448  20063872.943    20063872.2204   20063876.2844
        -0.000          -0.000
 -28279463.968 9 -22010797.81149  19636283.630    19636283.6344   19636287.0794
        -0.000          -0.000
 -21212822.140 9 -16515288.58048  21174730.154    21174729.8594   21174733.8934
        -0.000          -0.000
 -30451905.346 9 -23713962.59348  20142721.380    20142720.3654   20142724.6784
        -0.000          -0.000
 97  3  9  2 43 29.9970000  0  6 24 17  5 30  6 10                  -0.002733817
 -23234458.697 9 -18078265.26247  21614580.904    21614580.5474   21614585.1034
        -0.000          -0.000
  -9719747.587 9  -6220671.91646  23372271.323    23372270.4344   23372276.5014
        -0.000          -0.000
 -31314751.404 9 -24389950.83248  20072258.666    20072257.9554   20072261.9684
        -0.000          -0.000
 -28295839.229 9 -22023557.75249  19633167.594    19633167.5814   19633170.9904
        -0.000          -0.000
 -21291151.285 9 -16576324.25748  21159824.606    21159824.2994   21159828.2734
        -0.000          -0.000
 -30461150.598 9 -23721166.67248  20140962.039    20140961.0334   20140965.4084
        -0.000          -0.000
 97  3  9  2 43 59.9970000  0  6 24 17  5 30  6 10                  -0.002743479
 -23177123.179 9 -18033588.23347  21625491.535    21625491.1444   21625495.7464
        -0.000          -0.000
  -9818460.646 9  -6297591.16746  23353486.873    23353486.1574   23353492.1094
        -0.000          -0.000
 -31270194.159 9 -24355230.91848  20080737.599    20080736.8654   20080740.8694
        -0.000          -0.000
 -28311608.639 9 -22035845.61049  19630166.846    19630166.8284   19630170.1714
        -0.000          -0.000
 -21369402.677 9 -16637299.35448  21144933.885    21144933.5474   21144937.4814
        -0.000          -0.000
 -30469800.043 9 -23727906.48348  20139316.113    20139315.1024   20139319.4994
        -0.000          -0.000
 97  3  9  2 44 29.9970000  0  6 24 17  5 30  6 10                  -0.002753135
 -23119682.624 9 -17988829.36947  21636422.021    21636421.6174   21636426.3324
        -0.000          -0.000
  -9916982.114 9  -6374361.09846  23334739.132    23334738.2874   23334743.9934
        -0.000          -0.000
 -31225116.359 9 -24320105.37548  20089315.614    20089314.9074   20089318.9494
        -0.000          -0.000
 -28326732.962 9 -22047630.81249  19627288.779    19627288.7614   19627292.0824
        -0.000          -0.000
 -21447550.371 9 -16698193.64848  21130062.753    21130062.4824   21130066.3714
        -0.000          -0.000
 -30477816.808 9 -23734153.30648  20137790.543    20137789.5484   20137793.9274
        -0.000          -0.000
 97  3  9  2 44 59.9970000  0  6 24 17  5 30  6 10                  -0.002762792
 -23062159.076 9 -17944005.81047  21647368.351    21647367.9894   21647372.7024
        -0.000          -0.000
 -10015331.458 9  -6450996.91246  23316023.823    23316023.0144   23316028.6354
        -0.000          -0.000
 -31179553.773 9 -24284602.06548  20097985.932    20097985.2044   20097989.3084
        -0.000          -0.000
 -28341247.900 9 -22058941.16749  19624526.657    19624526.6634   19624529.9904
        -0.000          -0.000
 -21525614.849 9 -16759023.10248  21115207.543    21115207.2464   21115211.0934
        -0.000          -0.000
 -30485217.108 9 -23739919.75548  20136382.327    20136381.3034   20136385.6764
        -0.000          -0.000
 97  3  9  2 45 29.9970000  0  6 24 17  5 30  6 10                  -0.002772424
 -23004549.896 9 -17899115.53447  21658331.068    21658330.6904   21658335.3474
        -0.000          -0.000
 -10113481.571 9  -6527477.45846  23297346.431    23297345.5644   23297351.3184
        -0.000          -0.000
 -31133506.614 9 -24248721.17449  20106748.466    20106747.7484   20106751.8854
        -0.000          -0.000
 -28355161.826 9 -22069783.19049  19621878.915    19621878.9264   19621882.2414
        -0.000          -0.000
 -21603584.563 9 -16819778.70348  21100370.418    21100370.1284   21100373.9404
        -0.000          -0.000
 -30492002.735 9 -23745207.24748  20135090.965    20135089.9874   20135094.3654
        -0.000          -0.000
 97  3  9  2 45 59.9970000  0  6 24 17  5 30  6 10                  -0.002782027
 -22946850.205 9 -17854154.73647  21669311.041    21669310.6584   21669315.1904
        -0.000          -0.000
 -10211418.995 9  -6603792.31145  23278709.354    23278708.6054   23278714.3104
        -0.000          -0.000
 -31086986.865 9 -24212472.03349  20115600.959    20115600.2304   20115604.3574
        -0.000          -0.000
 -28368460.561 9 -22080145.83749  19619348.251    19619348.2384   19619351.5894
        -0.000          -0.000
 -21681457.014 9 -16880458.52648  21085551.817    21085551.5074   21085555.3384
        -0.000          -0.000
 -30498177.188 9 -23750018.49748  20133916.036    20133915.0314   20133919.4524
        -0.000          -0.000
 97  3  9  2 46 29.9970000  0  6 24 17  5 30  6 10                  -0.002791596
 -22889072.364 9 -17809133.04247  21680305.839    21680305.4074   21680309.9144
        -0.000          -0.000
 -10309141.808 9  -6679939.96745  23260113.212    23260112.5204   23260118.4054
        -0.000          -0.000
 -31040015.707 9 -24175871.14649  20124539.261    20124538.5424   20124542.6864
        -0.000          -0.000
 -28381159.937 9 -22090041.44249  19616931.587    19616931.5714   19616935.0114
        -0.000          -0.000
 -21759229.523 9 -16941060.45948  21070752.158    21070751.8724   21070755.7014
        -0.000          -0.000
 -30503746.675 9 -23754358.34848  20132856.172    20132855.2044   20132859.6114
        -0.000          -0.000
 97  3  9  2 46 59.9970000  0  6 24 17  5 30  6 10                  -0.002801135
 -22831237.784 9 -17764067.13747  21691311.317    21691310.8984   21691315.3864
        -0.000          -0.000
 -10406667.523 9  -6755934.00446  23241554.670    23241553.9264   23241560.0364
        -0.000          -0.000
 -30992609.082 9 -24138930.92449  20133560.471    20133559.7474   20133563.9424
        -0.000          -0.000
 -28393300.900 9 -22099501.92249  19614621.240    19614621.2504   19614624.6684
        -0.000          -0.000
 -21836923.822 9 -17001601.44648  21055967.462    21055967.1374   21055971.0084
        -0.000          -0.000
 -30508745.929 9 -23758253.85448  20131904.867    20131903.8634   20131908.2074
        -0.000          -0.000
 97  3  9  2 47 29.9970000  0  6 24 17  5 30  6 10                  -0.002810646
 -22773333.260 9 -17718946.73647  21702330.180    21702329.8194   21702334.1904
        -0.000          -0.000
 -10503987.886 9  -6831768.01246  23223035.251    23223034.4084   23223040.6384
        -0.000          -0.000
 -30944741.121 9 -24101631.22449  20142669.410    20142668.7014   20142672.9664
        -0.000          -0.000
 -28404854.144 9 -22108504.45849  19612422.732    19612422.7324   19612426.1024
        -0.000          -0.000
 -21914523.688 9 -17062068.86748  21041200.712    21041200.3804   21041204.2944
        -0.000          -0.000
 -30513165.624 9 -23761697.76448  20131063.811    20131062.7954   20131067.0664
        -0.000          -0.000
 97  3  9  2 47 59.9970000  0  6 24 17  5 30  6 10                  -0.002820155
 -22715369.494 9 -17673780.14847  21713360.424    21713360.0544   21713364.3314
        -0.000          -0.000
 -10601128.996 9  -6907462.33246  23204550.072    23204549.1254   23204555.3744
        -0.000          -0.000
 -30896419.172 9 -24063977.75649  20151864.779    20151864.0554   20151868.4114
        -0.000          -0.000
 -28415809.082 9 -22117040.77849  19610338.106    19610338.0854   19610341.4614
        -0.000          -0.000
 -21992048.585 9 -17122477.86548  21026448.200    21026447.9034   21026451.8424
        -0.000          -0.000
 -30517011.321 9 -23764694.39848  20130331.933    20130330.9524   20130335.2284
        -0.000          -0.000
 97  3  9  2 48 29.9970000  0  6 24 17  5 30  6 10                  -0.002829686
 -22657375.872 9 -17628590.31247  21724396.190    21724395.8344   21724400.1324
        -0.000          -0.000
 -10698131.626 9  -6983048.77546  23186091.046    23186090.1534   23186096.4284
        -0.000          -0.000
 -30847658.394 9 -24025982.34549  20161143.620    20161142.9014   20161147.3504
        -0.000          -0.000
 -28426203.912 9 -22125140.65749  19608360.026    19608360.0054   19608363.3734
        -0.000          -0.000
 -22069516.218 9 -17182842.23948  21011706.593    21011706.2594   21011710.2344
        -0.000          -0.000
 -30520291.115 9 -23767250.06948  20129707.789    20129706.8344   20129711.0924
        -0.000          -0.000
 97  3  9  2 48 59.9970000  0  6 24 17  5 30  6 10                  -0.002839214
 -22599289.046 9 -17583327.84147  21735449.830    21735449.4624   21735453.7024
        -0.000          -0.000
 -10794947.447 9  -7058489.66246  23167667.668    23167666.7084   23167672.8694
        -0.000          -0.000
 -30798400.171 9 -23987599.31749  20170517.073    20170516.3924   20170520.9064
        -0.000          -0.000
 -28435960.240 9 -22132743.00049  19606503.475    19606503.4504   19606506.8214
        -0.000          -0.000
 -22146862.987 9 -17243112.43848  20996987.970    20996987.6584   20996991.6024
        -0.000          -0.000
 -30522938.335 9 -23769312.83048  20129204.098    20129203.1034   20129207.3684
        -0.000          -0.000
 97  3  9  2 49 29.9970000  0  6 24 17  5 30  6 10                  -0.002848766
 -22541131.021 9 -17538009.90947  21746516.863    21746516.4804   21746520.8594
        -0.000          -0.000
 -10891598.512 9  -7133802.14546  23149275.645    23149274.5314   23149280.6724
        -0.000          -0.000
 -30748669.992 9 -23948848.53348  20179980.443    20179979.7414   20179984.2814
        -0.000          -0.000
 -28445073.824 9 -22139844.49849  19604769.173    19604769.1314   19604772.5744
        -0.000          -0.000
 -22224097.781 9 -17303295.38048  20982290.715    20982290.3334   20982294.2934
        -0.000          -0.000
 -30524952.064 9 -23770881.95548  20128820.841    20128819.8584   20128824.1954
        -0.000          -0.000
 97  3  9  2 49 59.9970000  0  6 24 17  5 30  6 10                  -0.002858333
 -22482895.025 9 -17492631.21647  21757598.716    21757598.3784   21757602.8064
        -0.000          -0.000
 -10988068.014 9  -7208973.16446  23130917.722    23130916.8594   23130923.0614
        -0.000          -0.000
 -30698469.041 9 -23909730.91948  20189533.329    20189532.6374   20189537.1374
        -0.000          -0.000
 -28453540.631 9 -22146442.00149  19603157.968    19603157.9264   19603161.4364
        -0.000          -0.000
 -22301204.557 9 -17363378.55648  20967617.715    20967617.3114   20967621.3204
        -0.000          -0.000
 -30526304.936 9 -23771936.13048  20128563.361    20128562.3664   20128566.7414
        -0.000          -0.000
 97  3  9  2 50 29.9970000  0  6 24 17  5 30  6 10                  -0.002867914
 -22424607.218 9 -17447212.13947  21768690.565    21768690.1704   21768694.5874
        -0.000          -0.000
 -11084363.201 9  -7284008.33246  23112593.213    23112592.4454   23112598.6034
        -0.000          -0.000
 -30647814.201 9 -23870259.63048  20199172.707    20199171.9944   20199176.4174
        -0.000          -0.000
 -28461394.916 9 -22152562.22149  19601663.370    19601663.3614   19601666.8584
        -0.000          -0.000
 -22378188.400 9 -17423365.95148  20952968.110    20952967.7624   20952971.7434
        -0.000          -0.000
 -30527027.841 9 -23772499.42448  20128425.743    20128424.7524   20128429.1784
        -0.000          -0.000
 97  3  9  2 50 59.9970000  0  6 24 17  5 30  6 10                  -0.002877520
 -22366291.957 9 -17401771.69047  21779787.564    21779787.1474   21779791.6984
        -0.000          -0.000
 -11180489.679 9  -7358912.04846  23094301.129    23094300.2284   23094306.1744
        -0.000          -0.000
 -30596729.128 9 -23830453.09348  20208893.888    20208893.1844   20208897.5364
        -0.000          -0.000
 -28468645.056 9 -22158211.68149  19600283.776    19600283.7564   19600287.1764
        -0.000          -0.000
 -22455085.948 9 -17483286.10248  20938335.048    20938334.6434   20938338.5684
        -0.000          -0.000
 -30527165.234 9 -23772606.47248  20128399.654    20128398.6504   20128403.0604
        -0.000          -0.000
 97  3  9  2 51 29.9970000  0  6 24 17  5 30  6 10                  -0.002887122
 -22307934.723 9 -17356298.52547  21790892.675    21790892.2194   21790896.8544
        -0.000          -0.000
 -11276407.461 9  -7433653.12446  23076048.605    23076047.7054   23076053.5274
        -0.000          -0.000
 -30545185.951 9 -23790289.59548  20218702.222    20218701.5244   20218705.8104
        -0.000          -0.000
 -28475278.532 9 -22163380.62949  19599021.478    19599021.4704   19599024.8754
        -0.000          -0.000
 -22531874.527 9 -17543121.33648  20923722.676    20923722.2694   20923726.1454
        -0.000          -0.000
 -30526692.484 9 -23772238.08448  20128489.650    20128488.6474   20128492.9934
        -0.000          -0.000
 97  3  9  2 51 59.9970000  0  6 24 17  5 30  6 10                  -0.002896717
 -22249547.832 9 -17310802.23147  21802003.370    21802002.8284   21802007.4414
        -0.000          -0.000
 -11372113.888 9  -7508229.50546  23057836.165    23057835.2934   23057841.0944
        -0.000          -0.000
 -30493189.639 9 -23749773.00948  20228596.867    20228596.1444   20228600.3344
        -0.000          -0.000
 -28481314.745 9 -22168084.17549  19597872.818    19597872.7854   19597876.1394
        -0.000          -0.000
 -22608558.181 9 -17602874.81348  20909130.300    20909129.8714   20909133.7054
        -0.000          -0.000
 -30525646.398 9 -23771422.94048  20128688.753    20128687.7094   20128692.0044
        -0.000          -0.000
 97  3  9  2 52 29.9970000  0  6 24 17  5 30  6 10                  -0.002906305
 -22191123.383 9 -17265276.68647  21813120.827    21813120.4314   21813125.1504
        -0.000          -0.000
 -11467602.495 9  -7582636.18646  23039665.286    23039664.5424   23039670.1464
        -0.000          -0.000
 -30440731.402 9 -23708896.48148  20238579.371    20238578.6044   20238582.7594
        -0.000          -0.000
 -28486737.034 9 -22172309.33849  19596840.949    19596840.9194   19596844.2484
        -0.000          -0.000
 -22685131.851 9 -17662542.58248  20894558.687    20894558.2794   20894562.2224
        -0.000          -0.000
 -30524031.053 9 -23770164.21648  20128996.150    20128995.0974   20128999.3404
        -0.000          -0.000
 97  3  9  2 52 59.9970000  0  6 24 17  5 30  6 10                  -0.002915892
 -22132650.462 9 -17219713.38147  21824247.846    21824247.4984   21824252.2774
        -0.000          -0.000
 -11562886.024 9  -7656883.05946  23021533.642    23021532.7444   23021538.2974
        -0.000          -0.000
 -30387810.942 9 -23667659.77748  20248649.714    20248648.9724   20248653.1554
        -0.000          -0.000
 -28491525.709 9 -22176040.77949  19595929.616    19595929.6404   19595932.9674
        -0.000          -0.000
 -22761599.252 9 -17722127.54548  20880007.301    20880006.9724   20880011.0274
        -0.000          -0.000
 -30521826.785 9 -23768446.59148  20129415.575    20129414.5464   20129418.7924
        -0.000          -0.000
 97  3  9  2 53 29.9970000  0  6 24 17  5 30  6 10                  -0.002925481
 -22074113.512 9 -17174100.18747  21835387.164    21835386.7164   21835391.3564
        -0.000          -0.000
 -11657967.062 9  -7730972.16046  23003440.212    23003439.4304   23003444.9144
        -0.000          -0.000
 -30334420.385 9 -23626056.76548  20258809.564    20258808.8484   20258813.0104
        -0.000          -0.000
 -28495676.561 9 -22179275.21449  19595139.755    19595139.7474   19595143.0684
        -0.000          -0.000
 -22837936.066 9 -17781610.75648  20865480.866    20865480.5584   20865484.6534
        -0.000          -0.000
 -30519019.845 9 -23766259.35448  20129949.624    20129948.5974   20129952.8934
        -0.000          -0.000
 97  3  9  2 53 59.9970000  0  6 24 17  5 30  6 10                  -0.002935077
 -22015510.324 9 -17128435.35647  21846539.034    21846538.6464   21846543.0934
        -0.000          -0.000
 -11752869.151 9  -7804921.80846  22985381.027    22985380.3324   22985385.6734
        -0.000          -0.000
 -30280566.878 9 -23584093.01148  20269057.559    20269056.8344   20269060.9614
        -0.000          -0.000
 -28499197.883 9 -22182019.10149  19594469.644    19594469.6714   19594473.0214
        -0.000          -0.000
 -22914155.541 9 -17841002.53448  20850976.780    20850976.4894   20850980.5494
        -0.000          -0.000
 -30515633.363 9 -23763620.52348  20130594.076    20130593.0404   20130597.3364
        -0.000          -0.000
 97  3  9  2 54 29.9970000  0  6 24 17  5 30  6 10                  -0.002944674
 -21956826.773 9 -17082707.91347  21857706.251    21857705.8854   21857710.1794
        -0.000          -0.000
 -11847590.680 9  -7878730.77046  22967356.347    22967355.5704   22967360.8954
        -0.000          -0.000
 -30226249.738 9 -23541767.97348  20279393.739    20279393.0584   20279397.1654
        -0.000          -0.000
 -28502080.067 9 -22184264.95649  19593921.176    19593921.1614   19593924.5814
        -0.000          -0.000
 -22990258.622 9 -17900303.61948  20836494.956    20836494.6154   20836498.6114
        -0.000          -0.000
 -30511645.264 9 -23760512.90448  20131352.934    20131351.8954   20131356.2614
        -0.000          -0.000
 97  3  9  2 54 59.9970000  0  6 24 17  5 30  6 10                  -0.002954285
 -21898092.175 9 -17036940.69747  21868883.111    21868882.7484   21868886.9754
        -0.000          -0.000
 -11942152.749 9  -7952415.47646  22949361.883    22949361.0784   22949366.4554
        -0.000          -0.000
 -30171494.107 9 -23499101.26048  20289813.419    20289812.7154   20289816.8874
        -0.000          -0.000
 -28504361.645 9 -22186042.80449  19593486.988    19593486.9714   19593490.4454
        -0.000          -0.000
 -23066259.285 9 -17959524.88748  20822032.561    20822032.1474   20822036.0994
        -0.000          -0.000
 -30507088.624 9 -23756962.26948  20132219.929    20132218.9154   20132223.3534
        -0.000          -0.000
 97  3  9  2 55 29.9970000  0  6 24 17  5 30  6 10                  -0.002963877
 -21839305.822 9 -16991133.13847  21880069.727    21880069.4034   21880073.5334
        -0.000          -0.000
 -12036515.374 9  -8025944.78546  22931405.327    22931404.4594   22931409.8734
        -0.000          -0.000
 -30116290.716 9 -23456085.62648  20300318.328    20300317.6024   20300321.8274
        -0.000          -0.000
 -28506052.269 9 -22187360.17449  19593165.302    19593165.2844   19593168.7774
        -0.000          -0.000
 -23142140.319 9 -18018652.94448  20807592.777    20807592.4144   20807596.3504
        -0.000          -0.000
 -30501958.670 9 -23752964.88948  20133196.158    20133195.1694   20133199.5004
        -0.000          -0.000
 97  3  9  2 55 59.9970000  0  6 24 17  5 30  6 10                  -0.002973459
 -21780495.115 9 -16945306.63047  21891260.971    21891260.7054   21891264.8964
        -0.000          -0.000
 -12130690.649 9  -8099328.10546  22913484.217    22913483.3174   22913488.7614
        -0.000          -0.000
 -30060679.189 9 -23412751.97748  20310900.834    20310900.1064   20310904.3914
        -0.000          -0.000
 -28507181.211 9 -22188239.88449  19592950.460    19592950.4724   19592953.9854
        -0.000          -0.000
 -23217920.690 9 -18077702.57148  20793172.252    20793171.8874   20793175.8094
        -0.000          -0.000
 -30496272.973 9 -23748534.46048  20134278.227    20134277.2204   20134281.4354
        -0.000          -0.000
 97  3  9  2 56 29.9970000  0  6 24 17  5 30  6 10                  -0.002983024
 -21721653.371 9 -16899455.93347  21902458.166    21902457.9044   21902462.1764
        -0.000          -0.000
 -12224652.416 9  -8172545.05346  22895603.534    22895602.7454   22895608.2404
        -0.000          -0.000
 -30004652.000 9 -23369094.43748  20321562.460    20321561.7464   20321566.0414
        -0.000          -0.000
 -28507727.837 9 -22188665.84749  19592846.515    19592846.4854   19592849.9744
        -0.000          -0.000
 -23293576.501 9 -18136655.14148  20778775.369    20778775.0134   20778778.9114
        -0.000          -0.000
 -30489996.437 9 -23743643.64648  20135472.642    20135471.6134   20135475.8054
        -0.000          -0.000
